     2              OBSERVATION DATA    GPS                 RINEX VERSION / TYPE
teqc 1998Mar9 19981006 18:56:36UTC                          PGM / RUN BY / DATE
                                                            COMMENT
Original Marker Name: PARK                                  COMMENT
Campaign Name: HPGN 1998                                    COMMENT
4-Character Station Name: PARK                              COMMENT
6-Character Antenna Code: TRMCMP                            COMMENT
Vertical Measurement Point: BPA                             COMMENT
Vertical Offset to Rinex Ref. Point: 0.0000                 COMMENT
Radial Measurement Point: RRP                               COMMENT
Radial Offset to Rinex Ref. Point: 0.0000                   COMMENT
Antenna Height from Field Measurement: 2.0000 m             COMMENT
Original XYZ: -2292908.8547 -4639289.2728 3716479.7653      COMMENT
New XYZ position is based on association with SCEC monument COMMENT
E1F4L0T0+0011. Position of that monument is believed to be  COMMENT
valid to within 1 m horizontally; vertical accuracy         COMMENT
should be no worse than 3-times this value.                 COMMENT
                                                            COMMENT
Revised Rinex header created by UCSD GPS archive for        COMMENT
GSAC on 14-Apr-1999 (1999:104) 22:15:29 GMT                 COMMENT
For assistance contact dagnew@ucsd.edu or hjohnson@ucsd.edu COMMENT
                                                            COMMENT
PARK 2                                                      MARKER NAME
unknown CALIF DEPT TRANSPORTATION                           OBSERVER / AGENCY
7286 TRIMBLE 4000 SSE NP 7.25; SP 3.07                      REC # / TYPE / VERS
115365 TR GEOD L1/L2 GP                                     ANT # / TYPE
 -2292911.0000 -4639296.0000  3716484.0000                  APPROX POSITION XYZ
        2.0000        0.0000        0.0000                  ANTENNA: DELTA H/E/N
     1     1     0                                          WAVELENGTH FACT L1/2
     7    L1    L2    C1    P2    P1    D1    D2            # / TYPES OF OBSERV
     0                                                      INTERVAL
  1998     6    26    19     6   15.000000                  TIME OF FIRST OBS
  1998     6    27     0    35   45.000000                  TIME OF LAST OBS
                                                            END OF HEADER
 98  6 26 19  6 15.0000000  0  7G 5G 6G10G13G17G30G24
   1058658.61255    662921.24855  22874890.2274   22874896.4264
     -3730.1874      -2906.6404
   -371943.73356   -250138.17256  20906115.5084   20906119.6564
      1247.8594        972.3584
    562380.84756    378614.42956  21417299.1644   21417304.1684
     -2084.0314      -1623.9204
    -70817.89954    -37167.43552  24640596.5234   24640599.5824
       147.7034        115.0934
   -524416.27956   -356903.73655  22441485.2344   22441490.6484
      1761.8914       1372.9024
    650248.97556    437761.75056  21189676.9304   21189680.8204
     -2441.6724      -1902.6014
    841983.45354    485605.24553  23783681.5234   23783687.1254
     -2947.1094      -2296.4494
 98  6 26 19  6 30.0000000  0  7G 5G 6G10G13G17G30G24
   1114642.10145    706544.69345  22885543.8674   22885549.0704
     -3734.4224      -2909.9394
   -390623.65646   -264693.94046  20902560.5784   20902564.2814
      1242.6564        968.3044
    593714.15846    403029.99946  21423261.6644   21423266.5864
     -2093.8594      -1631.5794
    -72967.63144    -38842.54242  24640187.6484   24640194.7304
       138.8134        108.1664
   -550808.75746   -377469.27545  22436462.8204   22436468.3524
      1756.9384       1369.0424
    686940.37846    466352.45246  21196658.9924   21196662.7894
     -2450.6724      -1909.6144
    886194.64744    520055.53743  23792094.8444   23792101.0784
     -2947.7974      -2296.9854
 98  6 26 19  6 45.0000000  0  7G 5G 6G10G13G17G30G24
   1170686.68445    750215.77645  22896208.6174   22896214.2544
     -3738.1724      -2912.8614
   -409227.66446   -279190.55746  20899020.0944   20899024.0664
      1237.8444        964.5544
    625192.73746    427558.76146  21429251.8524   21429256.7624
     -2103.3444      -1638.9694
    -74987.04543    -40416.09741  24639802.6724   24639808.4384
       130.4064        101.6154
   -577128.06046   -397977.80145  22431454.7034   22431460.6564
      1752.2504       1365.3904
    723765.62246    495047.44446  21203666.7584   21203670.6724
     -2459.3754      -1916.3964
    930412.57244    554511.02943  23800509.6174   23800517.0394
     -2947.9374      -2297.0944
 98  6 26 19  7  0.0000000  0  7G 5G 6G10G13G17G30G24
   1226787.41245    793930.60945  22906884.2194   22906890.2424
     -3742.1564      -2915.9664
   -427758.92446   -293630.48746  20895494.1884   20895498.3364
      1232.7034        960.5484
    656813.80746    452198.56546  21435269.1174   21435273.9574
     -2113.0784      -1646.5544
    -76879.68044    -41890.84442  24639442.7734   24639447.0864
       121.5944         94.7484
   -603374.55646   -418429.59345  22426459.8594   22426465.4844
      1747.0164       1361.3114
    760721.17946    523843.97846  21210699.2034   21210702.8244
     -2468.3124      -1923.3604
    974632.79444    588968.31242  23808924.0084   23808929.8674
     -2948.3594      -2297.4234
 98  6 26 19  7 15.0000000  0  7G 5G 6G10G13G17G30G24
   1282942.95545    837688.12244  22917570.5084   22917576.4144
     -3745.4694      -2918.5474
   -446216.59546   -308013.07146  20891981.7424   20891985.7384
      1228.0634        956.9324
    688577.38246    476949.40046  21441313.7814   21441318.6214
     -2122.2814      -1653.7264
    -78643.89144    -43265.48742  24639108.5944   24639109.5664
       113.4224         88.3814
   -629546.35445   -438823.17345  22421479.4144   22421485.1454
      1742.3444       1357.6704
    797806.65246    552741.74046  21217756.5554   21217759.9184
     -2476.5784      -1929.8014
   1018853.89344    623426.30543  23817339.2664   23817345.3244
     -2947.9844      -2297.1314
 98  6 26 19  7 30.0000000  0  7G 5G 6G10G13G17G30G24
   1339152.09745    881487.43945  22928266.9774   22928271.8634
     -3749.7814      -2921.9074
   -464599.77946   -322337.61446  20888483.2814   20888487.2304
      1222.3284        952.4634
    720482.49046    501810.52446  21447384.6254   21447389.5704
     -2132.4224      -1661.6274
    -80281.61944    -44541.62942  24638796.1484   24638799.9574
       104.2814         81.2584
   -655643.92345   -459158.91145  22416513.0864   22416518.8634
      1736.6724       1353.2514
    835019.06346    581738.42646  21224837.8834   21224840.9414
     -2485.8124      -1936.9974
   1063072.52244    657882.38443  23825754.0004   23825760.1524
     -2948.5624      -2297.5814
 98  6 26 19  7 45.0000000  0  7G 5G 6G10G13G17G30G24
   1395427.53145    925338.40145  22938975.6644   22938981.4534
     -3753.8594      -2925.0854
   -482896.86546   -336595.07346  20885001.7584   20885005.5664
      1217.0944        948.3854
    752538.77646    526789.45246  21453484.9304   21453489.9344
     -2141.9534      -1669.0544
    -81782.74444    -45711.36142  24638510.5944   24638512.5274
        95.6414         74.5254
   -681656.87646   -479428.72045  22411563.3134   22411569.0314
      1731.5164       1349.2334
    872370.57946    610843.49746  21231945.6484   21231948.8244
     -2494.6094      -1943.8514
   1107300.56044    692345.76343  23834170.4534   23834176.8164
     -2948.7034      -2297.6914
 98  6 26 19  8  0.0000000  0  7G 5G 6G10G13G17G30G24
   1451762.46545    969235.73045  22949695.9144   22949701.7624
     -3757.6724      -2928.0564
   -501119.48046   -350794.49746  20881533.9454   20881537.8364
      1212.4064        944.7324
    784733.82446    551876.50646  21459611.6954   21459616.7704
     -2150.8914      -1676.0194
    -83156.69844    -46781.94242  24638248.4144   24638251.3204
        87.3444         68.0604
   -707596.03946   -499641.03445  22406627.2734   22406632.9344
      1726.8284       1345.5804
    909852.01646    640049.81946  21239078.0704   21239081.4924
     -2503.1874      -1950.5364
   1151527.45844    726808.23243  23842585.7734   23842591.8794
     -2948.4694      -2297.5084
 98  6 26 19  8 15.0000000  0  8G 5G 6G10G13G17G30G24G26
   1508157.74045   1013180.04145  22960428.0004   22960433.1804
     -3761.6874      -2931.1854
   -519269.45246   -364937.32046  20878080.2274   20878083.9654
      1207.5634        940.9584
    817064.66746    577069.37246  21465763.8984   21465768.9614
     -2159.9534      -1683.0804
    -84403.61544    -47753.55442  24638011.4694   24638015.6054
        78.9064         61.4854
   -733462.85845   -519796.97845  22401704.9774   22401710.8834
      1722.1724       1341.9524
    947465.57646    669359.08146  21246235.5314   21246239.2814
     -2511.9374      -1957.3544
   1195755.59744    761271.73643  23851002.9694   23851008.0664
     -2948.6564      -2297.6544
    -19946.01652                  24421092.3674
      2493.2344
 98  6 26 19  8 30.0000000  0  8G 5G 6G10G13G17G30G24G26
   1564618.05245   1057175.08745  22971171.9694   22971178.1214
     -3766.2974      -2934.7774
   -537340.95046   -379018.99246  20874641.3674   20874645.1764
      1201.9694        936.5994
    849535.76546    602371.53146  21471942.8834   21471947.8754
     -2169.4224      -1690.4594
    -85518.44144    -48622.21742  24637799.6564   24637803.5944
        69.7344         54.3384
   -759257.70846   -539896.82745  22396796.4064   22396801.9614
      1717.1884       1338.0684
    985214.21346    698773.59946  21253418.9304   21253422.4924
     -2521.1564      -1964.5374
   1239991.40044    795741.18643  23859420.1414   23859428.9574
     -2949.4064      -2298.2394
    -57333.86142                  24413976.8914
      2491.8134
 98  6 26 19  8 45.0000000  0  8G 5G 6G10G13G17G30G24G26
   1621146.26145   1101223.02045  22981928.5554   22981934.1094
     -3770.7344      -2938.2354
   -555326.66946   -393033.82646  20871218.8134   20871222.6564
      1196.2194        932.1194
    882148.70546    627784.21446  21478149.1094   21478153.8324
     -2178.8914      -1697.8374
    -86495.59444    -49383.64342  24637613.8914   24637618.3794
        60.6254         47.2404
   -784977.16346   -559937.94445  22391902.1724   22391907.7624
      1712.1884       1334.1724
   1023101.11846    728295.85246  21260628.6644   21260632.0744
     -2530.3754      -1971.7214
   1284239.45145    830220.16543  23867840.3984   23867847.7624
     -2950.3444      -2298.9694
    -94699.81942                  24406866.6884
      2490.3444
 98  6 26 19  9  0.0000000  0  8G 5G 6G10G13G17G30G24G26
   1677744.62445   1145325.58745  22992699.0704   22992704.7544
     -3775.7974      -2942.1794
   -573221.90246   -406978.15346  20867813.3284   20867817.2424
      1189.7814        927.1024
    914907.55646    653310.58646  21484383.0084   21484387.9064
     -2188.9844      -1705.7024
    -87331.17844    -50034.72542  24637454.4064   24637458.9304
        50.7034         39.5094
   -810619.69045   -579919.11045  22387022.2894   22387027.8444
      1706.7664       1329.9474
   1061130.78446    757929.35946  21267865.3054   21267868.8914
     -2540.3124      -1979.4644
   1328509.31744    864716.15943  23876264.4694   23876270.8204
     -2952.3754      -2300.5524
   -132038.52442                  24399762.1644
      2488.0474
 98  6 26 19  9 15.0000000  0  8G 5G 6G10G13G17G30G24G26
   1734422.51145   1189490.14945  23003484.6414   23003490.3364
     -3781.0474      -2946.2704
   -591017.91246   -420845.16346  20864427.0084   20864431.0514
      1183.2504        922.0134
    947819.57846    678956.31946  21490645.8594   21490651.0164
     -2199.0944      -1713.5804
    -88013.89544    -50566.69542  24637324.3984   24637329.3914
        40.5474         31.5954
   -836178.96845   -599835.41145  22382158.4924   22382163.7774
      1701.3914       1325.7594
   1099312.22346    787681.12046  21275130.9774   21275134.6214
     -2550.3914      -1987.3174
   1372812.95545    899238.48842  23884694.8914   23884702.5234
     -2954.6094      -2302.2934
   -169339.60643                  24392663.0784
      2485.5944
 98  6 26 19  9 30.0000000  0  8G 5G 6G10G13G17G30G24G26
   1791176.54945   1233714.04445  23014284.3364   23014289.9264
     -3786.5944      -2950.5934
   -608718.31546   -434637.66846  20861058.8054   20861062.7074
      1176.3594        916.6444
    980880.58546    704718.14846  21496937.1174   21496941.9804
     -2209.4224      -1721.6274
    -88547.09544    -50982.10842  24637222.6094   24637226.8634
        30.1094         23.4624
   -861661.15346   -619691.62245  22377309.4454   22377314.9534
      1695.7664       1321.3764
   1137642.69846    817549.01846  21282424.9844   21282428.5594
     -2560.8124      -1995.4384
   1417148.05145    933785.29243  23893131.7194   23893138.2114
     -2957.2034      -2304.3144
   -206605.78342    -15481.83551  24385572.1484   24385578.6414
      2482.7814       1934.6354
 98  6 26 19  9 45.0000000  0  8G 5G 6G10G13G17G30G24G26
   1848017.72745   1278005.84845  23025101.1414   23025107.3164
     -3792.3124      -2955.0494
   -626310.51646   -448345.87146  20857710.9304   20857714.9614
      1169.1414        911.0194
   1014100.28946    730603.63246  21503258.4694   21503263.5204
     -2220.0314      -1729.8944
    -88918.65844    -51271.68942  24637152.8284   24637155.8754
        19.3594         15.0854
   -887054.04745   -639478.27245  22372477.2664   22372482.5514
      1689.8914       1316.7984
   1176135.34146    847543.27546  21289750.3204   21289754.2344
     -2571.5944      -2003.8394
   1461528.02045    968367.08342  23901577.5164   23901582.6254
     -2960.2194      -2306.6644
   -243824.65842    -44483.54141  24378488.7664   24378493.7464
      2479.6564       1932.2004
 98  6 26 19 10  0.0000000  0  8G 5G 6G10G13G17G30G24G26
   1904947.38245   1322366.58845  23035934.4384   23035940.2624
     -3798.5314      -2959.8944
   -643791.46346   -461967.37646  20854384.6724   20854388.7384
      1161.4064        904.9924
   1047484.52546    756617.32746  21509611.4844   21509616.9104
     -2231.4844      -1738.8194
    -89125.27644    -51432.67042  24637113.2274   24637114.6564
         7.9384          6.1854
   -912356.12845   -659194.14645  22367662.6644   22367668.6994
      1683.4534       1311.7824
   1214791.94046    877665.29646  21297106.0864   21297110.0004
     -2582.8594      -2012.6184
   1505955.81645   1002986.13643  23910031.8444   23910037.3874
     -2963.6724      -2309.3554
   -280994.32643    -73446.75542  24371415.5084   24371421.6844
      2476.0784       1929.4124
 98  6 26 19 10 15.0000000  0  8G 5G 6G10G13G17G30G24G26
   1961968.38145   1366798.46944  23046784.7344   23046790.7464
     -3804.4534      -2964.5094
   -661155.15646   -475497.51746  20851080.3444   20851084.4224
      1153.5474        898.8684
   1081040.42746    782764.77246  21515997.0234   21516001.8404
     -2242.7974      -1747.6344
    -89159.95344    -51459.64342  24637106.3834   24637114.0164
        -3.4534         -2.6914
   -937561.53946   -678834.70545  22362866.1644   22362871.6484
      1677.0944       1306.8264
   1253617.68046    907919.10646  21304494.4064   21304498.0044
     -2594.0474      -2021.3354
   1550434.33745   1037644.70143  23918496.4064   23918502.0084
     -2966.9694      -2311.9244
   -318112.54343   -102370.07541  24364352.7344   24364360.1454
      2472.8914       1926.9284
 98  6 26 19 10 30.0000000  0  8G 5G 6G10G13G17G30G24G26
   2019083.41445   1411303.66544  23057654.0704   23057660.1054
     -3811.1094      -2969.6964
   -678394.50746   -488930.76546  20847799.8204   20847803.8754
      1144.8444        892.0864
   1114771.94646    809049.07546  21522415.6724   21522420.6764
     -2254.9694      -1757.1194
    -89019.34944    -51350.09442  24637133.2274   24637134.9264
       -15.5784        -12.1394
   -962667.23246   -698397.56545  22358088.9224   22358094.3134
      1670.0474       1301.3354
   1292613.32746    938305.31646  21311915.2034   21311918.8364
     -2605.6094      -2030.3454
   1594967.07745   1072345.50443  23926970.5004   23926976.8284
     -2970.9224      -2315.0044
   -355178.76943   -131252.82042  24357299.3284   24357305.5984
      2469.0474       1923.9334
 98  6 26 19 10 45.0000000  0  8G 5G 6G10G13G17G30G24G26
   2076296.05245   1455884.92445  23068541.0634   23068547.1564
     -3817.4374      -2974.6274
   -695506.33646   -502264.64746  20844543.5554   20844547.6804
      1136.6094        885.6704
   1148682.94146    835473.23146  21528868.7814   21528873.9024
     -2266.6414      -1766.2134
    -88697.05543    -51098.93642  24637194.6254   24637197.1094
       -27.5314        -21.4534
   -987666.59546   -717877.56145  22353331.5234   22353337.2074
      1662.9534       1295.8084
   1331781.55846    968826.00846  21319368.5634   21319372.0084
     -2616.9694      -2039.1964
   1639555.71045   1107089.89243  23935455.7974   23935462.6294
     -2974.4064      -2317.7194
   -392188.80443   -160091.72442  24350256.7034   24350262.1054
      2465.4844       1921.1574
 98  6 26 19 11  0.0000000  0  8G 5G 6G10G13G17G30G24G26
   2133609.03045   1500544.33245  23079447.2344   23079452.7304
     -3824.5624      -2980.1794
   -712491.85946   -515500.10946  20841311.0704   20841314.7974
      1127.9224        878.9004
   1182774.47446    862038.05946  21535356.0864   21535361.2074
     -2279.0944      -1775.9174
    -88192.10543    -50705.43742  24637290.3134   24637297.2194
       -40.0944        -31.2424
  -1012552.44546   -737269.12445  22348595.7584   22348601.4064
      1654.9384       1289.5624
   1371124.62046    999482.92746  21326855.3284   21326858.7154
     -2629.0164      -2048.5844
   1684201.92545   1141879.14243  23943951.2504   23943954.7304
     -2978.6094      -2320.9944
   -429140.90043   -188885.48742  24343224.4924   24343231.4804
      2461.2034       1917.8214
 98  6 26 19 11 15.0000000  0  8G 5G 6G10G13G17G30G24G26
   2191026.27145   1545284.98345  23090373.6644   23090379.3954
     -3831.2344      -2985.3774
   -729350.43546   -528636.65146  20838103.0704   20838106.7624
      1119.7664        872.5454
   1217048.64346    888745.20146  21541878.6484   21541883.5594
     -2290.9064      -1785.1224
    -87500.69944    -50166.68442  24637421.8984   24637425.9884
       -52.2344        -40.7024
  -1037320.79646   -756569.10945  22343882.5234   22343887.8444
      1647.3444       1283.6444
   1410646.36846   1030279.07946  21334376.3674   21334379.6374
     -2640.6564      -2057.6544
   1728904.72645   1176712.48243  23952457.3364   23952462.3164
     -2981.8444      -2323.5154
   -466030.62343   -217630.70241  24336204.7584   24336209.2234
      2457.2664       1914.7524
 98  6 26 19 11 30.0000000  0  8G 5G 6G10G13G17G30G24G26
   2248545.36845   1590105.04545  23101318.6564   23101324.0944
     -3838.1564      -2990.7714
   -746085.14546   -541676.67446  20834918.6954   20834922.5864
      1111.3594        865.9944
   1251501.60646    915591.66746  21548434.5394   21548439.1804
     -2303.0004      -1794.5454
    -86627.00443    -49485.85742  24637588.5084   24637594.8364
       -64.4224        -50.1994
  -1061972.52646   -775778.22345  22339191.6094   22339197.0704
      1639.4384       1277.4844
   1450343.09846   1061211.59646  21341930.1644   21341933.1524
     -2652.3914      -2066.7984
   1773656.43445   1211583.90043  23960973.7814   23960978.4104
     -2985.2194      -2326.1444
   -502858.92942   -246328.05442  24329196.8524   24329202.5354
      2452.9384       1911.3804
 98  6 26 19 11 45.0000000  0  8G 5G 6G10G13G17G30G24G26
   2306158.04345   1634998.01145  23112282.7274   23112288.0594
     -3844.2344      -2995.5074
   -762704.29446   -554626.65046  20831756.1724   20831760.1454
      1103.8444        860.1384
   1286125.05946    942570.97746  21555023.3444   21555028.3134
     -2314.1564      -1803.2394
    -85581.60543    -48671.29942  24637787.4534   24637790.2894
       -75.6564        -58.9534
  -1086516.48546   -794903.37345  22334521.1414   22334526.6604
      1632.3914       1271.9934
   1490203.15846   1092271.37046  21349515.2274   21349518.3554
     -2662.9374      -2075.0164
   1818448.01445   1246486.42043  23969497.7274   23969502.9654
     -2987.6874      -2328.0684
   -539632.41842   -274982.59941  24322197.9064   24322204.9304
      2449.5004       1908.7014
 98  6 26 19 12  0.0000000  0  8G 5G 6G10G13G17G30G24G26
   2363875.34445   1679972.49945  23123265.4384   23123271.9534
     -3851.2664      -3000.9864
   -779197.75246   -567478.67846  20828617.5944   20828621.7074
      1095.4384        853.5884
   1320930.39846    969692.02046  21561646.3594   21561651.4694
     -2326.4224      -1812.7964
    -84355.66843    -47715.92541  24638019.7034   24638023.1374
       -87.6254        -68.2794
  -1110941.33146   -813935.69745  22329872.8594   22329877.8874
      1624.4224       1265.7834
   1530233.20146   1123463.60646  21357132.8364   21357136.0944
     -2674.2034      -2083.7954
   1863289.99045   1281428.23743  23978030.7504   23978035.4384
     -2991.0624      -2330.6984
   -576340.71342   -303586.40542  24315213.3754   24315219.1764
      2445.1094       1905.2804
 98  6 26 19 12 15.0000000  0  8G 5G 6G10G13G17G30G24G26
   2421692.93245   1725025.09244  23134268.6724   23134274.5434
     -3857.7034      -3006.0024
   -795571.05446   -580237.09046  20825501.7974   20825505.3714
      1087.6884        847.5494
   1355913.28346    996951.41146  21568303.3364   21568308.5514
     -2337.8124      -1821.6724
    -82955.76143    -46625.10742  24638286.3444   24638289.0984
       -98.9694        -77.1194
  -1135251.94446   -832879.01845  22325246.8834   22325252.1214
      1617.0314       1260.0244
   1570426.58346   1154783.12446  21364781.3594   21364784.8634
     -2684.8284      -2092.0744
   1908177.61445   1316405.59343  23986572.1334   23986578.3554
     -2993.8914      -2332.9024
   -612987.86242   -332142.55242  24308239.1334   24308245.9924
      2441.2034       1902.2364
 98  6 26 19 12 30.0000000  0  8G 5G 6G10G13G17G30G24G26
   2479613.92245   1770158.31444  23145290.4924   23145295.2734
     -3864.8914      -3011.6034
   -811821.01346   -592899.38546  20822409.5634   20822413.5704
      1079.2504        840.9744
   1391071.56146   1024347.47246  21574994.0554   21574999.0474
     -2349.7664      -1830.9864
    -81378.99343    -45396.47742  24638587.6094   24638592.2034
      -111.0004        -86.4944
  -1159444.66246   -851730.46545  22320643.0084   22320648.2704
      1608.8914       1253.6814
   1610784.88346   1186231.14646  21372461.1724   21372464.5824
     -2696.0474      -2100.8164
   1953116.33544   1351422.78543  23995123.6564   23995130.3014
     -2997.7504      -2335.9094
   -649568.58842   -360646.92442  24301278.0234   24301285.8204
      2436.4064       1898.4984
 98  6 26 19 12 45.0000000  0  8G 5G 6G10G13G17G30G24G26
   2537633.57945   1815368.43444  23156331.1724   23156336.8914
     -3871.2664      -3016.5714
   -827955.02846   -605471.33846  20819339.2894   20819343.3794
      1071.7194        835.1064
   1426400.67446   1051876.65146  21581716.9224   21581721.7274
     -2361.0004      -1839.7404
    -79630.83843    -44034.25042  24638919.2424   24638927.2504
      -122.3594        -95.3454
  -1183524.05046   -870493.61245  22316060.8914   22316065.9184
      1601.4534       1247.8864
   1651302.82046   1217803.56246  21380171.6094   21380175.2774
     -2706.6254      -2109.0584
   1998105.07444   1386478.91643  24003685.0864   24003691.3914
     -3000.9374      -2338.3934
   -686084.56942   -389100.88242  24294329.1094   24294336.7544
      2432.1254       1895.1624
 98  6 26 19 13  0.0000000  0  8G 5G 6G10G13G17G30G24G26
   2595745.74545   1860650.57245  23167389.5084   23167395.5554
     -3877.3284      -3021.2954
   -843977.65646   -617956.49046  20816290.4454   20816294.4064
      1064.2814        829.3104
   1461895.47946   1079534.94146  21588471.2734   21588476.5594
     -2372.0004      -1848.3124
    -77715.49743    -42541.77242  24639284.6024   24639289.6294
      -133.2974       -103.8684
  -1207494.31546   -889171.71545  22311499.6024   22311504.5234
      1594.3134       1242.3214
   1691977.60846   1249498.19446  21387911.8204   21387915.7114
     -2717.0004      -2117.1434
   2043139.39944   1421570.57742  24012254.1644   24012260.8794
     -3003.9844      -2340.7674
   -722536.61742   -417505.03942  24287392.9774   24287398.7544
      2427.8594       1891.8384
 98  6 26 19 13 15.0000000  0  8G 5G 6G10G13G17G30G24G26
   2653949.33145   1906003.97945  23178465.3984   23178470.7424
     -3883.3914      -3026.0194
   -859884.34046   -630351.29546  20813263.4534   20813267.5204
      1056.3134        823.1014
   1497559.98246   1107325.46546  21595258.2344   21595263.3094
     -2383.5164      -1857.2854
    -75634.55743    -40920.24642  24639679.9614   24639685.8094
      -144.4844       -112.5854
  -1231356.66446   -907765.73145  22306958.9304   22306963.8984
      1587.0634       1236.6724
   1732810.62146   1281316.12646  21395681.9534   21395685.7154
     -2727.6724      -2125.4594
   2088221.71143   1456699.61042  24020833.2194   24020838.7624
     -3007.2664      -2343.3244
   -758922.65042   -445857.77541  24280468.6024   24280474.7664
      2423.3594       1888.3324
 98  6 26 19 13 30.0000000  0  8G 5G 6G10G13G17G30G24G26
   2712238.30545   1951423.91445  23189557.5004   23189563.8054
     -3888.6414      -3030.1104
   -875674.98846   -642655.68646  20810258.7734   20810262.7584
      1048.8914        817.3174
   1533392.34446   1135246.78246  21602076.7894   21602081.7704
     -2394.3594      -1865.7354
    -73390.45644    -39171.56242  24640107.4534   24640117.3834
      -154.9694       -120.7554
  -1255115.30746   -926278.94345  22302437.4534   22302442.0004
      1580.5164       1231.5714
   1773799.98146   1313255.88146  21403481.9924   21403485.7074
     -2737.7664      -2133.3244
   2133349.09643   1491863.80942  24029421.0634   24029426.3364
     -3010.0474      -2345.4914
   -795246.43242   -474161.90241  24273556.6334   24273565.0274
      2419.6254       1885.4224
 98  6 26 19 13 45.0000000  0  8G 5G 6G10G13G17G30G24G26
   2770607.83145   1996906.62845  23200664.9924   23200670.6174
     -3894.0314      -3034.3104
   -891349.54946   -654869.62246  20807275.8364   20807279.8204
      1040.9534        811.1324
   1569391.90646   1163298.38846  21608927.2034   21608932.6174
     -2405.6564      -1874.5374
    -70985.40243    -37297.50642  24640564.0864   24640570.7544
      -165.8284       -129.2174
  -1278770.87946   -944711.83245  22297936.0164   22297940.8094
      1573.4844       1226.0924
   1814944.18646   1345316.28746  21411311.5004   21411315.2274
     -2748.2504      -2141.4944
   2178524.93843   1527065.74442  24038017.9844   24038024.4414
     -3013.5004      -2348.1824
   -831510.95742   -502419.96541  24266655.4694   24266662.2544
      2415.5784       1882.2694
 98  6 26 19 14  0.0000000  0  8G 5G 6G10G13G17G30G24G26
   2829060.51745   2042454.14144  23211788.0634   23211792.8324
     -3899.4534      -3038.5354
   -906900.80146   -666987.46946  20804316.3204   20804320.1524
      1032.6724        804.6794
   1605563.63746   1191484.15246  21615810.6254   21615815.7464
     -2417.1254      -1883.4744
    -68412.59043    -35292.70842  24641054.1254   24641056.7384
      -177.0944       -137.9954
  -1302316.58646   -963059.11745  22293455.0084   22293460.4104
      1566.0784       1220.3214
   1856251.17746   1377503.54846  21419172.1414   21419175.6804
     -2759.2504      -2150.0654
   2223754.99343   1562309.94142  24046624.0704   24046630.0704
     -3017.0314      -2350.9334
   -867713.95942   -530630.07141  24259765.8134   24259770.2894
      2411.6414       1879.2004
 98  6 26 19 14 15.0000000  0  8G 5G 6G10G13G17G30G24G26
   2887590.57845   2088061.93545  23222926.2894   23222931.2704
     -3904.6414      -3042.5774
   -922329.00946   -679009.43346  20801380.5314   20801384.5864
      1024.2974        798.1534
   1641906.41146   1219803.19746  21622726.0004   21622731.2274
     -2428.6724      -1892.4724
    -65671.47643    -33156.77842  24641575.8364   24641580.5234
      -188.5624       -146.9324
  -1325754.62646   -981322.50345  22288995.1724   22289000.6804
      1558.8594       1214.6964
   1897724.25746   1409820.22746  21427063.9694   21427067.7194
     -2770.6414      -2158.9414
   2269035.97543   1597593.76742  24055241.1724   24055247.2664
     -3020.5624      -2353.6854
   -903858.70542   -558794.65241  24252888.2424   24252893.5744
      2407.5004       1875.9744
 98  6 26 19 14 30.0000000  0  8G 5G 6G10G13G17G30G24G26
   2946194.34045   2133727.17944  23234078.0394   23234083.0314
     -3909.2194      -3046.1444
   -937635.90246   -690936.87746  20798467.8984   20798472.0944
      1016.6094        792.1634
   1678417.70646   1248253.55346  21629673.8524   21629678.8674
     -2439.5314      -1900.9334
    -62759.62944    -30887.80242  24642129.7814   24642131.7274
      -199.6874       -155.6014
  -1349087.79346   -999504.17745  22284555.2664   22284560.4804
      1552.2344       1209.5334
   1939364.81946   1442267.41146  21434987.7974   21434991.3714
     -2781.4064      -2167.3304
   2314365.33043   1632915.30642  24063867.8204   24063875.1844
     -3023.3284      -2355.8404
   -939943.48142   -586912.66041  24246020.3444   24246023.9184
      2403.8134       1873.1014
 98  6 26 19 14 45.0000000  0  8G 5G 6G10G13G17G30G24G26
   3004869.33145   2179447.88444  23245243.1884   23245249.1414
     -3914.2664      -3050.0774
   -952825.46846   -702772.89746  20795577.1414   20795581.2304
      1008.5634        785.8934
   1715096.30746   1276834.27646  21636653.6954   21636658.7464
     -2451.0474      -1909.9074
    -59679.37944    -28487.58342  24642716.7734   24642720.9454
      -211.1724       -164.5504
  -1372318.79946  -1017606.24345  22280134.4924   22280139.2384
      1545.1094       1203.9814
   1981170.23246   1474843.05046  21442943.4454   21442946.8794
     -2792.8444      -2176.2424
   2359739.73943   1668271.97443  24072501.4694   24072506.3794
     -3026.6094      -2358.3974
   -975969.86642   -614985.09841  24239166.1644   24239171.0864
      2399.5634       1869.7894
 98  6 26 19 15  0.0000000  0  8G 5G 6G10G13G17G30G24G26
   3063614.37845   2225223.26144  23256422.5944   23256428.5944
     -3918.8754      -3053.6694
   -967899.80446   -714519.12346  20792708.9064   20792712.9494
      1000.8594        779.8904
   1751941.24846   1305544.61446  21643665.3204   21643670.4884
     -2462.1094      -1918.5274
    -56433.44144    -25958.29742  24643334.2734   24643337.7664
      -222.0944       -173.0604
  -1395450.00046  -1035630.53345  22275732.7584   22275737.8444
      1538.5634       1198.8804
   2023141.56546   1507547.98046  21450930.5634   21450933.8554
     -2803.7814      -2184.7654
   2405154.24343   1703659.87843  24081143.7194   24081149.6134
     -3029.0784      -2360.3214
  -1011938.59442   -643012.59841  24232320.9614   24232329.7424
      2395.7664       1866.8304
 98  6 26 19 15 15.0000000  0  8G 5G 6G10G13G17G30G24G26
   3122431.03545   2271054.33844  23267614.5234   23267620.4304
     -3923.6414      -3057.3824
   -982855.81146   -726173.14846  20789862.5864   20789866.5124
       992.9844        773.7544
   1788954.85846   1334386.38846  21650708.7504   21650713.8134
     -2473.3444      -1927.2814
    -53022.39544    -23300.30342  24643982.8204   24643989.4064
      -233.0944       -181.6314
  -1418480.19446  -1053576.12745  22271350.0864   22271355.3364
      1531.8594       1193.6574
   2065278.33146   1540381.81146  21458948.8524   21458952.1214
     -2814.7974      -2193.3484
   2450608.32344   1739078.59542  24089794.1804   24089799.9694
     -3031.7664      -2362.4154
  -1047847.96242   -670993.89642  24225487.5234   24225493.3594
      2391.8284       1863.7624
 98  6 26 19 15 30.0000000  0  8G 5G 6G10G13G17G30G24G26
   3181314.16745   2316937.27044  23278819.6884   23278825.6174
     -3927.6254      -3060.4874
   -997700.32946   -737740.29846  20787037.8524   20787041.5664
       986.1724        768.4464
   1826131.16346   1363354.93446  21657783.0944   21657788.3324
     -2483.6094      -1935.2804
    -49449.32143    -20516.10342  24644662.5634   24644667.1564
      -243.5474       -189.7774
  -1441414.74446  -1071447.17445  22266985.8284   22266991.1844
      1525.8754       1188.9944
   2107574.98746   1573340.23346  21466997.4144   21467000.9064
     -2824.8914      -2201.2134
   2496096.29944   1774523.74742  24098450.0864   24098456.5434
     -3033.4534      -2363.7304
  -1083703.33643   -698933.06642  24218664.7034   24218669.7544
      2388.7034       1861.3274
 98  6 26 19 15 45.0000000  0  8G 5G 6G10G13G17G30G24G26
   3240263.39545   2362871.69643  23290037.3754   23290042.9304
     -3932.4374      -3064.2374
  -1012438.18346   -749224.33346  20784233.5004   20784237.1564
       978.7034        762.6264
   1863464.82946   1392446.10246  21664887.3134   21664892.4454
     -2494.3754      -1943.6694
    -45712.79943    -17604.49942  24645373.4534   24645377.4494
      -254.8444       -198.5804
  -1464254.36346  -1089244.26545  22262639.6884   22262645.0314
      1519.2034       1183.7954
   2150027.89946   1606420.41246  21475075.9454   21475079.5664
     -2835.5784      -2209.5414
   2541614.83444   1809992.73242  24107111.4144   24107118.6024
     -3035.8914      -2365.6294
  -1119505.70743   -726830.97441  24211851.1644   24211860.0984
      2384.7814       1858.2714
 98  6 26 19 16  0.0000000  0  8G 5G 6G10G13G17G30G24G26
   3299284.63445   2408862.23643  23301268.8674   23301273.6844
     -3937.2034      -3067.9504
  -1027064.23746   -760621.24946  20781450.2734   20781453.9654
       971.3754        756.9164
   1900959.88446   1421663.02746  21672022.6644   21672027.6214
     -2505.0474      -1951.9854
    -41807.49344    -14561.43142  24646116.1564   24646115.4534
      -265.9374       -207.2244
  -1486995.02246  -1106964.24645  22258312.1334   22258317.2894
      1512.8284       1178.8274
   2192638.50446   1639623.47446  21483184.6024   21483187.9774
     -2845.9064      -2217.5894
   2587167.85244   1845488.57042  24115780.2424   24115785.5164
     -3037.8914      -2367.1874
  -1155249.16643   -754683.03241  24205050.0474   24205057.4104
      2380.9064       1855.2524
 98  6 26 19 16 15.0000000  0  8G 5G 6G10G13G17G30G24G26
   3358380.99045   2454911.31544  23312514.2734   23312520.3794
     -3942.5784      -3072.1394
  -1041579.08946   -771931.51646  20778688.1094   20778691.6254
       963.6564        750.9014
   1938616.50646   1451005.84746  21679188.6484   21679193.6174
     -2516.1414      -1960.6294
    -37734.19144    -11387.39242  24646893.2114   24646895.5784
      -277.4534       -216.1974
  -1509639.61746  -1124609.36945  22254003.0004   22254008.0394
      1506.1884       1173.6534
   2235404.49146   1672947.60846  21491322.6644   21491326.0744
     -2856.4844      -2225.8324
   2632753.40244   1881009.81243  24124454.0554   24124459.6914
     -3040.5314      -2369.2454
  -1190931.33843   -782487.21341  24198260.0314   24198265.0234
      2376.3444       1851.6964
 98  6 26 19 16 30.0000000  0  8G 5G 6G10G13G17G30G24G26
   3417551.10645   2501017.84044  23323774.5234   23323780.8524
     -3947.0164      -3075.5974
  -1055986.22346   -783157.84846  20775946.7114   20775950.2624
       957.1254        745.8124
   1976431.21146   1480471.84746  21686384.3284   21686389.4264
     -2526.0004      -1968.3124
    -33495.85544     -8084.78842  24647699.2424   24647704.9734
      -287.8124       -224.2694
  -1532192.67546  -1142183.15245  22249711.6644   22249716.3754
      1500.5944       1169.2944
   2278318.93846   1706387.42046  21499488.9454   21499492.6134
     -2865.6254      -2232.9554
   2678372.76944   1916557.29443  24133135.6884   24133142.0744
     -3042.2504      -2370.5844
  -1226550.28343   -810242.17442  24191482.2274   24191489.5084
      2372.6564       1848.8234
 98  6 26 19 16 45.0000000  0  8G 5G 6G10G13G17G30G24G26
   3476796.08445   2547182.69643  23335048.5704   23335054.4534
     -3952.0164      -3079.4934
  -1070289.48246   -794303.23746  20773224.5314   20773228.1414
       950.2194        740.4304
   2014399.52846   1510057.54446  21693609.5554   21693614.6174
     -2536.1414      -1976.2134
    -29096.81844     -4657.01642  24648535.9224   24648540.3524
      -298.3914       -232.5124
  -1554653.13446  -1159684.80545  22245437.2034   22245442.6054
      1494.4534       1164.5094
   2321376.12246   1739938.45546  21507682.7344   21507686.2384
     -2875.0624      -2240.3084
   2724023.97644   1952129.64642  24141823.4454   24141828.9064
     -3044.2814      -2372.1674
  -1262108.85742   -837950.10941  24184714.8054   24184721.8284
      2368.8284       1845.8404
 98  6 26 19 17  0.0000000  0  8G 5G 6G10G13G17G30G24G26
   3536114.06545   2593404.51243  23346335.6954   23346341.6604
     -3957.0314      -3083.4014
  -1084489.87046   -805368.47046  20770522.6564   20770526.2194
       943.0944        734.8784
   2052517.24046   1539759.65746  21700863.2424   21700868.1524
     -2546.2344      -1984.0794
    -24541.01843     -1106.98442  24649402.9144   24649406.9924
      -309.1564       -240.9014
  -1577023.37446  -1177116.13745  22241180.3444   22241185.5354
      1488.2194       1159.6514
   2364574.62546   1773599.60646  21515903.0784   21515906.6174
     -2884.7664      -2247.8694
   2769703.74144   1987724.27242  24150515.2814   24150522.9384
     -3046.4064      -2373.8234
  -1297612.28742   -865615.11942  24177958.8914   24177965.1724
      2364.9694       1842.8334
 98  6 26 19 17 15.0000000  0  8G 5G 6G10G13G17G30G24G26
   3595506.17145   2639684.00844  23357637.8444   23357643.3284
     -3961.8444      -3087.1514
  -1098582.26046   -816349.54146  20767840.6484   20767844.3404
       935.8754        729.2534
   2090786.25346   1569579.66046  21708145.3754   21708150.5204
     -2556.3124      -1991.9324
    -19823.16743      2569.25042  24650300.7114   24650302.0124
      -319.9224       -249.2904
  -1599300.59746  -1194475.00045  22236941.1334   22236946.5594
      1482.0314       1154.8304
   2407916.22246   1807372.26546  21524150.7424   21524154.2584
     -2894.1254      -2255.1624
   2815414.56844   2023343.06342  24159213.7114   24159220.2734
     -3048.4064      -2375.3814
  -1333059.50243   -893236.30341  24171213.1254   24171218.9264
      2361.3754       1840.0324
 98  6 26 19 17 30.0000000  0  8G 5G 6G10G13G17G30G24G26
   3654968.88745   2686018.54544  23368953.8524   23368959.5124
     -3966.5784      -3090.8404
  -1112566.68046   -827246.48646  20765179.5394   20765183.4064
       928.6724        723.6404
   2129204.33746   1599515.82846  21715456.1094   21715461.0784
     -2566.1254      -1999.5784
    -14943.05443      6371.98242  24651228.9304   24651233.2304
      -330.8594       -257.8124
  -1621485.09146  -1211761.60145  22232719.4614   22232724.6644
      1475.8444       1150.0084
   2451397.49246   1841253.76146  21532424.9304   21532428.3054
     -2903.3754      -2262.3704
   2861155.18744   2058985.08542  24167918.7114   24167925.4964
     -3050.4374      -2376.9644
  -1368454.15842   -920816.50841  24164478.3524   24164484.8204
      2357.9384       1837.3544
 98  6 26 19 17 45.0000000  0  8G 5G 6G10G13G17G30G24G26
   3714507.56445   2732412.26844  23380283.7344   23380289.4534
     -3971.7974      -3094.9074
  -1126438.76346   -838055.89046  20762539.8364   20762543.4694
       921.0004        717.6624
   2167773.59146   1629569.78746  21722795.6804   21722800.7894
     -2576.3124      -2007.5164
     -9893.98144     10306.27042  24652190.2194   24652195.8914
      -342.2034       -266.6524
  -1643571.55346  -1228971.80845  22228516.3984   22228521.5784
      1469.1884       1144.8214
   2495021.26946   1875246.30846  21540726.6414   21540730.1454
     -2913.0314      -2269.8944
   2906930.63444   2094654.25742  24176629.1724   24176633.9414
     -3052.9064      -2378.8884
  -1403794.66143   -948354.54641  24157752.7974   24157758.3984
      2354.2504       1834.4814
 98  6 26 19 18  0.0000000  0  8G 5G 6G10G13G17G30G24G26
   3774121.23745   2778864.42844  23391627.6254   23391633.0394
     -3976.7974      -3098.8034
  -1140198.45346   -848777.72346  20759921.5554   20759925.1764
       913.5474        711.8554
   2206491.95746   1659739.93946  21730163.3444   21730168.5124
     -2586.2664      -2015.2724
     -4680.21043     14368.95842  24653181.9454   24653187.0904
      -353.0314       -275.0894
  -1665563.79846  -1246108.61145  22224331.8204   22224336.8014
      1463.0314       1140.0244
   2538786.82946   1909349.32046  21549054.8834   21549058.1644
     -2922.4844      -2277.2614
   2952742.19044   2130351.55742  24185347.1254   24185354.0314
     -3055.3594      -2380.8004
  -1439081.75943   -975850.80642  24151038.1724   24151045.5234
      2350.6254       1831.6564
 98  6 26 19 18 15.0000000  0  8G 5G 6G10G13G17G30G24G26
   3833813.49145   2825377.86844  23402986.4384   23402992.0864
     -3981.9064      -3102.7844
  -1153844.91046   -859411.32146  20757324.5634   20757328.1604
       906.2504        706.1694
   2245362.71446   1690028.83546  21737560.0704   21737564.9104
     -2596.1874      -2023.0034
       698.26643     18559.97742  24654206.0234   24654214.3014
      -363.8754       -283.5394
  -1687461.94146  -1263172.07845  22220164.5234   22220169.8204
      1456.9844       1135.3134
   2582697.92746   1943565.73746  21557410.8284   21557414.5554
     -2932.1414      -2284.7854
   2998591.62444   2166078.42042  24194070.9534   24194078.3634
     -3057.7034      -2382.6264
  -1474312.24243  -1003303.11842  24144333.8284   24144339.1374
      2346.9844       1828.8194
 98  6 26 19 18 30.0000000  0  8G 5G 6G10G13G17G30G24G26
   3893581.91145   2871950.62243  23414360.5084   23414366.9774
     -3987.0474      -3106.7904
  -1167383.04846   -869960.50746  20754748.2894   20754751.8754
       898.9384        700.4714
   2284380.01946   1720431.92846  21744985.1254   21744990.1764
     -2606.0004      -2030.6494
      6239.43243     22877.81641  24655260.3364   24655265.6914
      -374.8124       -292.0624
  -1709270.08446  -1280165.41745  22216014.5634   22216020.1294
      1450.8914       1130.5644
   2626754.52446   1977895.55046  21565794.5084   21565798.0824
     -2941.9694      -2292.4434
   3044476.52845   2201832.83242  24202803.4774   24202808.7974
     -3060.1094      -2384.5014
  -1509488.99343  -1030713.50742  24137640.4534   24137645.0124
      2343.3594       1825.9944
 98  6 26 19 18 45.0000000  0  8G 5G 6G10G13G17G30G24G26
   3953422.91145   2918579.91644  23425748.0314   23425753.7384
     -3991.9534      -3110.6134
  -1180814.79046   -880426.79646  20752192.2734   20752195.9064
       891.7664        694.8824
   2323540.68946   1750946.73346  21752437.2274   21752442.1024
     -2615.6094      -2038.1374
     11939.91743     27319.66542  24656344.8284   24656345.7894
      -385.4534       -300.3534
  -1730988.97646  -1297089.21945  22211881.7114   22211887.1024
      1444.7664       1125.7914
   2670955.11546   2012337.55246  21574205.5234   21574209.0044
     -2951.6564      -2299.9924
   3090390.87844   2237610.25742  24211540.5164   24211545.8134
     -3061.8914      -2385.8894
  -1544616.40543  -1058085.44242  24130955.7114   24130958.9694
      2340.1254       1823.4744
 98  6 26 19 19  0.0000000  0  8G 5G 6G10G13G17G30G24G26
   4013344.84945   2965272.30344  23437150.6254   23437156.1334
     -3997.6094      -3115.0204
  -1194129.78046   -890802.10346  20749658.8674   20749662.4184
       883.5474        688.4784
   2362853.08446   1781579.76546  21759918.0314   21759923.3874
     -2626.1094      -2046.3194
     17808.37543     31892.54742  24657462.5084   24657465.5904
      -397.0164       -309.3634
  -1752609.43946  -1313936.30946  22207767.3134   22207772.5634
      1438.0004       1120.5194
   2715308.73746   2046898.79646  21582645.4144   21582648.9184
     -2962.1414      -2308.1624
   3136338.28045   2273413.41242  24220284.4614   24220290.9654
     -3064.4534      -2387.8864
  -1579687.73344  -1085413.69943  24124281.7814   24124286.9264
      2336.0314       1820.2844
 98  6 26 19 19 15.0000000  0  8G 5G 6G10G13G17G30G24G26
   4073341.99045   3012023.25144  23448567.7664   23448572.9104
     -4002.3444      -3118.7094
  -1207329.86146   -901087.87546  20747146.8054   20747150.4144
       876.0944        682.6704
   2402315.99346   1812330.08446  21767427.8284   21767432.8444
     -2635.9694      -2054.0024
     23841.49343     36593.64142  24658609.4144   24658613.9734
      -407.7504       -317.7274
  -1774136.90846  -1330710.95346  22203671.0554   22203676.1174
      1432.0164       1115.8564
   2759809.98746   2081575.08446  21591113.9924   21591117.7424
     -2971.6094      -2315.5404
   3182317.18145   2309241.13042  24229033.2424   24229039.8634
     -3066.3914      -2389.3954
  -1614704.21643  -1112699.25342  24117617.6804   24117622.6844
      2332.5164       1817.5454
 98  6 26 19 19 30.0000000  0  8G 5G 6G10G13G17G30G24G26
   4133411.84045   3058830.87643  23459998.0634   23460004.1804
     -4007.2034      -3122.4964
  -1220416.32546   -911285.11746  20744656.5704   20744660.1454
       868.6094        676.8384
   2441929.54946   1843197.79146  21774965.9384   21774971.2464
     -2645.9844      -2061.8064
     30036.98643     41421.30642  24659789.0554   24659796.9694
      -418.5164       -326.1164
  -1795574.08046  -1347415.22846  22199591.3444   22199596.4304
      1426.0474       1111.2054
   2804452.84746   2116361.71746  21599609.1174   21599612.7034
     -2981.0474      -2322.8944
   3228326.76245   2345092.68042  24237788.9844   24237792.8634
     -3068.4064      -2390.9664
  -1649666.91444  -1139942.80342  24110965.0944   24110971.5514
      2328.9534       1814.7694
 98  6 26 19 19 45.0000000  0  8G 5G 6G10G13G17G30G24G26
   4193555.75545   3105696.25144  23471443.5084   23471448.0434
     -4012.4374      -3126.5754
  -1233391.63246   -921395.73646  20742187.4064   20742191.0744
       860.9844        670.8974
   2481691.87846   1874181.41846  21782532.5554   21782537.7114
     -2656.1564      -2069.7324
     36394.27243     46375.08141  24660998.0704   24661003.4144
      -429.5944       -334.7484
  -1816921.52246  -1364049.57846  22195529.3134   22195534.6214
      1419.8284       1106.3604
   2849239.20946   2151260.16846  21608131.8364   21608135.2114
     -2990.9844      -2330.6374
   3274367.19144   2380968.36042  24246549.9694   24246555.7704
     -3070.7974      -2392.8294
  -1684573.93144  -1167143.04043  24104322.8914   24104329.7734
      2324.8754       1811.5914
 98  6 26 19 20  0.0000000  0  8G 5G 6G10G13G17G30G24G26
   4253775.23545   3152620.49744  23482903.2114   23482908.5204
     -4016.9064      -3130.0574
  -1246255.36546   -931419.41746  20739739.5084   20739743.2464
       854.0474        665.4914
   2521605.42946   1905282.88346  21790128.0314   21790133.0354
     -2665.7664      -2077.2204
     42914.71843     51455.92142  24662239.3284   24662243.7934
      -439.9064       -342.7844
  -1838178.23546  -1380613.22546  22191483.9614   22191489.2234
      1414.3134       1102.0624
   2894175.77646   2186275.66546  21616683.0554   21616686.9804
     -3000.6874      -2338.1984
   3320439.71044   2416869.00342  24255318.2114   24255323.7664
     -3072.3284      -2394.0224
  -1719420.73043  -1194296.36842  24097690.8914   24097696.8324
      2321.1884       1808.7184
 98  6 26 19 20 15.0000000  0  8G 5G 6G10G13G17G30G24G26
   4314059.98945   3199595.53744  23494375.1024   23494380.0704
     -4020.9374      -3133.1984
  -1259015.95446   -941362.72646  20737310.8914   20737314.6644
       847.4384        660.3414
   2561662.72946   1936496.36446  21797750.4064   21797755.3754
     -2675.1094      -2084.5014
     49588.35943     56656.15042  24663509.0704   24663516.7624
      -449.8284       -350.5154
  -1859353.34246  -1397113.29546  22187454.7894   22187460.1804
      1409.0634       1097.9714
   2939256.98546   2221403.86346  21625261.7034   21625265.1954
     -3010.0474      -2345.4914
   3366533.20444   2452785.98542  24264088.8754   24264095.8284
     -3073.3124      -2394.7894
  -1754212.96743  -1221407.19342  24091070.1334   24091075.3714
      2317.8754       1806.1364
 98  6 26 19 20 30.0000000  0  8G 5G 6G10G13G17G30G24G26
   4374408.68045   3246620.44243  23505858.9064   23505864.2034
     -4025.6254      -3136.8514
  -1271670.82546   -951223.66046  20734903.1884   20734906.8794
       839.7344        654.3384
   2601864.77446   1967822.62946  21805400.8364   21805405.6764
     -2685.2664      -2092.4154
     56416.88444     61977.03342  24664809.2344   24664812.3164
      -460.7344       -359.0144
  -1880443.03946  -1413546.80545  22183441.5944   22183446.4694
      1402.7194       1093.0284
   2984482.63246   2256644.61146  21633867.7894   21633871.2234
     -3020.1254      -2353.3444
   3412645.65943   2488717.73942  24272862.9454   24272870.0514
     -3075.1724      -2396.2384
  -1788952.85043  -1248477.12442  24084459.6804   24084465.8794
      2313.9384       1803.0684
 98  6 26 19 20 45.0000000  0  8G 5G 6G10G13G17G30G24G26
   4434821.45745   3293695.33743  23517354.7664   23517358.0944
     -4029.5474      -3139.9074
  -1284212.96646   -960996.74946  20732516.4844   20732520.1294
       832.3594        648.5924
   2642216.54846   1999265.56846  21813079.1804   21813084.1374
     -2695.1874      -2100.1464
     63403.60443     67421.26442  24666138.2584   24666142.3954
      -471.0624       -367.0624
  -1901439.37046  -1429907.56646  22179446.2114   22179451.0984
      1396.5944       1088.2554
   3029852.48546   2291997.73146  21642501.6484   21642505.3164
     -3029.3124      -2360.5034
   3458781.08744   2524667.44342  24281643.5474   24281648.5044
     -3076.3914      -2397.1874
  -1823637.56543  -1275504.13842  24077858.7584   24077863.8094
      2310.4694       1800.3654
 98  6 26 19 21  0.0000000  0  8G 5G 6G10G13G17G30G24G26
   4495291.51444   3340814.81043  23528861.5864   23528867.0824
     -4033.3284      -3142.8534
  -1296644.67746   -970683.78646  20730150.8134   20730154.6094
       825.0314        642.8814
   2682717.01746   2030824.36946  21820786.1334   21820791.1024
     -2705.0624      -2107.8414
     70546.71844     72987.30642  24667497.6414   24667504.9224
      -481.5784       -375.2564
  -1922342.97446  -1446196.07346  22175468.2194   22175473.1414
      1390.3754       1083.4094
   3075358.59046   2327457.01846  21651160.9844   21651164.7114
     -3038.3914      -2367.5774
   3504935.32943   2560631.76842  24290426.6414   24290430.1684
     -3077.7664      -2398.2594
  -1858270.22443  -1302490.54842  24071269.3444   24071275.5204
      2307.0164       1797.6754
 98  6 26 19 21 15.0000000  0  8G 5G 6G10G13G17G30G24G26
   4555816.12344   3387976.76343  23540379.3524   23540385.1524
     -4036.8124      -3145.5684
  -1308968.99646   -980287.14646  20727805.6414   20727809.4264
       817.9844        637.3904
   2723364.78046   2062497.94746  21828521.5234   21828526.8324
     -2714.8914      -2115.4994
     77845.60844     78674.74342  24668886.5084   24668890.2934
      -491.8444       -383.2554
  -1943156.27546  -1462414.20846  22171507.6174   22171513.1134
      1384.5164       1078.8434
   3120999.82046   2363021.59946  21659846.3444   21659849.6844
     -3047.2974      -2374.5174
   3551111.94043   2596613.48042  24299213.3204   24299218.4414
     -3079.3284      -2399.4764
  -1892850.84943  -1329436.45142  24064688.8674   24064693.2274
      2303.5004       1794.9354
 98  6 26 19 21 30.0000000  0  8G 5G 6G10G13G17G30G24G26
   4616395.62245   3435181.50143  23551908.1414   23551913.9064
     -4040.4224      -3148.3814
  -1321185.40346   -989806.41546  20725480.7344   20725484.5084
       810.8914        631.8634
   2764162.38246   2094288.28046  21836284.7504   21836289.9884
     -2724.7034      -2123.1454
     85301.49243     84484.51842  24670305.3284   24670308.9384
      -502.2664       -391.3764
  -1963879.49346  -1478562.15246  22167563.9614   22167569.1644
      1378.6094       1074.2414
   3166777.02346   2398692.12846  21668557.2034   21668560.6954
     -3056.3124      -2381.5424
   3597313.30743   2632614.52842  24308004.8674   24308009.6724
     -3080.7974      -2400.6214
  -1927376.73743  -1356339.66342  24058118.0234   24058122.7814
      2299.9844       1792.1964
 98  6 26 19 21 45.0000000  0  8G 5G 6G10G13G17G30G24G26
   4677033.02544   3482431.41443  23563446.3914   23563452.2734
     -4044.6564      -3151.6804
  -1333291.72346   -999239.90746  20723176.6884   20723180.3554
       803.1884        625.8604
   2805109.32946   2126194.99146  21844076.9694   21844081.8794
     -2734.9224      -2131.1084
     92918.24044     90419.65642  24671754.5474   24671755.8364
      -513.3594       -400.0204
  -1984508.71646  -1494636.84746  22163638.5864   22163644.1884
      1371.8444       1068.9694
   3212695.21646   2434472.51846  21677295.3754   21677298.6914
     -3066.2194      -2389.2614
   3643540.01343   2668635.34442  24316800.6174   24316808.0274
     -3082.9224      -2402.2774
  -1961845.89243  -1383198.70142  24051559.0164   24051565.4384
      2295.7974       1788.9334
 98  6 26 19 22  0.0000000  0  9G 5G 6G10G13G17G30G24G26G23
   4737724.39144   3529723.34743  23574995.5864   23575002.4304
     -4047.5784      -3153.9574
  -1345289.12946  -1008588.52646  20720893.8594   20720897.4924
       796.3754        620.5524
   2846200.23046   2158213.87146  21851895.9924   21851901.0784
     -2743.9694      -2138.1574
    100692.38043     96477.45442  24673233.9924   24673238.6094
      -523.2664       -407.7394
  -2005045.68146  -1510639.65346  22159730.4064   22159735.4924
      1366.3754       1064.7084
   3258752.97946   2470361.66646  21686060.0634   21686063.2974
     -3074.8594      -2395.9944
   3689790.69043   2704674.82242  24325602.5314   24325610.7274
     -3083.9374      -2403.0684
  -1996260.01343  -1410014.85542  24045010.9224   24045015.9024
      2292.7034       1786.5224
    -15044.89152                  24630106.4224
      3009.1564
 98  6 26 19 22 15.0000000  0  9G 5G 6G10G13G17G30G24G26G23
   4798468.05844   3577056.00943  23586555.1804   23586560.7814
     -4051.4844      -3157.0014
  -1357175.50946  -1017850.63246  20718632.1094   20718635.6374
       788.5634        614.4644
   2887436.68046   2190346.16746  21859743.0084   21859748.0234
     -2754.0784      -2146.0354
    108623.25943    102657.33042  24674743.5234   24674747.2274
      -534.1254       -416.2014
  -2025492.56846  -1526572.28246  22155839.4224   22155844.7774
      1359.9694       1059.7164
   3304946.22646   2506356.38946  21694850.2344   21694853.5984
     -3084.0164      -2403.1294
   3736065.51143   2740733.16143  24334408.7114   24334417.4224
     -3085.9064      -2404.6024
  -2030619.61842  -1436788.55042  24038471.6254   24038476.9694
      2288.6564       1783.3694
    -60150.57143                  24621523.6954
      3005.0474
 98  6 26 19 22 30.0000000  0  8G 5G 6G10G13G17G30G26G23
   4859266.10044   3624431.05443  23598124.2734   23598130.3204
     -4054.8444      -3159.6194
  -1368948.92946  -1027024.71346  20716391.6884   20716395.4844
       781.2974        608.8034
   2928818.86046   2222592.01646  21867618.0704   21867623.4494
     -2763.4694      -2153.3524
    116712.66444    108960.76542  24676282.8674   24676287.8714
      -544.3914       -424.2004
  -2045847.77646  -1542433.46046  22151965.9304   22151970.9104
      1354.1094       1055.1504
   3351267.83746   2542451.13946  21703665.0084   21703668.4184
     -3092.1094      -2409.4364
  -2064923.11442  -1463518.47841  24031943.9614   24031951.2544
      2285.2194       1780.6904
   -105198.27643                  24612951.3134
      3001.3134
 98  6 26 19 22 45.0000000  0  9G 5G 6G10G13G17G30G24G26G23
   4920118.20644   3671848.21943  23609703.9144   23609710.6414
     -4058.6254      -3162.5654
  -1380609.31946  -1036110.71946  20714172.7894   20714176.5634
       773.6414        602.8374
   2970345.06046   2254950.09446  21875519.9304   21875525.1804
     -2773.2194      -2160.9504
    124961.11444    115388.14142  24677852.1564   24677855.6604
      -555.2344       -432.6504
  -2066111.19746  -1558223.11746  22148109.8754   22148115.1724
      1347.8134       1050.2444
   3397714.23346   2578643.12346  21712503.4224   21712506.9734
     -3100.5784      -2416.0354
     43239.62643                  24352035.8134
     -3089.7504
  -2099169.92642  -1490204.24041  24025426.7344   24025434.2384
      2281.1724       1777.5374
   -150185.68244                  24604390.7034
      2997.1564
 98  6 26 19 23  0.0000000  0  9G 5G 6G10G13G17G30G24G26G23
   4981024.64645   3719307.73043  23621295.0864   23621300.3014
     -4062.1094      -3165.2804
  -1392160.44846  -1045111.59346  20711974.7274   20711978.4184
       766.6884        597.4194
   3012013.87446   2287419.29146  21883449.5084   21883454.6524
     -2782.3594      -2168.0724
    133368.96144    121939.74142  24679451.7734   24679456.2974
      -565.6414       -440.7594
  -2086284.64546  -1573942.66646  22144270.8674   22144276.5864
      1342.2034       1045.8734
   3444284.82546   2614931.88246  21721365.4614   21721368.9774
     -3108.7344      -2422.3904
     89599.24143                  24360858.3674
     -3091.4374
  -2133358.59242  -1516844.65942  24018920.3754   24018927.1484
      2277.4844       1774.6634
   -195113.99443                  24595841.3204
      2993.4224
 98  6 26 19 23 15.0000000  0  9G 5G 6G10G13G17G30G24G26G23
   5041986.37445   3766810.36943  23632895.0784   23632900.7624
     -4065.9694      -3168.2874
  -1403605.20346  -1054029.57546  20709796.7114   20709800.3554
       759.4534        591.7824
   3053818.74046   2319994.51446  21891404.5004   21891409.5864
     -2791.4374      -2175.1464
    141933.64844    128613.47942  24681081.9454   24681088.4964
      -576.1254       -448.9294
  -2106374.01646  -1589596.70346  22140448.1174   22140453.1334
      1336.5784       1041.4894
   3490981.67646   2651319.02246  21730251.7894   21730255.3874
     -3117.3284      -2429.0874
    135988.94043                  24369685.7424
     -3093.6254
  -2167490.75143  -1543441.11742  24012426.3524   24012431.1334
      2273.5944       1771.6314
   -239984.42843     -9317.16652  24587302.2344   24587308.9964
      2989.4064       2329.4074
 98  6 26 19 23 30.0000000  0  9G 5G 6G10G13G17G30G24G26G23
   5103013.13345   3814363.64743  23644508.2974   23644514.0044
     -4070.6254      -3171.9164
  -1414934.99646  -1062857.98146  20707640.6954   20707644.3524
       751.4844        585.5724
   3095765.25346   2352680.10746  21899386.8134   21899391.7344
     -2801.0474      -2182.6344
    150661.60544    135414.47542  24682742.8284   24682748.0314
      -587.3284       -457.6584
  -2126373.81346  -1605180.94446  22136642.2504   22136647.1954
      1330.3594       1036.6444
   3537812.96546   2687810.92246  21739163.3524   21739167.0554
     -3126.5314      -2436.2584
    182415.92843      2409.89352  24378520.4614   24378528.4924
     -3096.2504      -2412.6624
  -2201558.35843  -1569987.23742  24005943.5634   24005947.9574
      2269.1094       1768.1374
   -284786.04142    -44227.39041  24578775.9454   24578780.5634
      2984.4694       2325.5604
 98  6 26 19 23 45.0000000  0  9G 5G 6G10G13G17G30G24G26G23
   5164102.22345   3861965.45144  23656133.1414   23656138.4734
     -4074.2344      -3174.7284
  -1426152.73946  -1071599.07146  20705506.2034   20705509.8954
       744.5314        580.1544
   3137845.62846   2385469.99846  21907394.4304   21907399.3634
     -2809.3754      -2189.1234
    159551.23743    142341.46742  24684434.4844   24684439.8404
      -597.6094       -465.6704
  -2146286.51046  -1620697.31546  22132853.1254   22132858.2704
      1324.9224       1032.4074
   3584776.45446   2724405.83146  21748100.3524   21748104.0784
     -3134.9534      -2442.8214
    228872.67743     38609.94042  24387360.1804   24387367.8244
     -3097.7344      -2413.8194
  -2235568.21243  -1596488.39342  23999471.4224   23999476.9184
      2265.8134       1765.5684
   -329521.70342    -79086.24641  24570263.5314   24570270.0594
      2980.5944       2322.5414
 98  6 26 19 24  0.0000000  0  9G 5G 6G10G13G17G30G24G26G23
   5225246.98245   3909610.67243  23667768.8834   23667775.6334
     -4078.3124      -3177.9064
  -1437263.19746  -1080256.56146  20703391.9614   20703395.7584
       737.0004        574.2864
   3180054.55946   2418360.07046  21915426.5634   21915431.3914
     -2818.4064      -2196.1614
    168597.45844    149390.47242  24686156.5554   24686161.3484
      -608.4224       -474.0954
  -2166113.42046  -1636146.84046  22129080.1644   22129084.8984
      1318.8444       1027.6704
   3631869.24046   2761101.50646  21757061.9304   21757065.9024
     -3143.9224      -2449.8094
    275355.53543     74830.31342  24396206.2504   24396211.7934
     -3099.8914      -2415.4994
  -2269523.82743  -1622947.24642  23993009.3364   23993015.9104
      2261.7344       1762.3904
   -374196.37642   -113897.65041  24561761.4694   24561767.2814
      2976.0944       2319.0344
 98  6 26 19 24 15.0000000  0  9G 5G 6G10G13G17G30G24G26G23
   5286450.85144   3957301.96643  23679414.9144   23679419.6844
     -4082.1724      -3180.9134
  -1448263.60446  -1088828.29946  20701298.4844   20701302.3634
       729.8284        568.6974
   3222398.16446   2451355.08746  21923484.1174   21923489.3204
     -2827.3594      -2203.1374
    177804.11144    156564.51342  24687908.3594   24687914.4304
      -619.0784       -482.3994
  -2185852.40446  -1651527.85046  22125324.0164   22125329.1844
      1313.0634       1023.1664
   3679092.86046   2797899.10646  21766048.1954   21766052.1454
     -3152.5164      -2456.5064
    321867.32443    111073.26542  24405058.0554   24405066.5434
     -3101.6724      -2416.8874
  -2303420.05343  -1649359.83342  23986559.1024   23986562.6994
      2257.8134       1759.3344
   -418804.56342   -148657.10641  24553273.0394   24553280.3204
      2971.6724       2315.5884
 98  6 26 19 24 30.0000000  0  9G 5G 6G10G13G17G30G24G26G23
   5347710.45345   4005036.67643  23691072.7034   23691078.9024
     -4085.5944      -3183.5804
  -1459159.65246  -1097318.72246  20699225.1334   20699228.9064
       723.0784        563.4384
   3264872.83046   2484452.22546  21931567.1414   21931572.2274
     -2835.7814      -2209.7004
    187168.45144    163861.43042  24689690.4144   24689695.8054
      -629.3754       -490.4224
  -2205504.96246  -1666841.51446  22121583.8754   22121588.7274
      1307.3754       1018.7344
   3726442.45946   2834794.87646  21775058.5634   21775062.8284
     -3160.6564      -2462.8494
    368403.15543    147334.96942  24413912.4064   24413919.4064
     -3102.9844      -2417.9104
  -2337259.57943  -1675728.24242  23980119.2974   23980126.5434
      2254.2344       1756.5464
   -463349.75541   -183367.80141  24544796.6564   24544803.7384
      2967.8284       2312.5934
 98  6 26 19 24 45.0000000  0  9G 5G 6G10G13G17G30G24G26G23
   5409021.47045   4052811.44843  23702739.9534   23702745.7894
     -4089.0784      -3186.2954
  -1469951.96446  -1105728.30546  20697171.2734   20697174.8714
       716.0004        557.9224
   3307474.83946   2517648.59346  21939673.9304   21939678.8984
     -2844.3754      -2216.3964
    196688.50344    171279.61642  24691502.3524   24691505.9844
      -639.8444       -498.5804
  -2225070.00146  -1682086.98746  22117861.0944   22117865.9224
      1301.3914       1014.0714
   3773917.44346   2871788.35246  21784092.9534   21784096.8914
     -3169.2974      -2469.5824
    414961.58943    183614.24242  24422771.2114   24422776.0864
     -3104.6874      -2419.2374
  -2371043.91643  -1702053.61842  23973690.3834   23973699.5274
      2250.5164       1753.6494
   -507834.37841   -218030.94841  24536331.4064   24536331.9344
      2963.5784       2309.2824
 98  6 26 19 25  0.0000000  0  9G 5G 6G10G13G17G30G24G26G23
   5470391.04044   4100631.85143  23714418.5234   23714424.4304
     -4094.6564      -3190.6414
  -1480632.87946  -1114051.08746  20695138.9064   20695142.8554
       707.0164        550.9214
   3350212.11646   2550950.36346  21947806.4844   21947811.4884
     -2855.0624      -2224.7244
    206372.56244    178825.68342  24693344.9694   24693349.5044
      -652.5004       -508.4424
  -2244538.97646  -1697257.60046  22114156.2664   22114161.2814
      1293.3914       1007.8374
   3821530.67146   2908889.55346  21793153.3054   21793157.0314
     -3180.2504      -2478.1174
    461551.74643    219918.21542  24431637.9454   24431642.9264
     -3108.4534      -2422.1714
  -2404767.43343  -1728331.69342  23967273.5084   23967280.1524
      2244.8444       1749.2294
   -552250.85542   -252641.13241  24527879.5234   24527885.3244
      2957.4534       2304.5094
 98  6 26 19 25 15.0000000  0  9G 5G 6G10G13G17G30G24G26G23
   5531820.76244   4148499.10343  23726107.8284   23726112.4804
     -4096.9694      -3192.4434
  -1491201.39046  -1122286.28846  20693127.6334   20693131.4414
       701.0634        546.2824
   3393085.87646   2584358.48046  21955965.0554   21955970.1174
     -2862.3914      -2230.4344
    216221.63144    186500.26942  24695219.0394   24695222.1564
      -661.7664       -515.6624
  -2263913.19946  -1712354.38446  22110469.4224   22110474.7774
      1288.8134       1004.2694
   3869283.29446   2946099.36946  21802240.1644   21802243.6804
     -3187.7504      -2483.9614
    508174.01643    256247.24742  24440509.7194   24440517.9264
     -3108.8754      -2422.5004
  -2438429.13643  -1754561.52542  23960868.0004   23960871.9384
      2242.3284       1747.2694
   -596597.23643   -287196.64942  24519441.1024   24519447.0904
      2954.3134       2302.0624
 98  6 26 19 25 30.0000000  0  9G 5G 6G10G13G17G30G24G26G23
   5593301.20644   4196405.90343  23737807.4614   23737813.0514
     -4100.3754      -3195.0974
  -1501661.23946  -1130436.81246  20691137.2034   20691141.2114
       693.6564        540.5114
   3436088.19446   2617866.77246  21964148.1484   21964153.5744
     -2871.2664      -2237.3504
    226228.70644    194298.01442  24697123.0474   24697129.4574
      -672.5004       -524.0264
  -2283199.06846  -1727382.31646  22106799.3984   22106804.4614
      1282.6564        999.4724
   3917165.02146   2983409.78746  21811351.5314   21811355.1414
     -3196.4224      -2490.7184
    554819.26243    292594.20342  24449386.5234   24449394.2034
     -3110.3914      -2423.6814
  -2472033.02944  -1780746.36342  23954473.3834   23954479.0904
      2238.2814       1744.1154
   -640875.72643   -321699.34142  24511015.0084   24511018.9924
      2949.5164       2298.3244
 98  6 26 19 25 45.0000000  0  9G 5G 6G10G13G17G30G24G26G23
   5654832.23844   4244352.12043  23749516.3914   23749521.7344
     -4103.1254      -3197.2404
  -1512010.93046  -1138501.49846  20689167.7814   20689171.8594
       686.9064        535.2524
   3479225.01646   2651479.87946  21972356.8524   21972362.0314
     -2879.7194      -2243.9374
    236397.12844    202221.45542  24699057.6804   24699063.3874
      -682.6724       -531.9524
  -2302392.18546  -1742337.97646  22103147.2504   22103152.0204
      1277.0004        995.0654
   3965177.72346   3020822.26146  21820488.3594   21820491.9924
     -3204.7034      -2497.1714
    601486.60844    328958.32042  24458267.0864   24458273.1094
     -3111.3754      -2424.4484
  -2505576.60043  -1806884.20442  23948090.3134   23948098.2734
      2234.7664       1741.3764
   -685083.33843   -356146.74841  24502602.4384   24502608.7424
      2945.5004       2295.1954
 98  6 26 19 26  0.0000000  0  9G 5G 6G10G13G17G30G24G26G23
   5716404.67844   4292330.56343  23761233.3284   23761239.1994
     -4106.2814      -3199.7004
  -1522257.62946  -1146485.92946  20687218.0554   20687221.9344
       679.5784        529.5414
   3522491.41546   2685193.95446  21980590.2114   21980595.3444
     -2888.9064      -2251.0964
    246718.15844    210263.80642  24701021.7194   24701026.4184
      -693.2034       -540.1584
  -2321498.49646  -1757225.98946  22099511.4224   22099516.6254
      1270.8134        990.2444
   4013314.70846   3058331.58646  21829648.6174   21829652.4614
     -3213.2194      -2503.8074
    648171.98344    365336.50042  24467150.9774   24467155.0784
     -3113.1254      -2425.8124
  -2539063.99043  -1832978.21442  23941717.6254   23941723.1094
      2230.4384       1738.0034
   -729230.52243   -390547.18641  24494201.4144   24494208.6024
      2941.0784       2291.7494
 98  6 26 19 26 15.0000000  0  9G 5G 6G10G13G17G30G24G26G23
   5778019.81644   4340342.30043  23772957.7114   23772964.3674
     -4109.2664      -3202.0254
  -1532399.88746  -1154388.98046  20685288.0864   20685291.9304
       672.6094        524.1114
   3565890.72846   2719011.59146  21988848.9384   21988853.9774
     -2897.7814      -2258.0114
    257191.59044    218424.97842  24703015.3754   24703020.3794
      -703.4064       -548.1094
  -2340520.40746  -1772048.24046  22095891.1564   22095896.0664
      1265.3594        985.9944
   4061570.58546   3095933.54046  21838830.9304   21838834.3524
     -3221.0314      -2509.8944
    694878.35544    401731.08543  24476039.2504   24476044.8404
     -3114.5474      -2426.9204
  -2572491.83143  -1859025.77742  23935355.8834   23935362.5274
      2226.5314       1734.9594
   -773317.09543   -424900.23442  24485811.6954   24485816.3364
      2937.0164       2288.5844
 98  6 26 19 26 30.0000000  0  9G 5G 6G10G13G17G30G24G26G23
   5839680.50744   4388389.59742  23784691.9384   23784698.7814
     -4112.4064      -3204.4724
  -1542438.26946  -1162211.08946  20683377.6024   20683381.1994
       665.5634        518.6204
   3609421.88846   2752931.97246  21997132.6094   21997137.8134
     -2906.6094      -2264.8904
    267817.01044    226704.48342  24705037.5394   24705042.2384
      -713.5474       -556.0114
  -2359461.22746  -1786807.29646  22092287.3594   22092292.0234
      1259.8284        981.6844
   4109943.14846   3133626.42746  21848036.4304   21848040.3444
     -3228.9064      -2516.0314
    741605.63544    438141.90342  24484931.0004   24484937.7154
     -3116.0624      -2428.1014
  -2605862.10043  -1885028.58342  23929005.8984   23929011.2894
      2222.5944       1731.8914
   -817344.94744   -459207.56842  24477434.2274   24477440.5664
      2933.1414       2285.5644
 98  6 26 19 26 45.0000000  0  9G 5G 6G10G13G17G30G24G26G23
   5901389.36844   4436474.34843  23796434.9064   23796440.5904
     -4115.5164      -3206.8954
  -1552368.33146  -1169948.79146  20681488.0634   20681491.8834
       658.3914        513.0324
   3653086.65646   2786956.46846  22005441.7814   22005447.0784
     -2915.4694      -2271.7944
    278596.52944    235104.10142  24707088.5944   24707094.3594
      -723.7814       -563.9854
  -2378317.62046  -1801500.58846  22088698.7584   22088703.3874
      1254.2974        977.3744
   4158436.11946   3171413.14346  21857264.0164   21857267.7194
     -3236.9534      -2522.3014
    788357.09144    474571.57242  24493827.4064   24493832.7034
     -3117.5784      -2429.2824
  -2639171.73344  -1910984.11742  23922667.4304   23922673.4884
      2218.6254       1728.7994
   -861314.41043   -493469.42942  24469066.2894   24469073.5354
      2929.3914       2282.6424
 98  6 26 19 27  0.0000000  0  9G 5G 6G10G13G17G30G24G26G23
   5963148.01044   4484597.91543  23808187.1564   23808193.3674
     -4118.7814      -3209.4404
  -1562190.55546  -1177602.46346  20679619.0634   20679622.8014
       651.5004        507.6624
   3696886.38846   2821086.12346  22013776.3054   22013781.4144
     -2924.3284      -2278.6974
    289530.55144    243624.13442  24709169.3134   24709175.1374
      -733.8914       -571.8634
  -2397090.37146  -1816128.67846  22085126.6254   22085130.9734
      1249.0164        973.2594
   4207052.76746   3209296.22146  21866515.6644   21866519.5904
     -3245.0474      -2528.6084
    835133.30944    511020.58942  24502728.8914   24502736.1134
     -3118.9844      -2430.3774
  -2672420.84744  -1936892.45242  23916340.6174   23916347.4884
      2214.7974       1725.8164
   -905225.97643   -527686.16542  24460709.7504   24460717.8524
      2925.7504       2279.8054
 98  6 26 19 27 15.0000000  0  9G 5G 6G10G13G17G30G24G26G23
   6024958.94644   4532762.16042  23819949.4224   23819954.9304
     -4122.4224      -3212.2774
  -1571907.18846  -1185173.85946  20677770.0634   20677773.5204
       644.1564        501.9404
   3740823.32146   2855322.69246  22022137.4924   22022142.5314
     -2933.7664      -2286.0514
    300619.53844    252264.90842  24711279.2424   24711283.3444
      -744.3914       -580.0454
  -2415782.81146  -1830694.19546  22081569.5554   22081574.0084
      1243.4844        968.9494
   4255792.62846   3247275.31446  21875790.8054   21875794.6024
     -3253.3914      -2535.1104
    881931.38144    547486.59242  24511634.0784   24511641.6764
     -3120.5474      -2431.5954
  -2705607.53744  -1962752.17242  23910025.3444   23910032.4494
      2210.2504       1722.2734
   -949082.57943   -561860.02342  24452363.7034   24452368.9774
      2921.9534       2276.8474
 98  6 26 19 27 30.0000000  0  9G 5G 6G10G13G17G30G24G26G23
   6086824.51344   4580969.09542  23831721.8524   23831727.3364
     -4126.4064      -3215.3814
  -1581510.63746  -1192657.06146  20675942.4384   20675946.1294
       636.1564        495.7064
   3784902.61546   2889670.18746  22030525.4844   22030530.4304
     -2943.6564      -2293.7584
    311866.12444    261028.45442  24713419.4614   24713424.4304
      -755.3754       -588.6044
  -2434389.84946  -1845193.16646  22078028.8524   22078033.6454
      1237.2504        964.0914
   4304658.74746   3285352.79146  21885089.5944   21885093.2734
     -3262.3124      -2542.0624
    928752.90844    583970.90342  24520543.6804   24520547.9804
     -3122.5004      -2433.1174
  -2738724.10244  -1988557.25142  23903723.6724   23903729.0164
      2205.1254       1718.2794
   -992880.60143   -595988.30042  24444030.1414   24444035.8364
      2917.6564       2273.4984
 98  6 26 19 27 45.0000000  0  9G 5G 6G10G13G17G30G24G26G23
   6148744.34744   4629218.26942  23843504.5004   23843508.8954
     -4129.8444      -3218.0604
  -1591000.15946  -1200051.49346  20674136.6094   20674140.1254
       628.8594        490.0204
   3829127.19346   2924130.89346  22038940.9694   22038945.8324
     -2953.2344      -2301.2224
    323273.57644    269917.39242  24715590.2424   24715595.1644
      -765.8444       -596.7614
  -2452907.10646  -1859622.18746  22074505.0394   22074509.9384
      1231.5164        959.6234
   4353656.18746   3323532.59046  21894413.2114   21894416.9494
     -3270.9844      -2548.8194
    975600.65844    620475.61542  24529459.0394   24529464.2194
     -3124.1414      -2434.3954
  -2771769.62344  -2014306.95142  23897435.3134   23897442.7114
      2200.7034       1714.8344
  -1036621.76044   -630072.28043  24435706.7974   24435714.1954
      2914.2814       2270.8694
 98  6 26 19 28  0.0000000  0  9G 5G 6G10G13G17G30G24G26G23
   6210716.34944   4677508.10743  23855298.5314   23855304.3444
     -4133.1724      -3220.6534
  -1600380.16246  -1207360.57946  20672351.9454   20672355.5314
       621.7034        484.4444
   3873494.24546   2958702.61946  22047383.8444   22047388.6374
     -2962.4224      -2308.3814
    334837.35544    278928.14542  24717790.7274   24717796.6214
      -776.0944       -604.7484
  -2471340.59446  -1873985.92546  22070997.1024   22071001.8954
      1226.1414        955.4344
   4402785.39246   3361815.06946  21903762.3984   21903765.7034
     -3279.6254      -2555.5524
   1022474.41244    657000.57542  24538378.1724   24538385.3134
     -3125.7814      -2435.6744
  -2804747.69343  -2040004.08742  23891159.1484   23891164.4804
      2196.2344       1711.3514
  -1080314.24944   -664118.31943  24427392.3914   24427397.9574
      2911.2814       2268.5314
 98  6 26 19 28 15.0000000  0  9G 5G 6G10G13G17G30G24G26G23
   6272740.20144   4725838.28643  23867100.7974   23867107.8094
     -4136.8914      -3223.5514
  -1609650.49946  -1214584.21146  20670587.9144   20670591.5704
       614.1254        478.5394
   3918000.44346   2993382.77146  22055853.0944   22055858.0514
     -2971.9534      -2315.8084
    346557.23844    288060.51742  24720021.0084   24720027.9144
      -786.7344       -613.0404
  -2489691.45146  -1888285.28646  22067504.9534   22067509.8404
      1220.4534        951.0024
   4452043.54846   3400198.02846  21913136.0554   21913139.9104
     -3288.4064      -2562.3944
   1069373.97943    693545.72042  24547302.8834   24547310.7624
     -3127.6724      -2437.1474
  -2837655.91343  -2065646.82642  23884896.6334   23884902.0124
      2191.3284       1707.5284
  -1123957.90243   -698126.28143  24419087.0004   24419092.9534
      2907.6564       2265.7064
 98  6 26 19 28 30.0000000  0  9G 5G 6G10G13G17G30G24G26G23
   6334820.28244   4774212.31343  23878914.2814   23878918.6174
     -4140.5624      -3226.4124
  -1618807.79446  -1221719.75846  20668845.1804   20668848.9774
       606.7504        472.7924
   3962648.90546   3028173.76946  22064349.7034   22064354.4024
     -2981.2814      -2323.0764
    358436.71644    297317.24242  24722281.5314   24722284.7544
      -797.2664       -621.2464
  -2507957.02946  -1902518.18346  22064029.3524   22064034.2384
      1214.7504        946.5584
   4501435.81146   3438685.49046  21922535.0634   21922538.4734
     -3297.4064      -2569.4074
   1116300.94644    730112.15442  24556233.4774   24556240.4884
     -3129.3594      -2438.4624
  -2870490.87543  -2091232.43842  23878648.1254   23878654.1954
      2186.5474       1703.8034
  -1167547.01743   -732091.72642  24410791.8594   24410797.0164
      2904.0944       2262.9304
 98  6 26 19 28 45.0000000  0  9G 5G 6G10G13G17G30G24G26G23
   6396952.86644   4822627.28542  23890737.2974   23890743.3204
     -4144.0164      -3229.1034
  -1627854.31646  -1228768.99746  20667123.5864   20667127.2664
       599.1564        466.8754
   4007436.65046   3063073.31246  22072872.4224   22072877.1914
     -2990.6724      -2330.3944
    370473.28544    306696.41642  24724571.8984   24724573.9384
      -807.9064       -629.5374
  -2526134.51146  -1916682.44146  22060570.2894   22060575.8444
      1208.6414        941.7984
   4550964.00446   3477278.86046  21931960.0704   21931963.9144
     -3306.6724      -2576.6274
   1163251.97744    766697.38141  24565168.2194   24565172.8834
     -3131.0164      -2439.7524
  -2903253.26043  -2116761.50942  23872413.9224   23872419.0784
      2181.5004       1699.8704
  -1211083.38143   -766016.06942  24402507.1334   24402513.2854
      2900.4064       2260.0574
 98  6 26 19 29  0.0000000  0  9G 5G 6G10G13G17G30G24G26G23
   6459138.94744   4871083.93442  23902571.6024   23902578.2584
     -4147.6094      -3231.9034
  -1636784.73646  -1235727.75746  20665424.3524   20665427.8554
       591.5004        460.9094
   4052365.97346   3098083.17046  22081422.2274   22081427.3594
     -3000.0164      -2337.6754
    382672.40844    316202.21942  24726893.8754   24726897.8954
      -818.7664       -637.9994
  -2544218.90446  -1930774.15346  22057128.7424   22057134.0514
      1202.5004        937.0134
   4600633.93546   3515982.68546  21941411.7274   21941415.2544
     -3316.0944      -2583.9694
   1210229.00843    803302.87041  24574107.2034   24574115.5634
     -3132.7344      -2441.0924
  -2935939.61943  -2142231.36742  23866193.2734   23866198.1604
      2176.5944       1696.0474
  -1254560.54043   -799894.36242  24394233.9064   24394240.0824
      2896.3754       2256.9164
 98  6 26 19 29 15.0000000  0  9G 5G 6G10G13G17G30G24G26G23
   6521381.78644   4919584.81943  23914415.9384   23914422.4184
     -4151.5474      -3234.9724
  -1645598.12346  -1242595.32846  20663747.3054   20663750.7854
       583.4384        454.6274
   4097437.31446   3133203.68646  22089998.8444   22090003.6604
     -3009.6564      -2345.1874
    395036.61844    325836.63142  24729246.2584   24729251.9654
      -829.9534       -646.7174
  -2562209.83246  -1944793.05046  22053705.2274   22053710.6764
      1196.1414        932.0584
   4650446.08246   3554797.32046  21950890.6724   21950894.2234
     -3325.6414      -2591.4084
   1257234.09043    839930.18141  24583051.8984   24583057.3834
     -3134.7814      -2442.6874
  -2968549.27143  -2167641.41342  23859988.5164   23859994.2464
      2171.2344       1691.8714
  -1297972.93742   -833722.15842  24385972.2194   24385978.3714
      2891.8134       2253.3604
 98  6 26 19 29 30.0000000  0  9G 5G 6G10G13G17G30G24G26G23
   6583680.17243   4968128.95642  23926270.9844   23926277.3014
     -4155.0784      -3237.7234
  -1654290.55846  -1249368.64546  20662093.2814   20662096.9734
       575.3914        448.3564
   4142650.38746   3168434.65346  22098602.5084   22098607.7234
     -3018.8444      -2352.3464
    407566.92244    335600.52342  24731630.6884   24731635.7854
      -840.9534       -655.2884
  -2580105.67246  -1958737.84246  22050299.8674   22050305.2704
      1189.7664        927.0904
   4700398.99246   3593721.65046  21960396.7814   21960400.6374
     -3334.9064      -2598.6284
   1304268.38443    876580.26042  24592001.7504   24592005.7344
     -3136.6414      -2444.1364
  -3001078.62243  -2192988.89142  23853798.2734   23853804.5084
      2165.8754       1687.6954
  -1341317.63542   -867497.13042  24377723.6024   24377729.0864
      2887.2814       2249.8304
 98  6 26 19 29 45.0000000  0  9G 5G 6G10G13G17G30G24G26G23
   6646032.57844   5016715.15643  23938136.2504   23938142.1564
     -4158.5314      -3240.4144
  -1662862.82046  -1256048.33146  20660461.8364   20660465.3284
       567.6254        442.3054
   4187999.52746   3203771.64446  22107232.7034   22107237.7194
     -3027.6564      -2359.2134
    420264.22044    345494.54942  24734047.1884   24734052.1334
      -852.0004       -663.8964
  -2597905.01546  -1972607.44946  22046912.7894   22046917.8634
      1183.5164        922.2204
   4750492.04846   3632755.18046  21969929.2814   21969932.7274
     -3344.0944      -2605.7874
   1351332.75943    913253.78641  24600957.0314   24600963.6414
     -3138.6094      -2445.6704
  -3033527.55343  -2218273.78142  23847623.7504   23847628.5434
      2160.6884       1683.6534
  -1384592.17943   -901217.45842  24369489.0084   24369497.1454
      2882.7344       2246.2874
 98  6 26 19 30  0.0000000  0  9G 5G 6G10G13G17G30G24G26G23
   6708436.76844   5065341.74943  23950011.3754   23950017.2114
     -4162.4374      -3243.4584
  -1671318.90846  -1262637.48146  20658852.7274   20658856.2664
       559.4224        435.9134
   4233478.68546   3239209.94346  22115886.6094   22115891.7194
     -3036.6254      -2366.2014
    433125.42444    355516.24642  24736494.0234   24736499.9184
      -863.2344       -672.6504
  -2615612.82646  -1986405.73146  22043543.1024   22043548.1294
      1177.1564        917.2654
   4800719.96346   3671893.79346  21979487.5314   21979491.3054
     -3353.3444      -2612.9954
   1398425.46543    949949.36541  24609920.1414   24609924.6524
     -3140.8124      -2447.3864
  -3065899.30543  -2243498.44242  23841463.1174   23841467.8984
      2155.1724       1679.3554
  -1427799.10843   -934885.12342  24361266.8834   24361274.3404
      2877.6884       2242.3544
 98  6 26 19 30 15.0000000  0  9G 5G 6G10G13G17G30G24G26G23
   6770894.96143   5114010.42242  23961897.3284   23961902.7774
     -4165.5624      -3245.8934
  -1679656.24946  -1269134.10946  20657266.1954   20657269.9574
       551.9224        430.0694
   4279086.19546   3274748.24946  22124565.6884   22124570.7734
     -3044.6254      -2372.4354
    446151.17444    365666.19642  24738973.2424   24738980.3954
      -873.7664       -680.8564
  -2633230.05746  -2000133.43446  22040190.6644   22040195.5164
      1171.5164        912.8694
   4851078.63146   3711134.30346  21989070.1254   21989073.7114
     -3361.3284      -2619.2174
   1445545.63442    986666.30741  24618886.5084   24618889.5314
     -3142.1094      -2448.3974
  -3098193.39744  -2268662.62542  23835318.2274   23835325.4144
      2150.5164       1675.7264
  -1470932.39142   -968495.52042  24353058.7034   24353063.1804
      2873.0944       2238.7744
 98  6 26 19 30 30.0000000  0  9G 5G 6G10G13G17G30G24G26G23
   6833407.69443   5162721.60442  23973792.2504   23973797.1844
     -4169.8914      -3249.2654
  -1687871.22946  -1275535.38646  20655702.9694   20655706.4614
       543.0164        423.1294
   4324822.30646   3310386.77546  22133269.0784   22133274.1764
     -3053.8914      -2379.6554
    459343.16844    375945.68842  24741483.4224   24741484.7234
      -885.5624       -690.0494
  -2650754.49246  -2013788.82146  22036855.7424   22036860.7344
      1164.7034        907.5614
   4901563.72246   3750473.30046  21998677.5004   21998681.3674
     -3370.4064      -2626.2914
   1492693.07642   1023404.70341  24627858.9694   24627862.2624
     -3144.6254      -2450.3574
  -3130411.69644  -2293767.78543  23829187.2894   23829193.6764
      2144.9224       1671.3684
  -1513986.91742  -1002044.36442  24344866.1024   24344873.6414
      2867.1724       2234.1604
 98  6 26 19 30 45.0000000  0  9G 5G 6G10G13G17G30G24G26G23
   6895980.96744   5211479.91143  23985699.5234   23985705.4774
     -4173.6874      -3252.2244
  -1695955.92146  -1281835.13646  20654164.3834   20654167.8404
       534.4384        416.4454
   4370692.43746   3346129.73746  22141997.6024   22142002.8754
     -3062.6414      -2386.4734
    472709.79544    386361.23142  24744026.6564   24744031.1214
      -897.1564       -699.0834
  -2668179.86746  -2027367.02046  22033539.8134   22033544.6644
      1158.1724        902.4724
   4952181.26146   3789915.53246  22008309.5084   22008312.9064
     -3379.0944      -2633.0604
   1539873.95542   1060168.97641  24636836.0474   24636841.2384
     -3146.6254      -2451.9164
  -3162551.13244  -2318811.45843  23823071.3984   23823076.4844
      2139.9064       1667.4594
  -1556957.31043  -1035527.74742  24336689.1644   24336694.5434
      2861.6884       2229.8864
 98  6 26 19 31  0.0000000  0  9G 5G 6G10G13G17G30G24G26G23
   6958613.16744   5260284.18643  23997619.0474   23997625.0474
     -4177.2814      -3255.0244
  -1703907.47146  -1288031.14646  20652651.5394   20652654.7974
       525.7664        409.6884
   4416697.17946   3381977.57646  22150752.3914   22150757.0084
     -3071.2974      -2393.2184
    486253.95444    396915.14141  24746604.6804   24746607.5864
      -908.7344       -708.1054
  -2685505.61646  -2040867.59346  22030242.8524   22030247.7734
      1152.0004        897.6624
   5002931.34546   3829461.02046  22017966.8594   22017970.4694
     -3387.5784      -2639.6714
   1587087.42142   1096958.70141  24645820.5864   24645823.0944
     -3148.5314      -2453.4014
  -3194611.73644  -2343793.72243  23816970.3444   23816974.3754
      2134.8754       1663.5394
  -1599840.90343  -1068943.46343  24328529.1564   24328535.1914
      2856.0944       2225.5284
 98  6 26 19 31 15.0000000  0  9G 5G 6G10G13G17G30G24G26G23
   7021303.50844   5309133.74843  24009548.0164   24009553.1134
     -4181.1094      -3258.0074
  -1711725.07446  -1294122.78546  20651163.9844   20651167.3834
       516.9534        402.8214
   4462836.14946   3417930.02046  22159532.1174   22159537.1094
     -3080.2664      -2400.2074
    499974.78944    407606.73442  24749215.5314   24749218.3444
      -920.3594       -717.1634
  -2702736.32946  -2054294.10746  22026963.9924   22026969.2424
      1145.7504        892.7924
   5053809.95846   3869106.67046  22027648.9384   22027652.8054
     -3395.8284      -2646.1004
   1634335.16842   1133775.08441  24654811.6564   24654816.3794
     -3150.8444      -2455.2034
  -3226592.95343  -2368714.12142  23810884.4774   23810887.9104
      2129.5164       1659.3634
  -1642636.50943  -1102290.63143  24320384.7584   24320390.2424
      2850.3284       2221.0354
 98  6 26 19 31 30.0000000  0  8G 5G 6G10G13G17G30G26G23
   7084052.13543   5358028.72642  24021489.1804   24021494.5004
     -4185.2034      -3261.1974
  -1719407.53846  -1300109.11146  20649701.8444   20649705.1724
       507.4534        395.4184
   4509111.77346   3453988.94346  22168338.2344   22168342.7704
     -3089.6724      -2407.5374
    513870.60744    418434.65042  24751859.7194   24751865.8594
      -932.2664       -726.4414
  -2719871.57246  -2067646.22946  22023703.1804   22023708.4774
      1139.0164        887.5454
   5104811.94946   3908848.46046  22037354.0004   22037357.6914
     -3404.3284      -2652.7234
  -3258489.57643  -2393568.61042  23804814.2424   23804818.5664
      2123.4694       1654.6514
  -1685345.99343  -1135570.64742  24312256.5004   24312265.1764
      2844.4064       2216.4204
 98  6 26 19 31 45.0000000  0  8G 5G 6G10G13G17G30G26G23
   7146857.42944   5406967.83443  24033440.9224   24033446.2424
     -4188.8594      -3264.0464
  -1726950.52646  -1305986.75746  20648266.4224   20648269.7974
       498.2974        388.2834
   4555523.69946   3490154.07346  22177169.8524   22177174.6914
     -3098.5784      -2414.4764
    527941.70544    429399.16642  24754537.0864   24754541.3404
      -943.8124       -735.4384
  -2736908.96746  -2080922.10246  22020461.0704   22020466.1564
      1132.6564        882.5894
   5155937.58246   3948686.58346  22047082.8134   22047086.8204
     -3412.4064      -2659.0184
  -3290299.85843  -2418355.69242  23798761.4774   23798766.9144
      2117.9844       1650.3774
  -1727971.05143  -1168784.95342  24304145.7664   24304152.3054
      2838.9384       2212.1594
 98  6 26 19 32  0.0000000  0  8G 5G 6G10G13G17G30G26G23
   7209724.16744   5455954.86843  24045404.1414   24045409.5204
     -4193.1254      -3267.3704
  -1734349.51046  -1311752.19446  20646858.1644   20646861.6094
       488.4694        380.6254
   4602076.69046   3526429.12446  22186028.8054   22186033.5164
     -3108.2814      -2422.0374
    542191.21344    440502.67642  24757249.1724   24757254.0004
      -955.8124       -744.7894
  -2753844.99446  -2094118.98946  22017238.3444   22017243.5354
      1125.7344        877.1964
   5207190.62946   3988624.01146  22056836.0944   22056839.7734
     -3421.0314      -2665.7394
  -3322022.99443  -2443075.05042  23792724.5234   23792731.7934
      2112.0944       1645.7874
  -1770507.15943  -1201929.90442  24296051.2734   24296057.2274
      2832.7974       2207.3744
 98  6 26 19 32 15.0000000  0  8G 5G 6G10G13G17G30G26G23
   7272657.37443   5504993.67043  24057379.3204   24057385.0044
     -4197.3124      -3270.6334
  -1741598.16346  -1317400.49546  20645478.9534   20645482.2814
       478.7034        373.0154
   4648779.29046   3562820.75946  22194916.0394   22194921.4184
     -3118.1414      -2429.7204
    556620.92544    451746.58642  24759994.9224   24759997.4064
      -967.5474       -753.9334
  -2770674.97646  -2107233.24446  22014035.3054   22014040.7424
      1118.9064        871.8754
   5258574.83646   4028663.62446  22066614.6024   22066618.5044
     -3429.5944      -2672.4114
  -3353657.20344  -2467724.98942  23786705.0314   23786711.6414
      2106.4694       1641.4044
  -1812947.76444  -1235000.47342  24287975.8054   24287982.1334
      2826.5784       2202.5284
 98  6 26 19 32 30.0000000  0  8G 5G 6G10G13G17G30G26G23
   7335655.78443   5554083.26043  24069367.1254   24069374.7234
     -4201.8594      -3274.1764
  -1748697.06146  -1322932.09946  20644128.1954   20644131.5234
       468.4534        365.0284
   4695634.67146   3599331.44146  22203832.3754   22203837.1334
     -3128.6414      -2437.9024
    571230.63144    463130.76242  24762775.6024   24762777.0904
      -979.7814       -763.4664
  -2787397.47346  -2120263.74846  22010853.3594   22010858.7274
      1111.3284        865.9704
   5310093.44746   4068807.99346  22076417.9454   22076421.5084
     -3439.0004      -2679.7404
  -3385202.15944  -2492305.49043  23780701.8834   23780707.6254
      2100.1414       1636.4734
  -1855292.92644  -1267996.64442  24279917.8364   24279922.9344
      2820.0944       2197.4764
 98  6 26 19 32 45.0000000  0  8G 5G 6G10G13G17G30G26G23
   7398715.06143   5603220.27842  24081367.5554   24081373.5554
     -4205.5944      -3277.0864
  -1755650.80046  -1328350.58446  20642805.1094   20642808.7194
       459.2344        357.8454
   4742640.59546   3635959.42546  22212777.1644   22212782.2854
     -3138.3284      -2445.4504
    586016.37344    474652.11042  24765588.5394   24765592.6884
      -991.1724       -772.3424
  -2804012.86346  -2133210.78346  22007691.3674   22007696.7704
      1104.4844        860.6374
   5361747.44146   4109057.82946  22086247.2894   22086250.7814
     -3447.7344      -2686.5464
  -3416658.59944  -2516816.93342  23774715.5164   23774722.0904
      2094.5474       1632.1144
  -1897550.25044  -1300924.41042  24271876.6094   24271883.2074
      2814.6884       2193.2634
 98  6 26 19 33  0.0000000  0  8G 5G 6G10G13G17G30G26G23
   7461833.87044   5652403.70643  24093379.2424   24093384.3054
     -4210.2974      -3280.7514
  -1762463.56446  -1333659.23146  20641508.4694   20641512.1024
       449.1414        349.9804
   4789795.53146   3672703.52246  22221750.4454   22221755.3204
     -3149.0474      -2453.8034
    600975.47444    486308.56942  24768434.9534   24768438.5984
     -1003.3594       -781.8384
  -2820520.26146  -2146073.68946  22004550.4844   22004555.0554
      1096.5004        854.4164
   5413536.81146   4149413.16946  22096102.8984   22096106.6604
     -3457.5474      -2694.1924
  -3448024.99444  -2541258.25343  23768746.9924   23768750.8484
      2087.6254       1626.7214
  -1939721.63243  -1333785.24042  24263851.2584   24263857.2114
      2808.1414       2188.1624
 98  6 26 19 33 15.0000000  0  8G 5G 6G10G13G17G30G26G23
   7525018.03044   5701638.06543  24105402.4454   24105408.6094
     -4214.5164      -3284.0384
  -1769130.43046  -1338854.19246  20640239.7664   20640243.1294
       439.5474        342.5044
   4837105.44946   3709568.38946  22230753.2814   22230758.4964
     -3159.1724      -2461.6924
    616110.64044    498102.20042  24771315.3914   24771318.8244
     -1014.9224       -790.8484
  -2836914.15846  -2158848.13146  22001430.6884   22001435.6564
      1089.0784        848.6324
   5465466.69646   4189877.98946  22105984.7664   22105988.0944
     -3466.6724      -2701.3034
  -3479293.10844  -2565622.96642  23762796.9224   23762802.6174
      2081.2344       1621.7414
  -1981800.85043  -1366574.13342  24255843.7504   24255848.1684
      2802.2504       2183.5714
 98  6 26 19 33 30.0000000  0  8G 5G 6G10G13G17G30G26G23
   7588261.01143   5750918.26842  24117437.5634   24117444.1254
     -4218.2974      -3286.9854
  -1775659.37346  -1343941.67146  20638997.4924   20639000.5514
       430.5634        335.5034
   4884562.37846   3746547.80546  22239783.9304   22239789.1454
     -3168.7974      -2469.1924
    631413.29744    510026.34442  24774227.3594   24774233.5594
     -1025.9064       -799.4074
  -2853200.37646  -2171538.67746  21998331.1884   21998336.1564
      1081.9694        843.0934
   5517528.06646   4230445.26846  22115891.7584   22115895.0634
     -3475.3444      -2708.0604
  -3510470.66644  -2589917.11842  23756864.1884   23756870.3874
      2075.3594       1617.1634
  -2023797.53144  -1399298.72542  24247851.7734   24247859.1484
      2796.8444       2179.3594
 98  6 26 19 33 45.0000000  0  8G 5G 6G10G13G17G30G26G23
   7651562.41643   5800243.95342  24129482.6804   24129489.5984
     -4221.8914      -3289.7854
  -1782050.64546  -1348921.87946  20637781.3054   20637784.6804
       421.6414        328.5514
   4932164.82446   3783640.61446  22248842.3984   22248847.5784
     -3178.2034      -2476.5224
    646885.10543    522082.35242  24777171.4534   24777175.6604
     -1037.0624       -808.1014
  -2869377.37146  -2184144.12046  21995253.2114   21995258.2154
      1074.9534        837.6264
   5569726.55546   4271119.39346  22125824.5234   22125827.7344
     -3484.5474      -2715.2314
  -3541558.74844  -2614141.60843  23750948.1484   23750953.3284
      2069.6884       1612.7444
  -2065708.95743  -1431956.95442  24239876.8674   24239881.0634
      2791.2664       2175.0124
 98  6 26 19 34  0.0000000  0  8G 5G 6G10G13G17G30G26G23
   7714919.41243   5849612.95442  24141539.3054   24141544.4734
     -4225.6874      -3292.7444
  -1788307.64446  -1353797.46346  20636590.5164   20636593.7384
       412.6884        321.5754
   4979911.58346   3820845.86845  22257928.4064   22257933.4574
     -3188.0164      -2484.1684
    662528.12443    534271.69142  24780148.1484   24780151.6524
     -1048.6254       -817.1104
  -2885448.20046  -2196666.82146  21992194.8204   21992199.7894
      1067.8284        832.0744
   5622067.44946   4311904.47946  22135784.9064   22135788.7274
     -3494.2344      -2722.7804
  -3572559.78444  -2638298.20743  23745048.8754   23745055.1334
      2063.7814       1608.1414
  -2107532.03043  -1464546.36742  24231917.1254   24231920.5824
      2785.1724       2170.2644
 98  6 26 19 34 15.0000000  0  8G 5G 6G10G13G17G30G26G23
   7778334.28544   5899027.10542  24153607.1724   24153613.7464
     -4229.4374      -3295.6664
  -1794430.29946  -1358568.35746  20635425.5784   20635428.8484
       403.7974        314.6474
   5027806.75646   3858166.77945  22267042.5474   22267047.7734
     -3197.8444      -2491.8264
    678345.68143    546597.02942  24783157.4844   24783160.3554
     -1060.2504       -826.1694
  -2901411.40846  -2209105.67646  21989157.5784   21989162.3484
      1060.7664        826.5714
   5674555.59846   4352804.31946  22145772.9384   22145776.1844
     -3504.0164      -2730.4024
  -3603470.63444  -2662384.55343  23739166.9774   23739173.0594
      2057.8284       1603.5024
  -2149261.87744  -1497063.02942  24223976.5864   24223981.4144
      2778.9844       2165.4424
 98  6 26 19 34 30.0000000  0  8G 5G 6G10G13G17G30G26G23
   7841803.24043   5948483.40042  24165684.9224   24165690.5354
     -4232.7034      -3298.2104
  -1800420.91946  -1363236.36246  20634285.6644   20634288.8984
       395.3134        308.0364
   5075846.92846   3895600.66846  22276184.0864   22276188.8554
     -3207.1254      -2499.0584
    694336.87944    559057.79241  24786200.5864   24786204.3134
     -1071.6094       -835.0204
  -2917270.97546  -2221463.76746  21986139.0784   21986143.9884
      1054.2034        821.4574
   5727188.18346   4393816.69546  22155788.7424   22155792.5514
     -3513.2814      -2737.6224
  -3634291.80244  -2686401.00643  23733301.5634   23733307.2344
      2052.0164       1598.9734
  -2190902.06244  -1529509.86243  24216053.2034   24216058.9344
      2773.4224       2161.1084
 98  6 26 19 34 45.0000000  0  8G 5G 6G10G13G17G30G26G23
   7905314.90543   5997972.97342  24177770.6094   24177777.4184
     -4235.9534      -3300.7434
  -1806290.26946  -1367809.88146  20633168.6484   20633171.7544
       386.9224        301.4984
   5124018.03246   3933136.58946  22285350.7664   22285355.8054
     -3216.0314      -2505.9984
    710493.27944    571647.15542  24789275.5474   24789280.3754
     -1082.9844       -843.8844
  -2933037.70046  -2233749.51446  21983139.0314   21983144.2814
      1047.6564        816.3564
   5779951.50746   4434930.95846  22165829.2034   22165832.5664
     -3522.1724      -2744.5504
  -3665032.20444  -2710354.55243  23727451.4844   23727458.3054
      2046.3444       1594.5544
  -2232466.28943  -1561897.56243  24208143.3364   24208148.3874
      2768.0784       2156.9444
 98  6 26 19 35  0.0000000  0  8G 5G 6G10G13G17G30G26G23
   7968881.53143   6047505.33942  24189866.4694   24189872.7154
     -4239.2344      -3303.3004
  -1812028.19846  -1372280.98746  20632076.6174   20632079.8284
       378.4534        294.8994
   5172327.49046   3970780.31445  22294544.0864   22294548.9734
     -3224.9064      -2512.9144
    726827.03043    584374.78541  24792383.6334   24792387.2074
     -1094.5004       -852.8574
  -2948701.74046  -2245955.24946  21980158.0634   21980163.0084
      1041.2814        811.3884
   5832851.38346   4476151.61546  22175895.7504   22175899.3714
     -3530.7974      -2751.2704
  -3695683.22344  -2734238.39843  23721619.4304   23721624.9384
      2040.7664       1590.2074
  -2273944.22643  -1594217.99642  24200250.2344   24200255.8594
      2762.6564       2152.7194
 98  6 26 19 35 15.0000000  0  8G 5G 6G10G13G17G30G26G23
   8032496.46943   6097075.36242  24201972.7194   24201979.4804
     -4242.7034      -3306.0024
  -1817638.51246  -1376652.65846  20631009.0394   20631012.2274
       369.6564        288.0444
   5220769.46146   4008527.30046  22303762.1414   22303766.9224
     -3234.0004      -2520.0004
    743332.19843    597235.90241  24795524.4304   24795530.5474
     -1106.1874       -861.9644
  -2964272.87646  -2258088.58846  21977195.1094   21977199.7974
      1034.9694        806.4694
   5885880.22146   4517472.77246  22185986.9224   22185990.4614
     -3539.6414      -2758.1624
  -3726249.54444  -2758056.27543  23715802.5234   23715808.1024
      2034.8284       1585.5804
  -2315341.17243  -1626475.23342  24192372.9844   24192379.0664
      2757.0164       2148.3244
 98  6 26 19 35 30.0000000  0  8G 5G 6G10G13G17G30G26G23
   8096159.17543   6146682.54842  24214087.7974   24214092.6844
     -4245.6254      -3308.2794
  -1823120.62246  -1380924.42946  20629965.7814   20629968.9104
       361.3284        281.5544
   5269343.23046   4046376.98345  22313005.4534   22313010.4574
     -3242.4534      -2526.5874
    760010.91344    610232.31242  24798699.0004   24798705.9184
     -1117.6414       -870.8894
  -2979753.64546  -2270151.50646  21974249.1644   21974253.9804
      1029.1414        801.9284
   5939038.39846   4558894.69546  22196102.5394   22196106.0204
     -3548.1094      -2764.7614
  -3756732.12644  -2781808.94443  23710002.2034   23710007.8404
      2029.4384       1581.3804
  -2356656.44043  -1658668.90443  24184510.6024   24184516.0274
      2751.7344       2144.2094
 98  6 26 19 35 45.0000000  0  8G 5G 6G10G13G17G30G26G23
   8159867.26244   6196325.20643  24226211.1954   24226215.7194
     -4248.5784      -3310.5804
  -1828477.28346  -1385098.44846  20628946.4614   20628949.6604
       353.0634        275.1144
   5318045.43946   4084326.74845  22322272.9924   22322277.8674
     -3250.9534      -2533.2104
    776862.81644    623363.77841  24801905.4384   24801909.6454
     -1129.1254       -879.8384
  -2995145.39646  -2282145.08246  21971320.3444   21971325.2774
      1023.2814        797.3624
   5992325.31046   4600416.95646  22206242.8754   22206246.9064
     -3556.5944      -2771.3724
  -3787130.71044  -2805496.07443  23704216.8364   23704220.8204
      2023.8914       1577.0584
  -2397891.21643  -1690799.82143  24176663.0704   24176670.7624
      2746.4384       2140.0814
 98  6 26 19 36  0.0000000  0  8G 5G 6G10G13G17G30G26G23
   8223615.96244   6245999.48742  24238341.8594   24238348.4344
     -4251.5314      -3312.8814
  -1833714.02346  -1389179.01846  20627950.1564   20627953.5314
       344.9384        268.7824
   5366871.39546   4122372.93945  22331564.4694   22331569.5664
     -3259.5164      -2539.8824
    793883.21744    636626.34342  24805143.6414   24805147.8714
     -1140.5004       -888.7014
  -3010452.79446  -2294072.90546  21968407.2974   21968412.2894
      1017.4384        792.8084
   6045733.73146   4642033.87546  22216406.0004   22216409.5634
     -3564.7034      -2777.6914
  -3817450.74644  -2829122.04643  23698447.8674   23698452.2504
      2018.4534       1572.8214
  -2439053.18043  -1722874.02142  24168831.0474   24168838.3284
      2741.5784       2136.2954
 98  6 26 19 36 15.0000000  0  8G 5G 6G10G13G17G30G26G23
   8287406.83544   6295706.57442  24250480.7894   24250487.2584
     -4254.0164      -3314.8174
  -1838831.42946  -1393166.59946  20626976.2274   20626979.4384
       337.3284        262.8534
   5415824.40446   4160518.12745  22340879.7424   22340884.7934
     -3267.4694      -2546.0804
    811069.71043    650018.41442  24808414.6484   24808419.4064
     -1151.0624       -896.9324
  -3025674.23346  -2305933.75446  21965511.1724   21965516.0234
      1012.0314        788.5964
   6099256.59846   4683739.98846  22226590.9774   22226594.5864
     -3571.6094      -2783.0724
  -3847693.18144  -2852687.51743  23692691.9774   23692697.8594
      2013.7664       1569.1684
  -2480147.69744  -1754895.68143  24161011.6024   24161017.3204
      2737.6884       2133.2634
 98  6 26 19 36 30.0000000  0  8G 5G 6G10G13G17G30G26G23
   8351238.24743   6345445.30942  24262627.7814   24262633.5354
     -4256.8284      -3317.0094
  -1843831.33246  -1397062.62946  20626024.8834   20626027.9654
       329.3594        256.6444
   5464897.17646   4198756.64946  22350218.2584   22350223.3444
     -3275.5164      -2552.3504
    828418.06943    663536.67942  24811715.8054   24811719.9414
     -1162.0164       -905.4674
  -3040810.71346  -2317728.40446  21962630.2274   21962634.8914
      1006.1724        784.0304
   6152883.31346   4725527.00746  22236795.6884   22236799.0164
     -3578.5624      -2788.4904
  -3877861.07544  -2876194.91143  23686951.9924   23686959.0634
      2008.5634       1565.1144
  -2521181.81644  -1786870.25043  24153202.8834   24153208.6134
      2733.5944       2130.0734
 98  6 26 19 36 45.0000000  0  8G 5G 6G10G13G17G30G26G23
   8415107.19143   6395213.25042  24274782.0084   24274787.1644
     -4259.3594      -3318.9814
  -1848718.60946  -1400870.88446  20625094.7504   20625098.0434
       321.9224        250.8484
   5514085.05846   4237084.85346  22359578.3594   22359583.6684
     -3283.2344      -2558.3644
    845925.20643    677178.51841  24815047.8834   24815051.8674
     -1172.7034       -913.7954
  -3055864.00346  -2329458.22646  21959765.6884   21959770.2344
      1000.5634        779.6594
   6206608.15246   4767390.50846  22247019.2974   22247023.0594
     -3585.1724      -2793.6404
  -3907954.64144  -2899644.44143  23681225.2894   23681231.4064
      2003.5164       1561.1814
  -2562161.34543  -1818802.29642  24145403.4534   24145410.2734
      2729.9224       2127.2124
 98  6 26 19 37  0.0000000  0  8G 5G 6G10G13G17G30G26G23
   8479016.33743   6445012.49942  24286943.0554   24286947.8364
     -4261.6414      -3320.7594
  -1853493.22146  -1404591.36446  20624186.0784   20624189.3484
       314.9064        245.3814
   5563390.61046   4275504.75645  22368960.9064   22368965.9224
     -3290.7034      -2564.1844
    863594.69143    690946.96941  24818410.5314   24818417.1054
     -1183.0314       -921.8434
  -3070829.63146  -2341119.74846  21956918.0394   21956922.7854
       995.0944        775.3984
   6260436.10746   4809334.35446  22257262.4694   22257266.5474
     -3591.7194      -2798.7424
  -3937968.63544  -2923031.93143  23675513.4454   23675519.1644
      1998.5474       1557.3094
  -2603081.99544  -1850688.43343  24137617.6414   24137623.4064
      2726.3594       2124.4364
 98  6 26 19 37 15.0000000  0  8G 5G 6G10G13G17G30G26G23
   8542952.22243   6494832.62642  24299109.9694   24299117.6484
     -4263.0624      -3321.8674
  -1858166.62146  -1408232.96946  20623296.8674   20623300.1254
       308.2664        240.2074
   5612804.91346   4314009.40145  22378364.3204   22378369.6524
     -3297.7974      -2569.7124
    881413.74044    704831.99042  24821801.0164   24821805.9964
     -1192.7814       -929.4404
  -3085720.30946  -2352722.86146  21954084.2974   21954088.7974
       990.4064        771.7454
   6314358.58246   4851351.84046  22267523.6954   22267527.6214
     -3597.9374      -2803.5884
  -3967911.09644  -2946363.67043  23669815.6644   23669821.1954
      1993.8134       1553.6204
  -2643953.16544  -1882536.08643  24129839.8674   24129844.8244
      2723.1254       2121.9164
 98  6 26 19 37 30.0000000  0  8G 5G 6G10G13G17G30G26G23
   8606912.02843   6544671.35842  24311281.0634   24311286.9454
     -4264.8754      -3323.2794
  -1862738.87346  -1411795.76346  20622426.6334   20622429.8554
       301.3444        234.8134
   5662326.80846   4352597.87545  22387787.4774   22387792.9614
     -3305.1414      -2575.4344
    899381.09344    718832.46341  24825220.0784   24825225.0354
     -1202.9374       -937.3544
  -3100537.76446  -2364268.91446  21951264.9224   21951269.5394
       985.2034        767.6914
   6368376.72846   4893443.89046  22277803.0704   22277806.8794
     -3604.4844      -2808.6894
  -3997781.25244  -2969639.10343  23664131.2424   23664137.8754
      1988.8914       1549.7854
  -2684773.24044  -1914343.86743  24122072.0394   24122079.5314
      2719.5474       2119.1274
 98  6 26 19 37 45.0000000  0  8G 5G 6G10G13G17G30G26G23
   8670894.42743   6594527.71542  24323456.2194   24323462.7814
     -4266.3284      -3324.4124
  -1867210.68846  -1415280.28846  20621575.7664   20621579.1644
       294.6564        229.6024
   5711953.91146   4391268.33646  22397231.4534   22397236.4804
     -3312.0624      -2580.8284
    917496.18343    732948.11642  24828667.0314   24828672.5634
     -1212.6094       -944.8904
  -3115280.52046  -2375756.77046  21948459.2274   21948463.9384
       980.2814        763.8564
   6422489.44846   4935609.60846  22288100.3134   22288104.2034
     -3610.6874      -2813.5234
  -4027581.79044  -2992860.23443  23658460.6564   23658466.8204
      1984.2664       1546.1814
  -2725543.94344  -1946113.14043  24114313.9774   24114320.4224
      2716.4384       2116.7054
 98  6 26 19 38  0.0000000  0  8G 5G 6G10G13G17G30G26G23
   8734896.00143   6644399.03742  24335635.0864   24335641.0164
     -4267.4694      -3325.3004
  -1871584.95746  -1418688.80546  20620743.4224   20620746.7504
       288.2974        224.6474
   5761682.40846   4430017.80845  22406694.7034   22406699.8364
     -3318.7344      -2586.0274
    935752.32543    747173.73342  24832140.8914   24832145.5314
     -1221.8594       -952.0984
  -3129953.03146  -2387189.87846  21945667.2734   21945672.2074
       975.7974        760.3614
   6476689.81146   4977843.63946  22298414.1334   22298418.1054
     -3616.3444      -2817.9304
  -4057316.42844  -3016030.06443  23652802.0864   23652806.6334
      1980.0634       1542.9064
  -2766273.37845  -1977850.35343  24106563.1094   24106568.2664
      2713.8594       2114.6964
 98  6 26 19 38 15.0000000  0  8G 5G 6G10G13G17G30G26G23
   8798920.53343   6694288.18842  24347818.3444   24347824.4964
     -4268.8444      -3326.3724
  -1875858.58546  -1422018.89846  20619930.2114   20619933.4694
       281.7664        219.5584
   5811517.18446   4468850.09045  22416177.8984   22416182.9734
     -3325.5474      -2591.3354
    954153.09843    761511.90242  24835642.7894   24835646.6684
     -1231.2664       -959.4284
  -3144553.37046  -2398566.74746  21942888.4774   21942893.5164
       971.2504        756.8184
   6530981.99946   5020149.22346  22308745.3054   22308749.8754
     -3622.3444      -2822.6064
  -4086981.63444  -3039145.76943  23647156.9774   23647163.3164
      1975.5634       1539.3994
  -2806956.59244  -2009551.54943  24098821.1414   24098826.5084
      2710.7664       2112.2854
 98  6 26 19 38 30.0000000  0  8G 5G 6G10G13G17G30G26G23
   8862967.03843   6744194.47442  24360006.7584   24360012.4184
     -4270.4534      -3327.6264
  -1880030.11046  -1425269.43146  20619136.5164   20619139.6684
       274.6564        214.0184
   5861452.61546   4507760.79945  22425680.3054   22425685.6604
     -3332.2504      -2596.5584
    972697.18543    775961.92441  24839171.7114   24839173.1294
     -1241.0784       -967.0744
  -3159084.47746  -2409889.68246  21940123.8364   21940128.5354
       966.4844        753.1054
   6585367.48546   5062527.48646  22319094.5084   22319098.2934
     -3628.8914      -2827.7074
  -4116576.28744  -3062206.49443  23641524.6414   23641530.5944
      1970.5944       1535.5284
  -2847587.91244  -2041212.22244  24091089.1954   24091095.2194
      2706.9224       2109.2904
 98  6 26 19 38 45.0000000  0  8G 5G 6G10G13G17G30G26G23
   8927025.16543   6794109.85642  24372196.5474   24372206.8524
     -4270.7034      -3327.8214
  -1884107.48846  -1428446.60846  20618360.4614   20618363.4844
       268.9064        209.5374
   5911478.67646   4546742.14445  22435199.8134   22435205.1454
     -3337.9844      -2601.0274
    991376.87543    790517.45842  24842726.0164   24842731.1024
     -1249.5314       -973.6614
  -3173555.73146  -2421165.97346  21937369.8204   21937374.7774
       963.0004        750.3904
   6639842.69046   5104975.66746  22329461.0704   22329465.7114
     -3634.5314      -2832.1024
  -4146107.43444  -3085217.72043  23635906.0474   23635910.0904
      1966.8754       1532.6304
  -2888170.38244  -2072834.85244  24083366.5704   24083374.4964
      2704.0314       2107.0374
 98  6 26 19 39  0.0000000  0  8G 5G 6G10G13G17G30G26G23
   8991100.69443   6844038.78142  24384389.3444   24384394.4414
     -4272.2034      -3328.9894
  -1888083.47946  -1431544.77946  20617603.8134   20617607.0824
       261.6884        203.9124
   5961605.96246   4585802.35745  22444738.9844   22444743.6024
     -3345.1094      -2606.5794
   1010195.21243    805181.10242  24846307.2424   24846312.6334
     -1259.0314       -981.0634
  -3187961.88746  -2432391.53746  21934628.3284   21934633.5554
       958.3594        746.7744
   6694416.07646   5147500.35446  22339846.1024   22339850.5904
     -3641.3914      -2837.4474
  -4175571.21144  -3108176.46343  23630299.2734   23630303.8794
      1962.1254       1528.9294
  -2928696.03244  -2104413.23043  24075654.8594   24075661.8134
      2699.8134       2103.7504
 98  6 26 19 39 15.0000000  0  8G 5G 6G10G13G17G30G26G23
   9055193.20343   6893980.96142  24396586.5784   24396594.6914
     -4273.5944      -3330.0734
  -1891955.75646  -1434562.13246  20616867.0234   20616870.2814
       254.4224        198.2514
   6011832.88046   4624940.21145  22454296.5704   22454301.4924
     -3352.0314      -2611.9724
   1029148.10944    819949.65641  24849913.6884   24849917.4264
     -1268.2344       -988.2354
  -3202304.47246  -2443567.56346  21931899.1644   21931904.0984
       953.8914        743.2914
   6749085.48646   5190099.87446  22350249.7504   22350254.4734
     -3648.0004      -2842.5974
  -4204972.14345  -3131086.26044  23624704.3984   23624709.7664
      1957.8444       1525.5934
  -2969163.04044  -2135945.92942  24067954.2584   24067960.5394
      2695.6094       2100.4754
 98  6 26 19 39 30.0000000  0  8G 5G 6G10G13G17G30G26G23
   9119299.93143   6943934.11342  24408784.8674   24408790.4104
     -4273.8914      -3330.3044
  -1895723.56446  -1437498.08346  20616150.1334   20616153.2624
       248.0944        193.3204
   6062156.77046   4664153.61145  22463873.0084   22463877.9534
     -3357.6564      -2616.3564
   1048233.87443    834821.64541  24853544.9454   24853547.0434
     -1276.3754       -994.5784
  -3216586.48446  -2454696.39346  21929181.5474   21929186.3984
       950.4534        740.6134
   6803847.18146   5232771.29546  22360670.5554   22360674.9384
     -3653.4224      -2846.8224
  -4234314.48744  -3153950.39243  23619120.8914   23619126.3754
      1954.6254       1523.0844
  -3009572.66344  -2167433.88943  24060264.2034   24060270.7774
      2692.5314       2098.0764
 98  6 26 19 39 45.0000000  0  8G 5G 6G10G13G17G30G26G23
   9183418.09943   6993896.33942  24420986.7584   24420994.3554
     -4275.0474      -3331.2054
  -1899390.64046  -1440355.54246  20615452.0004   20615455.2814
       240.9694        187.7684
   6112570.79446   4703437.26945  22473466.3984   22473471.0744
     -3364.1094      -2621.3844
   1067447.65844    849793.39842  24857201.7194   24857204.9884
     -1285.3284      -1001.5544
  -3230809.38746  -2465779.16146  21926474.6724   21926479.6764
       946.0634        737.1924
   6858695.14246   5275509.93646  22371107.5634   22371111.5354
     -3659.4844      -2851.5464
  -4263603.00844  -3176772.54843  23613546.8594   23613552.7194
      1950.5944       1519.9434
  -3049930.95644  -2198881.84942  24052584.4614   24052590.5664
      2688.6564       2095.0574
 98  6 26 19 40  0.0000000  0  8G 5G 6G10G13G17G30G26G23
   9247549.42243   7043868.73942  24433190.8134   24433197.3524
     -4275.9224      -3331.8874
  -1902955.61346  -1443133.43546  20614773.7734   20614776.9614
       234.2504        182.5324
   6163077.38546   4742793.03745  22483077.6174   22483083.1604
     -3370.2504      -2626.1694
   1086790.80544    864866.00742  24860882.7504   24860887.3674
     -1293.9534      -1008.2754
  -3244971.93746  -2476814.90146  21923779.7734   21923784.8484
       942.1564        734.1484
   6913629.62946   5318316.00946  22381561.4064   22381565.4264
     -3665.1564      -2855.9664
  -4292834.17343  -3199550.08443  23607984.1954   23607990.9454
      1946.7814       1516.9724
  -3090233.98244  -2230286.75042  24044915.3444   24044919.8444
      2684.9224       2092.1474
 98  6 26 19 40 15.0000000  0  8G 5G 6G10G13G17G30G26G23
   9311694.91743   7093852.09342  24445396.8364   24445404.2584
     -4276.7974      -3332.5694
  -1906419.11346  -1445832.26346  20614114.6174   20614118.0394
       227.5004        177.2734
   6213677.72646   4782221.86345  22492706.5474   22492711.9024
     -3376.4534      -2631.0024
   1106265.49444    880041.04942  24864589.1804   24864592.7774
     -1302.7344      -1015.1184
  -3259074.04946  -2487803.55446  21921096.0394   21921100.6564
       938.1414        731.0194
   6968649.51046   5361188.61546  22392031.5004   22392035.5784
     -3670.8594      -2860.4104
  -4322008.07844  -3222282.92542  23602432.8984   23602436.8364
      1943.1094       1514.1114
  -3130476.42944  -2261644.51242  24037256.7424   24037262.7074
      2680.6884       2088.8474
 98  6 26 19 40 30.0000000  0  8G 5G 6G10G13G17G30G26G23
   9375853.47743   7143845.72742  24457606.3834   24457611.2464
     -4277.4694      -3333.0934
  -1909778.69346  -1448450.10846  20613475.3914   20613478.7774
       220.5944        171.8914
   6264370.27446   4821722.54345  22502352.7424   22502358.1214
     -3382.3754      -2635.6174
   1125872.52943    895319.28141  24868319.3594   24868322.5474
     -1311.3914      -1021.8634
  -3273116.16446  -2498745.45746  21918424.1094   21918428.5744
       934.3444        728.0604
   7023755.36446   5404128.21946  22402517.4774   22402520.7814
     -3676.4064      -2864.7324
  -4351127.14044  -3244973.03943  23596891.5864   23596896.3204
      1939.6564       1511.4204
  -3170653.71444  -2292951.37743  24029611.1804   24029616.1954
      2676.5164       2085.5974
 98  6 26 19 40 45.0000000  0  8G 5G 6G10G13G17G30G26G23
   9440021.16843   7193846.51742  24469817.5164   24469824.1254
     -4278.0624      -3333.5554
  -1913034.38946  -1450987.01246  20612856.0084   20612859.3244
       213.7194        166.5344
   6315152.77446   4861293.30945  22512016.6174   22512022.2424
     -3388.5314      -2640.4144
   1145611.39643    910700.20841  24872075.8444   24872079.1024
     -1320.3124      -1028.8154
  -3287100.85146  -2509642.60846  21915762.7664   21915767.3134
       930.4224        725.0044
   7078943.95346   5447132.28646  22413019.8914   22413023.3364
     -3681.8914      -2869.0064
  -4380194.43444  -3267622.86043  23591359.7894   23591365.5314
      1936.1254       1508.6694
  -3210770.41744  -2324211.07243  24021977.9304   24021984.4924
      2672.6094       2082.5534
 98  6 26 19 41  0.0000000  0  8G 5G 6G10G13G17G30G26G23
   9504197.44843   7243853.91942  24482029.1644   24482036.4694
     -4278.7814      -3334.1154
  -1916188.43346  -1453444.70446  20612255.6564   20612258.8094
       206.7974        161.1404
   6366028.71946   4900936.89845  22521697.6954   22521703.3444
     -3394.8594      -2645.3454
   1165483.02643    926184.59341  24875857.9454   24875865.3554
     -1329.2814      -1035.8044
  -3301026.98046  -2520494.11846  21913112.9384   21913117.6604
       926.4384        721.8994
   7134212.82746   5490198.90545  22423537.0314   22423540.5474
     -3687.2344      -2873.1704
  -4409207.91644  -3290230.69443  23585838.9384   23585844.5274
      1932.3134       1505.6984
  -3250831.11143  -2355427.17943  24014353.9064   24014360.2584
      2668.9064       2079.6674
 98  6 26 19 41 15.0000000  0  8G 5G 6G10G13G17G30G26G23
   9568381.78943   7293867.66742  24494243.0164   24494251.7734
     -4279.0474      -3334.3224
  -1919239.70746  -1455822.31746  20611675.1724   20611678.4414
       200.1414        155.9544
   6416996.53646   4940652.06345  22531396.8054   22531401.9264
     -3400.7194      -2649.9114
   1185490.25543    941774.64741  24879664.3524   24879669.8834
     -1338.2974      -1042.8294
  -3314895.59146  -2531300.82246  21910473.5704   21910478.3984
       922.7974        719.0634
   7189559.94846   5533326.51346  22434069.3594   22434073.3554
     -3692.2974      -2877.1144
  -4438165.03944  -3312794.68843  23580328.5394   23580333.7544
      1928.6414       1502.8374
  -3290838.30844  -2386601.53442  24006741.0394   24006746.4304
      2665.4224       2076.9524
 98  6 26 19 41 30.0000000  0  8G 5G 6G10G13G17G30G26G23
   9632567.79543   7343882.63242  24506457.3754   24506463.8674
     -4279.4224      -3334.6144
  -1922193.95946  -1458124.33046  20611113.1334   20611116.6604
       193.4064        150.7064
   6468049.10546   4980433.27345  22541111.6484   22541116.8054
     -3406.6874      -2654.5624
   1205632.21643    957469.71041  24883497.8594   24883502.9804
     -1347.6414      -1050.1104
  -3328712.21346  -2542067.00846  21907844.3524   21907849.1094
       919.0784        716.1654
   7244980.65746   5576511.45946  22444615.4064   22444618.9924
     -3697.4844      -2881.1574
  -4467067.83644  -3335316.30343  23574828.6564   23574834.3874
      1924.6094       1499.6964
  -3330796.08744  -2417737.44242  23999136.7814   23999143.0044
      2661.9534       2074.2494
 98  6 26 19 41 45.0000000  0  8G 5G 6G10G13G17G30G26G23
   9696759.36542   7393901.93942  24518672.3444   24518677.6764
     -4279.4224      -3334.6144
  -1925047.11646  -1460347.56646  20610569.9534   20610573.4104
       187.0634        145.7634
   6519191.29246   5020284.32145  22550844.0634   22550849.4534
     -3412.2194      -2658.8724
   1225914.02543    973273.64542  24887357.0704   24887361.3594
     -1356.5004      -1057.0134
  -3342472.85346  -2552789.58046  21905226.0394   21905231.1134
       915.7504        713.5714
   7300478.65346   5619756.62446  22455176.1484   22455179.6054
     -3702.2194      -2884.8464
  -4495907.75245  -3357788.94843  23569341.3134   23569346.5164
      1920.8594       1496.7744
  -3370702.38644  -2448833.19943  23991542.9694   23991548.2774
      2658.9534       2071.9124
 98  6 26 19 42  0.0000000  0  8G 5G 6G10G13G17G30G26G23
   9760954.50943   7443924.07242  24530889.2344   24530896.6914
     -4279.7664      -3334.8824
  -1927802.57646  -1462494.67546  20610045.4694   20610048.7974
       180.4844        140.6374
   6570420.56546   5060203.21545  22560592.3834   22560597.5744
     -3418.1724      -2663.5114
   1246331.84643    989183.70441  24891242.3284   24891247.7894
     -1365.6874      -1064.1724
  -3356182.65246  -2563472.52646  21902617.0704   21902621.9804
       912.3754        710.9424
   7356049.93646   5663058.87946  22465751.0314   22465754.0554
     -3707.1414      -2888.6814
  -4524689.26145  -3380216.08644  23563864.0474   23563870.8204
      1916.8754       1493.6694
  -3410559.39344  -2479890.54043  23983959.8364   23983966.5864
      2655.5164       2069.2334
 98  6 26 19 42 15.0000000  0  8G 5G 6G10G13G17G30G26G23
   9825157.12743   7493952.00042  24543106.0944   24543112.3634
     -4280.2664      -3335.2724
  -1930455.90146  -1464562.19546  20609540.8204   20609544.0664
       173.5944        135.2684
   6621741.31446   5100193.39445  22570358.6094   22570364.0234
     -3424.2194      -2668.2224
   1266890.19443   1005203.13841  24895154.1804   24895159.5124
     -1375.0784      -1071.4894
  -3369838.25946  -2574113.25146  21900018.5234   21900023.3634
       908.6884        708.0684
   7411698.78346   5706421.58645  22476340.8914   22476344.5474
     -3712.3124      -2892.7114
  -4553409.19045  -3402595.20543  23558398.5704   23558405.4144
      1912.8444       1490.5284
  -3450363.89243  -2510906.95343  23976383.2734   23976388.4774
      2652.1414       2066.6034
 98  6 26 19 42 30.0000000  0  8G 5G 6G10G13G17G30G26G23
   9889363.26943   7543982.69242  24555323.7194   24555329.2034
     -4280.2664      -3335.2724
  -1933007.91746  -1466550.77746  20609055.0554   20609058.3014
       166.9224        130.0694
   6673148.63446   5140251.04245  22580140.9534   22580146.0634
     -3429.7814      -2672.5574
   1287585.58143   1021329.41241  24899093.3204   24899097.2344
     -1384.0164      -1078.4544
  -3383440.98846  -2584712.76246  21897430.0004   21897434.7344
       905.2664        705.4024
   7467422.41446   5749842.58645  22486945.1254   22486948.9694
     -3717.2814      -2896.5834
  -4582070.11445  -3424928.30643  23552944.9144   23552951.1954
      1908.8284       1487.3994
  -3490123.20844  -2541888.22743  23968818.5864   23968825.4454
      2649.4224       2064.4854
 98  6 26 19 42 45.0000000  0  8G 5G 6G10G13G17G30G26G23
   9953564.11143   7594009.29142  24567542.0004   24567545.9144
     -4279.8914      -3334.9804
  -1935464.98446  -1468465.37246  20608587.4924   20608590.9144
       160.6724        125.1994
   6724634.99746   5180370.26245  22589938.1254   22589943.4694
     -3435.1414      -2676.7334
   1308410.76843   1037556.74541  24903055.5314   24903054.6884
     -1392.7194      -1085.2354
  -3396994.48046  -2595273.91446  21894850.6954   21894855.2544
       901.7504        702.6624
   7523216.21046   5793318.23645  22497562.1094   22497565.7194
     -3721.9224      -2900.1994
  -4610672.64245  -3447216.00743  23547501.5084   23547506.5124
      1904.7034       1484.1844
  -3529848.16044  -2572842.66543  23961258.2034   23961263.6414
      2647.2034       2062.7564
 98  6 26 19 43  0.0000000  0  8G 5G 6G10G13G17G30G26G23
  10017764.16843   7644035.21041  24579758.5554   24579764.1454
     -4279.6874      -3334.8214
  -1937824.83346  -1470304.21146  20608138.5004   20608142.1214
       154.3914        120.3044
   6776207.83946   5220556.89045  22599752.6024   22599757.7344
     -3440.8444      -2681.1774
   1329371.37243   1053889.69441  24907043.8364   24907049.7194
     -1401.5624      -1092.1274
  -3410488.16646  -2605788.46846  21892283.0314   21892287.7544
       897.8444        699.6194
   7579084.18846   5836851.69945  22508193.6884   22508197.3324
     -3726.7194      -2903.9374
  -4639206.22145  -3469449.93543  23542072.0554   23542078.1374
      1900.2194       1480.6904
  -3569534.75744  -2603767.19943  23953706.6724   23953712.0984
      2644.7034       2060.8084
 98  6 26 19 43 15.0000000  0  8G 5G 6G10G13G17G30G26G23
  10081958.86843   7694056.95741  24591974.5004   24591978.2734
     -4279.8444      -3334.9434
  -1940091.12246  -1472070.14746  20607707.2504   20607710.5314
       147.4844        114.9234
   6827864.14446   5260808.54245  22609582.6254   22609587.8874
     -3446.9224      -2685.9134
   1350461.78643   1070323.75741  24911057.7344   24911060.8284
     -1410.8124      -1099.3344
  -3423924.81246  -2616258.57746  21889725.9694   21889730.7154
       893.3754        696.1364
   7635022.38946   5880439.88645  22518838.2424   22518842.3914
     -3732.0004      -2908.0524
  -4667674.53844  -3491632.97443  23536654.7344   23536660.6644
      1895.3284       1476.8794
  -3609183.36245  -2634662.17444  23946162.3984   23946168.1414
      2641.4384       2058.2634
 98  6 26 19 43 30.0000000  0  8G 5G 6G10G13G17G30G26G23
  10146152.53143   7744078.03442  24604189.2424   24604195.4414
     -4279.6094      -3334.7614
  -1942257.42946  -1473758.17146  20607294.9064   20607298.2584
       141.1254        109.9684
   6879607.30446   5301127.87545  22619428.9144   22619434.0004
     -3452.3594      -2690.1504
   1371687.36143   1086863.18141  24915096.4774   24915102.6884
     -1419.4694      -1106.0804
  -3437297.74046  -2626679.03346  21887181.0394   21887185.7504
       889.4534        693.0804
   7691037.08246   5924087.67345  22529497.2424   22529501.2734
     -3736.8284      -2911.8144
  -4696073.21545  -3513761.77243  23531250.1884   23531255.7774
      1890.9534       1473.4704
  -3648784.07944  -2665519.87244  23938625.0944   23938630.9184
      2638.4224       2055.9134
 98  6 26 19 43 45.0000000  0  8G 5G 6G10G13G17G30G26G23
  10210341.76644   7794095.55742  24616404.4064   24616408.9184
     -4279.4374      -3334.6274
  -1944330.06346  -1475373.20746  20606900.6564   20606904.2774
       134.6884        104.9514
   6931429.62646   5341508.89245  22629290.4534   22629295.6564
     -3457.8124      -2694.3994
   1393040.59043   1103502.01641  24919160.7814   24919164.3324
     -1428.1254      -1112.8254
  -3450612.00246  -2637053.77346  21884647.9534   21884652.7234
       885.2664        689.8174
   7747122.33146   5967790.44045  22540169.8594   22540173.1414
     -3741.7974      -2915.6864
  -4724409.13345  -3535841.69143  23525858.5554   23525863.8404
      1886.6564       1470.1224
  -3688342.43445  -2696344.42343  23931098.5314   23931104.6604
      2635.4844       2053.6244
 98  6 26 19 44  0.0000000  0  8G 5G 6G10G13G17G30G26G23
  10274529.33044   7844111.74042  24628619.0004   24628626.6914
     -4279.1724      -3334.4204
  -1946303.94346  -1476911.29446  20606524.8674   20606528.4304
       128.1884         99.8864
   6983334.22946   5381954.03645  22639167.4924   22639172.8594
     -3463.1254      -2698.5394
   1414525.05343   1120243.17541  24923248.3834   24923251.3834
     -1436.7974      -1119.5824
  -3463862.02346  -2647378.45746  21882126.0234   21882130.5234
       881.1254        686.5914
   7803284.77046   6011553.34945  22550857.6254   22550862.0314
     -3746.7974      -2919.5824
  -4752680.38645  -3557871.17844  23520478.8524   23520483.0354
      1882.5944       1466.9564
  -3727854.40745  -2727133.00143  23923579.2114   23923583.1024
      2632.5004       2051.2994
 98  6 26 19 44 15.0000000  0  8G 5G 6G10G13G17G30G26G23
  10338715.63143   7894126.98842  24640833.5004   24640839.3834
     -4278.8124      -3334.1404
  -1948176.67046  -1478370.55446  20606168.4144   20606172.0234
       121.7034         94.8344
   7035322.69646   5422464.51145  22649060.6954   22649065.9454
     -3468.4534      -2702.6914
   1436144.63743   1137089.55241  24927363.0704   24927368.6954
     -1445.5474      -1126.4004
  -3477045.10346  -2657650.97046  21879617.6484   21879622.3364
       876.7664        683.1944
   7859525.16946   6055377.02945  22561560.1564   22561564.3404
     -3751.7664      -2923.4544
  -4780886.18145  -3579849.70243  23515111.1024   23515115.6954
      1878.3754       1463.6694
  -3767318.39544  -2757884.08343  23916069.0864   23916075.3794
      2629.5634       2049.0104
 98  6 26 19 44 30.0000000  0  8G 5G 6G10G13G17G30G26G23
  10402898.23043   7944139.35642  24653046.2194   24653052.9454
     -4278.7034      -3334.0544
  -1949950.12546  -1479752.46446  20605831.0394   20605834.5434
       114.9534         89.5744
   7087393.09646   5463038.84045  22658969.5864   22658974.5554
     -3474.0624      -2707.0624
   1457896.39043   1154038.96741  24931501.3204   24931509.3524
     -1454.5314      -1133.4014
  -3490159.47446  -2667869.95746  21877122.2584   21877126.7464
       872.0004        679.4814
   7915843.50046   6099261.41745  22572276.9064   22572281.5354
     -3757.1564      -2927.6544
  -4809025.12244  -3601776.12743  23509756.0784   23509761.3634
      1873.6884       1460.0164
  -3806735.62645  -2788598.72843  23908569.0944   23908574.9654
      2626.1884       2046.3804
 98  6 26 19 44 45.0000000  0  9G 5G 6G10G13G17G30G22G26G23
  10467074.42342   7994146.59041  24665259.2424   24665266.8164
     -4278.0314      -3333.5314
  -1951628.11746  -1481059.98746  20605511.5314   20605515.0354
       108.8914         84.8504
   7139543.30346   5503675.35245  22668892.9694   22668898.2194
     -3479.2344      -2711.0924
   1479778.49843   1171090.01741  24935666.2814   24935671.3914
     -1463.0164      -1140.0124
  -3503208.16546  -2678037.75546  21874639.1174   21874643.6764
       867.9224        676.3034
   7972237.05546   6143204.42145  22583008.1884   22583012.5474
     -3761.8444      -2931.3074
    -18420.30952                  24801087.0704
      1672.5474
  -4837097.54444  -3623650.66143  23504413.7274   23504419.2584
      1869.3914       1456.6684
  -3846104.70444  -2819275.92143  23901076.7274   23901083.1134
      2623.0164       2043.9084
 98  6 26 19 45  0.0000000  0  9G 5G 6G10G13G17G30G22G26G23
  10531241.61942   8044147.04441  24677469.5004   24677476.5004
     -4277.6094      -3333.2024
  -1953214.98746  -1482296.50046  20605209.5394   20605212.9964
       102.6724         80.0044
   7191772.93346   5544373.75845  22678832.0314   22678837.1884
     -3484.7034      -2715.3534
   1501788.67342   1188240.75541  24939853.9614   24939856.6334
     -1471.6414      -1146.7334
  -3516195.35246  -2688157.62946  21872167.6174   21872172.0354
       863.7664        673.0644
   8028700.20046   6187201.65045  22593752.7814   22593757.3634
     -3766.5784      -2934.9964
    -43462.31042                  24796321.0394
      1666.4384
  -4865107.65244  -3645476.70743  23499083.8984   23499089.9804
      1865.3134       1453.4904
  -3885421.84245  -2849912.59843  23893595.1414   23893600.8714
      2619.2504       2040.9744
 98  6 26 19 45 15.0000000  0  9G 5G 6G10G13G17G30G22G26G23
  10595406.77142   8094145.73641  24689680.7034   24689688.8164
     -4277.4224      -3333.0564
  -1954703.76046  -1483456.58246  20604926.7274   20604930.1374
        96.1094         74.8904
   7244087.09046   5585138.02745  22688787.4304   22688792.7504
     -3490.1874      -2719.6274
   1523930.65242   1205494.26841  24944067.8204   24944072.3794
     -1480.2974      -1153.4784
  -3529120.06946  -2698228.82746  21869708.3134   21869712.9064
       859.8284        669.9964
   8085239.23246   6231258.01445  22604511.6174   22604515.4384
     -3771.6414      -2938.9414
    -68411.27543                  24791574.3134
      1660.4064
  -4893055.15645  -3667253.94343  23493765.9304   23493770.7114
      1861.3284       1450.3864
  -3924678.49044  -2880502.10743  23886124.8834   23886131.5044
      2615.2344       2037.8454
 98  6 26 19 45 30.0000000  0  9G 5G 6G10G13G17G30G22G26G23
  10659574.62942   8144146.62641  24701890.7894   24701894.9844
     -4278.0314      -3333.5314
  -1956088.95346  -1484535.95146  20604662.8364   20604666.0944
        88.8914         69.2654
   7296485.50246   5625967.94345  22698758.0234   22698762.9694
     -3496.0004      -2724.1564
   1546206.09142   1222851.74741  24948306.4224   24948306.5864
     -1489.5004      -1160.6494
  -3541981.45446  -2708250.68246  21867260.6334   21867265.6844
       855.2974        666.4654
   8141857.77946   6275376.32745  22615285.5474   22615289.9064
     -3777.2664      -2943.3244
    -93265.72343                  24786844.3204
      1653.8134
  -4920938.60744  -3688981.28843  23488459.7814   23488464.5634
      1856.7504       1446.8184
  -3963870.93145  -2911041.61543  23878666.5554   23878672.3444
      2610.7504       2034.3514
 98  6 26 19 45 45.0000000  0  9G 5G 6G10G13G17G30G22G26G23
  10723742.66242   8194147.64841  24714101.9064   24714103.2664
     -4277.6564      -3333.2394
  -1957375.92546  -1485538.78246  20604418.0004   20604421.4574
        82.7344         64.4684
   7348961.35846   5666858.21745  22708744.0314   22708749.7274
     -3500.7814      -2727.8814
   1568608.48042   1240308.14741  24952570.0164   24952575.2774
     -1497.4534      -1166.8474
  -3554785.40646  -2718227.78346  21864824.0004   21864828.6994
       851.9224        663.8354
   8198551.97046   6319553.57945  22626074.4064   22626078.8484
     -3781.8914      -2946.9284
   -118030.84443                  24782132.6174
      1648.2194
  -4948764.57544  -3710663.82943  23483164.4224   23483170.1644
      1853.4224       1444.2254
  -4003008.39644  -2941538.37043  23871218.9534   23871224.8594
      2607.6094       2031.9034
 98  6 26 19 46  0.0000000  0  9G 5G 6G10G13G17G30G22G26G23
  10787908.79442   8244147.19142  24726312.7424   24726318.8594
     -4278.0164      -3333.5194
  -1958564.01046  -1486464.55946  20604191.7814   20604195.4144
        75.4694         58.8074
   7401516.76346   5707810.46145  22718745.0314   22718750.3524
     -3506.7974      -2732.5694
   1591135.12042   1257861.43741  24956855.8284   24956863.0044
     -1506.2814      -1173.7264
  -3567531.65346  -2728159.91346  21862398.6024   21862403.3364
       847.4384        660.3414
   8255321.13546   6363789.27545  22636877.7274   22636882.3554
     -3787.4694      -2951.2744
   -142704.12544    -14090.87651  24777437.4064   24777445.6134
      1641.2974       1278.9334
  -4976532.61844  -3732301.22843  23477880.5474   23477886.6294
      1848.8444       1440.6574
  -4042092.21944  -2971993.15944  23863781.2894   23863786.7384
      2603.3444       2028.5804
 98  6 26 19 46 15.0000000  0  9G 5G 6G10G13G17G30G22G26G23
  10852080.47642   8294151.04641  24738523.6484   24738529.8134
     -4278.2814      -3333.7264
  -1959643.25046  -1487305.52246  20603986.4144   20603989.9884
        68.4064         53.3044
   7454161.96546   5748832.68645  22728763.3914   22728768.8164
     -3512.6414      -2737.1234
   1613793.61142   1275517.23641  24961168.5704   24961169.5084
     -1514.8754      -1180.4224
  -3580212.74146  -2738041.27746  21859985.6024   21859990.1604
       843.3284        657.1394
   8312170.41046   6408087.37545  22647695.3284   22647699.7234
     -3792.5004      -2955.1954
   -167273.46544    -33235.81942  24772761.7664   24772767.3794
      1634.5164       1273.6494
  -5004232.14644  -3753885.21243  23472609.3674   23472614.0084
      1844.3754       1437.1754
  -4081111.94844  -3002398.11843  23856355.9694   23856362.2154
      2599.2504       2025.3904
 98  6 26 19 46 30.0000000  0  9G 5G 6G10G13G17G30G22G26G23
  10916250.68142   8344153.75142  24750735.2344   24750742.0554
     -4277.8594      -3333.3974
  -1960622.87046  -1488068.85746  20603799.9534   20603803.5864
        62.1094         48.3974
   7506889.87746   5789919.35845  22738797.0314   22738802.5864
     -3517.7974      -2741.1404
   1636573.87142   1293268.12441  24965503.1094   24965505.0434
     -1522.5784      -1186.4254
  -3592836.73546  -2747878.13646  21857583.4924   21857588.2854
       839.8284        654.4124
   8369090.15846   6452440.40645  22658526.8054   22658530.9884
     -3796.9374      -2958.6534
   -191744.49743    -52304.13442  24768105.2734   24768110.5234
      1628.1884       1268.7184
  -5031868.48144  -3775420.00543  23467349.7814   23467355.5004
      1840.3754       1434.0584
  -4120073.49844  -3032757.72244  23848942.0164   23848948.5204
      2595.5004       2022.4684
 98  6 26 19 46 45.0000000  0  9G 5G 6G10G13G17G30G22G26G23
  10980415.06042   8394151.86542  24762944.4924   24762952.1844
     -4277.5624      -3333.1664
  -1961506.82846  -1488757.65246  20603631.9304   20603635.4694
        55.5474         43.2834
   7559694.70346   5831065.96045  22748845.3204   22748850.9454
     -3522.9844      -2745.1834
   1659471.40442   1311110.30341  24969860.3444   24969862.5124
     -1530.6724      -1192.7314
  -3605409.23246  -2757674.87946  21855190.6334   21855195.3204
       836.3594        651.7094
   8426077.15746   6496845.81545  22669371.3204   22669375.5044
     -3801.4534      -2962.1714
   -216118.21643    -71296.66242  24763466.8204   24763474.1844
      1621.3914       1263.4214
  -5059444.39044  -3796907.66443  23462102.6094   23462108.5864
      1836.2814       1430.8694
  -4158977.53745  -3063072.48444  23841538.9144   23841544.6804
      2591.5634       2019.3994
 98  6 26 19 47  0.0010000  0  9G 5G 6G10G13G17G30G22G26G23
  11044578.48442   8444149.21542  24775155.4034   24775161.5214
     -4276.9534      -3332.6914
  -1962292.48546  -1489369.84646  20603482.2864   20603485.8494
        49.2344         38.3644
   7612581.09846   5872276.13245  22758909.2164   22758914.1614
     -3528.0164      -2749.1034
   1682493.51042   1329049.67141  24974240.8724   24974244.5524
     -1538.6414      -1198.9414
  -3617931.07846  -2767432.15146  21852808.1384   21852812.6384
       833.1254        649.1884
   8483134.66146   6541306.18045  22680228.6384   22680232.1774
     -3805.7034      -2965.4834
   -240388.54143    -90208.60642  24758848.0364   24758855.5524
      1614.4694       1258.0284
  -5086962.49244  -3818350.33543  23456866.2784   23456871.7394
      1832.5784       1427.9834
  -4197825.46244  -3093343.56543  23834145.7474   23834151.7714
      2587.9224       2016.5634
 98  6 26 19 47 15.0010000  0  9G 5G 6G10G13G17G30G22G26G23
  11108730.86342   8494138.05142  24787361.9664   24787368.9784
     -4276.6094      -3332.4234
  -1962980.46746  -1489905.93446  20603351.7314   20603355.1774
        42.5634         33.1664
   7665540.35846   5913543.06845  22768987.4744   22768992.8414
     -3533.1414      -2753.0974
   1705635.51442   1347082.32441  24978645.4424   24978650.3644
     -1546.8594      -1205.3454
  -3630401.15046  -2777149.07846  21850435.2004   21850439.6424
       829.6254        646.4614
   8540256.26246   6585816.48245  22691098.9424   22691102.7864
     -3810.4694      -2969.1964
   -264550.59343   -109036.13742  24754250.7394   24754255.4154
      1607.1414       1252.3174
  -5114422.16345  -3839747.41343  23451640.5284   23451644.5364
      1828.6254       1424.9034
  -4236617.16945  -3123570.80644  23826764.7864   23826770.4234
      2584.4064       2013.8234
 98  6 26 19 47 30.0010000  0  9G 5G 6G10G13G17G30G22G26G23
  11172877.83242   8544122.51942  24799570.2244   24799576.5284
     -4276.3284      -3332.2044
  -1963568.94346  -1490364.48246  20603239.2244   20603242.8104
        35.8914         27.9674
   7718575.75746   5954869.34345  22779079.5364   22779084.9744
     -3538.2344      -2757.0664
   1728901.05942   1365211.37441  24983072.7784   24983077.2084
     -1555.2344      -1211.8714
  -3642818.63346  -2786825.03846  21848071.9114   21848076.2004
       826.0164        643.6494
   8597448.77246   6630382.03845  22701982.1614   22701986.0634
     -3815.1414      -2972.8374
   -288601.08142   -127776.76842  24749674.0364   24749677.0954
      1599.5164       1246.3764
  -5141820.36445  -3861096.63843  23446427.5834   23446432.7284
      1824.4064       1421.6154
  -4275357.54144  -3153758.06543  23819391.5674   23819396.4894
      2580.9844       2011.1574
 98  6 26 19 47 45.0010000  0  9G 5G 6G10G13G17G30G22G26G23
  11237018.19342   8594101.99242  24811775.9274   24811783.1264
     -4275.7664      -3331.7654
  -1964059.78846  -1490746.95746  20603146.0134   20603149.5404
        29.4844         22.9754
   7771685.91146   5996253.86545  22789186.4354   22789191.7784
     -3543.2344      -2760.9624
   1752290.90742   1383437.23241  24987523.7314   24987536.3924
     -1563.5164      -1218.3244
  -3655184.30746  -2796460.60846  21845719.0054   21845723.6694
       822.6564        641.0314
   8654707.98846   6674999.56745  22712878.3644   22712881.9974
     -3819.4694      -2976.2094
   -312539.59342   -146430.11342  24745117.8564   24745125.8764
      1592.1564       1240.6414
  -5169155.64445  -3882396.83744  23441225.4114   23441230.4034
      1820.2034       1418.3404
  -4314048.88245  -3183907.10744  23812029.6614   23812034.8764
      2577.7034       2008.6004
 98  6 26 19 48  0.0010000  0  9G 5G 6G10G13G17G30G22G26G23
  11301146.97543   8644072.37642  24823979.1854   24823985.3964
     -4274.8594      -3331.0594
  -1964455.56946  -1491055.35646  20603070.4814   20603074.1264
        23.1724         18.0564
   7824870.21946   6037696.18145  22799306.7864   22799311.9544
     -3548.1564      -2764.7974
   1775804.72342   1401759.57941  24991997.8804   24992005.3494
     -1571.7974      -1224.7774
  -3667500.53946  -2806057.67046  21843375.0754   21843379.8104
       819.3914        638.4864
   8712029.58746   6719665.71945  22723786.4974   22723790.4354
     -3823.4844      -2979.3384
   -336367.26142   -164997.10341  24740584.0754   24740592.7984
      1584.7504       1234.8704
  -5196426.67745  -3903646.96143  23436035.5524   23436040.6964
      1815.8284       1414.9314
  -4352689.41944  -3214016.56144  23804676.2394   23804682.3214
      2574.2194       2005.8854
 98  6 26 19 48 15.0010000  0  9G 5G 6G10G13G17G30G22G26G23
  11365266.98643   8694035.97842  24836180.5054   24836186.9744
     -4274.3594      -3330.6704
  -1964752.01546  -1491286.35346  20603014.2244   20603017.8454
        16.5004         12.8574
   7878132.58046   6079199.29745  22809442.2004   22809447.2634
     -3553.3124      -2768.8154
   1799448.60442   1420183.42041  24996496.7864   24996503.3604
     -1580.6414      -1231.6684
  -3679763.46146  -2815613.18146  21841041.6854   21841046.5134
       815.8594        635.7354
   8769415.71246   6764382.14145  22734706.4274   22734711.0324
     -3827.8914      -2982.7724
   -360080.33742   -183474.79342  24736071.4424   24736077.6304
      1577.1884       1228.9774
  -5223625.79645  -3924841.03044  23430860.1464   23430865.8764
      1810.9224       1411.1084
  -4391272.77145  -3244081.46443  23797334.3414   23797339.7784
      2570.4064       2002.9144
 98  6 26 19 48 30.0010000  0  9G 5G 6G10G13G17G30G22G26G23
  11429379.36343   8743993.63742  24848380.8414   24848386.8884
     -4274.0784      -3330.4504
  -1964949.39646  -1491440.15246  20602976.8254   20602980.4814
         9.6884          7.5494
   7931471.09046   6120761.75845  22819591.9664   22819597.4504
     -3558.6414      -2772.9674
   1823225.20442   1438710.66541  25001022.2244   25001027.9314
     -1589.7194      -1238.7424
  -3691974.30246  -2825128.11346  21838717.7944   21838722.3764
       812.0944        632.8004
   8826868.23246   6809150.30645  22745639.3884   22745642.7284
     -3832.6414      -2986.4734
   -383682.68442   -201866.23342  24731580.5994   24731580.9384
      1569.6254       1223.0844
  -5250753.71645  -3945979.64344  23425698.2474   23425703.6854
      1805.9694       1407.2484
  -4429800.47145  -3274103.02244  23790002.5834   23790008.7474
      2566.4694       1999.8464
 98  6 26 19 48 45.0010000  0  9G 5G 6G10G13G17G30G22G26G23
  11493486.74143   8793947.35542  24860579.9424   24860583.9504
     -4273.6874      -3330.1464
  -1965045.49046  -1491515.02946  20602958.5444   20602962.4354
         2.9534          2.3014
   7984889.03346   6162386.11345  22829757.1924   22829762.3024
     -3563.8754      -2777.0454
   1847138.08843   1457344.09541  25005572.4584   25005573.7944
     -1598.7814      -1245.8044
  -3704129.34846  -2834599.57346  21836404.6464   21836409.4274
       808.5004        630.0004
   8884390.70246   6853972.97145  22756585.4974   22756589.7044
     -3837.1564      -2989.9924
   -407173.42243   -220170.63542  24727109.8724   24727114.0794
      1562.3914       1217.4474
  -5277806.62445  -3967059.80244  23420549.6304   23420553.5914
      1801.0004       1403.3774
  -4468270.34845  -3304079.44744  23782682.0994   23782688.4744
      2562.8134       1996.9974
 98  6 26 19 49  0.0010000  0  9G 5G 6G10G13G17G30G22G26G23
  11557585.93543   8843894.79941  24872778.3964   24872782.9314
     -4272.9534      -3329.5744
  -1965041.82646  -1491512.17346  20602959.0834   20602962.8334
        -3.5474         -2.7644
   8038383.54246   6204070.13745  22839936.9424   22839942.1924
     -3568.8444      -2780.9174
   1871184.38142   1476081.48941  25010148.1064   25010151.4584
     -1607.4694      -1252.5734
  -3716233.99846  -2844031.75946  21834101.7784   21834106.4194
       805.3444        627.5414
   8941977.52546   6898845.78245  22767544.3024   22767548.3684
     -3841.1724      -2993.1214
   -430559.83543   -238393.81842  24722659.8334   24722665.0954
      1555.7504       1212.2734
  -5304789.17245  -3988085.13644  23415415.4354   23415419.7714
      1796.5474       1399.9074
  -4506691.00345  -3334017.61244  23775370.8174   23775375.7744
      2559.8134       1994.6594
 98  6 26 19 49 15.0010000  0  9G 5G 6G10G13G17G30G22G26G23
  11621676.04643   8893835.10041  24884973.7784   24884979.5794
     -4272.7034      -3329.3794
  -1964938.97446  -1491432.02346  20602978.6464   20602982.0564
       -10.5004         -8.1824
   8091955.13246   6245814.22345  22850131.2394   22850136.1264
     -3574.3124      -2785.1794
   1895360.40442   1494919.79042  25014747.9424   25014750.5564
     -1616.2034      -1259.3794
  -3728287.98746  -2853424.47146  21831807.5914   21831812.3024
       801.5634        624.5944
   8999627.40646   6943767.75245  22778514.4034   22778518.6574
     -3845.7344      -2996.6764
   -453847.03743   -256539.67042  24718227.9814   24718232.8684
      1548.9694       1206.9894
  -5331701.02845  -4009055.38445  23410293.7784   23410299.6034
      1791.3754       1395.8774
  -4545063.65645  -3363918.31844  23768068.4194   23768074.3254
      2556.2664       1991.8954
 98  6 26 19 49 30.0010000  0  9G 5G 6G10G13G17G30G22G26G23
  11685763.39042   8943773.17741  24897168.9194   24897175.1884
     -4272.5314      -3329.2454
  -1964730.15146  -1491269.30346  20603018.6144   20603022.2594
       -17.6094        -13.7224
   8145607.90146   6287621.57145  22860341.0524   22860346.5714
     -3579.6724      -2789.3554
   1919665.93643   1513859.28141  25019373.6064   25019378.9744
     -1624.7974      -1266.0754
  -3740285.56346  -2862773.22346  21829524.7784   21829529.1034
       797.7974        621.6604
   9057345.09146   6988742.52945  22789497.5364   22789502.1654
     -3850.1564      -3000.1224
   -477033.86643   -274607.28742  24713815.5604   24713821.4424
      1542.3284       1201.8144
  -5358532.48645  -4029962.98345  23405188.2314   23405193.3174
      1785.8444       1391.5674
  -4583382.31245  -3393776.94544  23760776.9974   23760782.4584
      2552.5784       1989.0224
 98  6 26 19 49 45.0010000  0  9G 5G 6G10G13G17G30G22G26G23
  11749847.70142   8993708.93641  24909364.5754   24909371.2084
     -4271.9224      -3328.7704
  -1964414.42546  -1491023.28246  20603078.7084   20603082.2474
       -24.3914        -19.0064
   8199341.01146   6329491.50645  22870566.1774   22870571.2634
     -3584.6564      -2793.2394
   1944099.63542   1532898.47141  25024023.5284   25024029.3174
     -1632.9374      -1272.4194
  -3752225.94246  -2872077.41046  21827252.4974   21827257.3604
       794.3594        618.9814
   9115126.82046   7033767.20845  22800493.2164   22800497.8924
     -3853.9694      -3003.0934
   -500122.26743   -292598.21142  24709422.2084   24709427.5994
      1536.2344       1197.0664
  -5385281.34545  -4050806.20644  23400098.1224   23400102.9854
      1780.7814       1387.6224
  -4621644.35245  -3423591.52144  23753496.3414   23753501.6034
      2549.1094       1986.3194
 98  6 26 19 50  0.0010000  0  9G 5G 6G10G13G17G30G22G26G23
  11813929.39241   9043642.71041  24921559.1614   24921564.8334
     -4271.9694      -3328.8074
  -1963990.65246  -1490693.06546  20603159.3174   20603163.1614
       -31.7814        -24.7654
   8253156.06146   6371425.30145  22880806.5754   22880811.7904
     -3590.3754      -2797.6954
   1968662.08643   1552038.07141  25028697.9504   25028704.5244
     -1641.7814      -1279.3104
  -3764107.78546  -2881335.97946  21824991.0674   21824995.8134
       790.1724        615.7184
   9172972.87546   7078842.03545  22811501.0134   22811505.3134
     -3858.5624      -3006.6724
   -523112.57543   -310512.73942  24705047.4584   24705050.0834
      1529.4384       1191.7694
  -5411947.29445  -4071584.83544  23395023.7004   23395028.5524
      1774.9694       1383.0934
  -4659847.16245  -3453359.88045  23746226.2084   23746233.1964
      2544.9064       1983.0444
 98  6 26 19 50 15.0010000  0  9G 5G 6G10G13G17G30G22G26G23
  11878007.72341   9093573.69541  24933752.5524   24933758.2714
     -4271.9224      -3328.7704
  -1963460.06446  -1490279.61746  20603260.0674   20603263.6424
       -39.0314        -30.4144
   8307052.46246   6413422.48045  22891063.0834   22891068.4744
     -3595.8754      -2801.9814
   1993353.80643   1571278.30841  25033397.1304   25033402.6034
     -1650.4844      -1286.0924
  -3775930.71246  -2890548.64746  21822741.6774   21822746.4584
       786.1564        612.5894
   9230885.33346   7123968.58745  22822521.2554   22822524.6884
     -3863.1414      -3010.2394
   -546004.90843   -328350.90842  24700691.1144   24700696.5634
      1522.8284       1186.6194
  -5438530.71245  -4092299.15344  23389964.9504   23389971.0444
      1769.5164       1378.8434
  -4697991.67345  -3483082.78343  23738967.6774   23738973.0444
      2540.9844       1979.9884
 98  6 26 19 50 30.0010000  0  9G 5G 6G10G13G17G30G22G26G23
  11942084.57341   9143503.66841  24945945.8254   24945952.8374
     -4271.8124      -3328.6854
  -1962821.78646  -1489782.25546  20603381.6854   20603385.3414
       -46.2034        -36.0024
   8361029.82046   6455482.74445  22901335.0364   22901340.5564
     -3601.2194      -2806.1444
   2018174.62542   1590619.22041  25038119.2714   25038121.9664
     -1659.1094      -1292.8124
  -3787693.91346  -2899714.77546  21820503.0834   21820507.8294
       782.1564        609.4724
   9288864.91046   7169147.43545  22833555.2634   22833560.3604
     -3867.5314      -3013.6614
   -568798.70643   -346112.32841  24696353.4894   24696358.8804
      1516.1564       1181.4204
  -5465034.69645  -4112951.58744  23384921.3414   23384927.1884
      1764.2504       1374.7404
  -4736078.92045  -3512761.16145  23731719.9504   23731724.6854
      2537.1564       1977.0054
 98  6 26 19 50 45.0010000  0  9G 5G 6G10G13G17G30G22G26G23
  12006160.12041   9193432.56041  24958138.7004   24958144.6064
     -4271.3754      -3328.3444
  -1962075.78346  -1489200.95246  20603523.5604   20603527.0634
       -53.0474        -41.3354
   8415088.28346   6497606.21645  22911621.8104   22911627.3534
     -3606.3124      -2810.1144
   2043124.80843   1610060.87141  25042867.3884   25042865.2204
     -1667.3754      -1299.2534
  -3799396.22746  -2908833.45146  21818276.3174   21818281.0404
       778.3914        606.5384
   9346908.61946   7214376.29845  22844600.2474   22844604.0914
     -3871.3444      -3016.6314
   -591488.45343   -363792.58741  24692035.4274   24692040.1854
      1509.3594       1176.1244
  -5491459.52145  -4133542.33544  23379892.3724   23379897.2354
      1759.2814       1370.8694
  -4774107.36544  -3542393.60944  23724482.4814   23724488.7864
      2533.4844       1974.1444
 98  6 26 19 51  0.0010000  0  9G 5G 6G10G13G17G30G22G26G23
  12070230.96541   9243357.84041  24970331.0914   24970337.8644
     -4271.0624      -3328.1014
  -1961224.35346  -1488537.49546  20603685.7164   20603689.3604
       -60.2034        -46.9124
   8469223.66446   6539789.60945  22921923.2634   22921928.4784
     -3611.4224      -2814.0954
   2068201.78242   1629601.39841  25047640.1304   25047643.9624
     -1675.8594      -1305.8644
  -3811039.90546  -2917906.44246  21816060.5364   21816065.3884
       774.4224        603.4464
   9405011.02846   7259650.85345  22855656.3334   22855661.2084
     -3875.3914      -3019.7854
   -614073.72742   -381391.51942  24687737.4814   24687743.1884
      1502.3284       1170.6454
  -5517807.79845  -4154073.39544  23374879.0524   23374884.8294
      1754.1724       1366.8874
  -4812077.44545  -3571980.64944  23717257.7084   23717261.6464
      2529.5004       1971.0394
 98  6 26 19 51 15.0010000  0  9G 5G 6G10G13G17G30G22G26G23
  12134294.34541   9293277.25142  24982522.6144   24982530.0134
     -4270.5944      -3327.7354
  -1960267.28146  -1487791.72446  20603867.9274   20603871.2204
       -67.2504        -52.4034
   8523434.05546   6582031.45945  22932239.0524   22932244.9114
     -3616.4534      -2818.0154
   2093404.32943   1649239.71241  25052435.2944   25052441.0364
     -1684.3444      -1312.4764
  -3822624.18446  -2926933.14546  21813856.1304   21813861.0634
       770.2344        600.1834
   9463175.29046   7304973.62645  22866725.0054   22866729.4704
     -3879.6874      -3023.1334
   -636552.71142   -398907.60241  24683460.7784   24683466.5094
      1495.0314       1164.9594
  -5544081.56745  -4174546.42644  23369878.9744   23369883.2864
      1749.1414       1362.9674
  -4849987.67044  -3601521.06745  23710043.4424   23710049.8064
      2525.2814       1967.7524
 98  6 26 19 51 30.0010000  0  9G 5G 6G10G13G17G30G22G26G23
  12198349.26642   9343190.09241  24994712.0674   24994720.7554
     -4270.0314      -3327.2974
  -1959208.26446  -1486966.51246  20604069.2634   20604072.7554
       -73.9534        -57.6264
   8577715.13946   6624328.39845  22942568.4814   22942573.7904
     -3621.0314      -2821.5834
   2118731.17543   1668974.91442  25057254.6694   25057258.5014
     -1692.6414      -1318.9414
  -3834147.32346  -2935912.21046  21811663.1924   21811668.1144
       766.1724        597.0174
   9521401.31146   7350344.52345  22877804.9504   22877809.1574
     -3883.7344      -3026.2874
   -658924.20842   -416339.89341  24679202.8724   24679209.2594
      1487.7664       1159.2984
  -5570281.53945  -4194961.94643  23364893.1694   23364898.4424
      1744.1724       1359.0954
  -4887836.85545  -3631013.81144  23702841.4034   23702846.7004
      2521.2974       1964.6474
 98  6 26 19 51 45.0010000  0  9G 5G 6G10G13G17G30G22G26G23
  12262396.95242   9393097.31341  25006899.2554   25006908.4704
     -4269.6724      -3327.0174
  -1958046.65146  -1486061.36446  20604290.4664   20604293.7354
       -80.9064        -63.0444
   8632067.07946   6666680.55245  22952911.3494   22952916.6344
     -3625.8754      -2825.3574
   2144187.29743   1688810.89641  25062099.9114   25062105.1144
     -1701.5474      -1325.8814
  -3845607.89046  -2944842.51446  21809482.3254   21809486.9894
       761.8594        593.6574
   9579690.11346   7395764.33145  22888897.5524   22888901.9354
     -3888.0944      -3029.6834
   -681182.62742   -433684.11641  24674966.3884   24674971.2284
      1479.9844       1153.2354
  -5596404.20045  -4215317.26444  23359922.4584   23359927.9314
      1738.8914       1354.9804
  -4925624.14145  -3660458.47844  23695649.7394   23695655.6464
      2517.0314       1961.3234
 98  6 26 19 52  0.0010000  0  8G 6G10G13G17G30G22G26G23
  -1956788.53246  -1485081.00646  20604529.9504   20604533.4784
       -87.1564        -67.9144
   8686484.22446   6709083.49545  22963266.8174   22963272.4194
     -3630.0944      -2828.6444
   2169771.28342   1708746.45141  25066967.1694   25066971.3764
     -1710.0314      -1332.4924
  -3857011.25546  -2953728.24246  21807312.1854   21807316.9194
       758.2814        590.8694
   9638037.44545   7441229.77345  22900000.4034   22900005.8174
     -3891.9224      -3032.6664
   -703331.35642   -450942.88442  24670751.8964   24670755.6344
      1472.8284       1147.6584
  -5622457.33245  -4235618.36743  23354964.7004   23354968.3334
      1734.5004       1351.5584
  -4963355.70445  -3689859.58145  23688470.2864   23688475.7474
      2513.5004       1958.5714
 98  6 26 19 52 15.0010000  0  8G 6G10G13G17G30G22G26G23
  -1955428.98146  -1484021.61446  20604788.4894   20604792.0524
       -93.6254        -72.9554
   8740972.69046   6751542.03345  22973635.6464   22973640.8604
     -3634.5164      -2832.0904
   2195490.62542   1728787.50641  25071861.8254   25071869.7864
     -1718.7034      -1339.2494
  -3868352.79746  -2962565.79946  21805154.0754   21805158.8924
       754.4694        587.8984
   9696450.72346   7486746.56045  22911115.7944   22911118.8534
     -3896.0164      -3035.8564
   -725364.50442   -468111.49042  24666559.4354   24666566.0914
      1465.4224       1141.8874
  -5648436.88645  -4255862.15444  23350020.6224   23350025.7674
      1729.9534       1348.0154
  -5001027.38844  -3719214.09443  23681301.0754   23681307.3924
      2509.8914       1955.7594
 98  6 26 19 52 30.0010000  0  8G 6G10G13G17G30G22G26G23
  -1953968.10646  -1482883.26546  20605066.2474   20605069.9274
      -100.2504        -78.1174
   8795529.87546   6794054.12045  22984017.0524   22984022.0794
     -3638.8594      -2835.4754
   2221341.49343   1748930.98641  25076781.8104   25076788.3024
     -1727.1254      -1345.8124
  -3879634.94146  -2971357.07946  21803007.3414   21803011.9354
       750.7194        584.9764
   9754927.15846   7532312.58845  22922244.1534   22922248.2674
     -3899.8444      -3038.8394
   -747282.24442   -485190.19942  24662388.2394   24662393.2084
      1457.8754       1136.0064
  -5674345.25345  -4276050.45344  23345091.1224   23345096.4424
      1725.4224       1344.4854
  -5038641.87645  -3748524.06644  23674143.1304   23674148.7554
      2506.3284       1952.9834
 98  6 26 19 52 45.0010000  0  8G 6G10G13G17G30G22G26G23
  -1952409.19446  -1481668.52346  20605363.2864   20605367.0604
      -107.5164        -83.7784
   8850150.08146   6836615.30245  22994411.3564   22994416.3374
     -3643.7974      -2839.3224
   2247317.34442   1769171.97641  25081723.7314   25081731.3994
     -1736.2344      -1352.9104
  -3890862.05846  -2980105.46646  21800870.8884   21800875.3644
       746.3594        581.5794
   9813459.03146   7577921.80445  22933382.3564   22933387.1144
     -3904.3284      -3042.3344
   -769087.65342   -502181.41842  24658238.7784   24658242.5174
      1449.6414       1129.5904
  -5700185.15745  -4296185.42844  23340173.3024   23340178.3764
      1719.9844       1340.2484
  -5076205.05745  -3777793.98744  23666995.4744   23667000.3134
      2502.1884       1949.7564
 98  6 26 19 53  0.0010000  0  8G 6G10G13G17G30G22G26G23
  -1950748.92046  -1480374.80846  20605678.9894   20605682.7744
      -113.8124        -88.6854
   8904837.16346   6879228.59845  23004817.9584   23004823.8064
     -3647.7344      -2842.3904
   2273422.60642   1789513.68241  25086690.9974   25086692.5564
     -1744.3914      -1359.2654
  -3902031.87346  -2988809.20546  21798745.3884   21798750.1224
       743.0634        579.0104
   9872052.10846   7623578.73245  22944531.9894   22944535.7634
     -3908.0474      -3045.2314
   -790779.50843   -519084.11842  24654112.0134   24654118.2354
      1442.7814       1124.2454
  -5725950.42745  -4316262.23944  23335270.4114   23335275.5094
      1715.4224       1336.6924
  -5113713.83645  -3807021.60544  23659857.5994   23659863.3414
      2499.0784       1947.3344
 98  6 26 19 53 15.0010000  0  8G 6G10G13G17G30G22G26G23
  -1948987.00446  -1479001.87946  20606014.4814   20606017.9504
      -120.7344        -94.0794
   8959590.01446   6921893.13045  23015236.8104   23015242.0014
     -3652.3444      -2845.9824
   2299655.46842   1809954.87541  25091684.4814   25091688.4314
     -1753.0004      -1365.9744
  -3913146.26046  -2997469.74846  21796630.1774   21796634.8994
       739.2034        576.0024
   9930708.63446   7669285.08045  22955693.9584   22955697.6144
     -3912.5164      -3048.7134
   -812364.15143   -535903.29042  24650004.7554   24650011.2004
      1435.5164       1118.5844
  -5751639.97845  -4336280.03844  23330381.8564   23330386.9314
      1710.2194       1332.6384
  -5151170.64845  -3836208.64344  23652729.7474   23652735.6184
      2495.5004       1944.5454
 98  6 26 19 53 30.0010000  0  8G 6G10G13G17G30G22G26G23
  -1947120.42646  -1477547.40646  20606369.7164   20606373.2904
      -128.0784        -99.8014
   9014415.01346   6964613.91045  23025669.7474   23025674.6104
     -3657.5624      -2850.0494
   2326020.97243   1830499.40042  25096700.8884   25096701.2044
     -1762.3124      -1373.2314
  -3924200.10746  -3006083.13046  21794526.5054   21794531.3454
       734.7344        572.5204
   9989432.91846   7715044.21545  22966869.1774   22966874.1344
     -3917.2344      -3052.3904
   -833837.68544   -552635.90743  24645917.8964   24645923.0174
      1427.7504       1112.5324
  -5777247.61945  -4356234.02544  23325509.0604   23325512.0364
      1704.1564       1327.9144
  -5188571.45445  -3865352.06844  23645612.9194   23645618.4974
      2491.2974       1941.2704
 98  6 26 19 53 45.0010000  0  8G 6G10G13G17G30G22G26G23
  -1945153.99546  -1476015.11846  20606743.7314   20606747.1064
      -134.5314       -104.8304
   9069307.62146   7007387.35745  23036115.5834   23036120.5174
     -3661.8444      -2853.3854
   2352516.85643   1851145.60342  25101743.2474   25101748.5914
     -1770.8124      -1379.8544
  -3935200.05546  -3014654.51146  21792433.4744   21792438.3604
       731.6414        570.1104
  10048215.83245   7760849.07145  22978055.0364   22978059.7944
     -3920.8124      -3055.1794
   -855205.93344   -569286.47543  24641851.8024   24641856.6884
      1421.0004       1107.2734
  -5802774.57945  -4376125.13444  23320651.3724   23320654.9584
      1699.0944       1323.9694
  -5225918.99945  -3894454.03044  23638505.2554   23638511.1734
      2488.0164       1938.7134
 98  6 26 19 54  0.0010000  0  8G 6G10G13G17G30G22G26G23
  -1943084.52346  -1474402.54946  20607137.5134   20607141.0524
      -141.4844       -110.2484
   9124268.85746   7050214.28145  23046574.5524   23046580.0014
     -3666.4064      -2856.9404
   2379143.75243   1871893.78942  25106809.2944   25106813.1264
     -1779.5474      -1386.6604
  -3946150.29546  -3023187.15246  21790349.5364   21790354.2474
       728.2814        567.4924
  10107056.30346   7806698.74545  22989251.8564   22989255.4194
     -3924.6564      -3058.1744
   -876469.36244   -585855.33443  24637806.1384   24637811.6104
      1414.0634       1101.8674
  -5828223.62345  -4395955.51744  23315808.7244   23315812.3214
      1694.0634       1320.0494
  -5263212.55645  -3923513.87545  23631408.7394   23631414.2714
      2484.3444       1935.8524
 98  6 26 19 54 15.0010000  0  8G 6G10G13G17G30G22G26G23
  -1940908.76846  -1472707.15346  20607551.8334   20607555.3024
      -148.4374       -115.6664
   9179301.20645   7093096.61645  23057046.8724   23057052.3214
     -3671.0624      -2860.5684
   2405902.94443   1892745.08941  25111901.7084   25111908.1424
     -1788.1094      -1393.3324
  -3957048.84646  -3031679.51946  21788275.9974   21788280.2514
       725.0474        564.9724
  10165955.14646   7852593.90545  23000460.0994   23000464.5994
     -3928.3124      -3061.0234
   -897627.98644   -602342.55143  24633779.2474   24633782.6574
      1407.2974       1096.5954
  -5853595.45145  -4415725.77344  23310980.7944   23310986.3724
      1688.9224       1316.0434
  -5300448.42045  -3952528.81044  23624323.1694   23624328.6184
      2480.6094       1932.9424
 98  6 26 19 54 30.0010000  0  8G 6G10G13G17G30G22G26G23
  -1938626.95746  -1470929.11746  20607985.7784   20607989.0954
      -155.1564       -120.9014
   9234403.51446   7136033.46845  23067532.3964   23067537.0604
     -3675.2504      -2863.8314
   2432791.39643   1913697.13841  25117018.5284   25117021.7164
     -1796.3124      -1399.7244
  -3967897.71846  -3040133.18246  21786211.4664   21786216.2124
       722.1414        562.7074
  10224908.50346   7898531.55345  23011678.5364   23011682.8374
     -3931.4374      -3063.4584
   -918683.91643   -618749.76542  24629772.2314   24629777.6694
      1400.7974       1091.5304
  -5878887.68145  -4435433.98144  23306167.7784   23306172.6304
      1683.9694       1312.1834
  -5337626.67545  -3981498.81945  23617248.6304   23617253.5994
      2477.0944       1930.2034
 98  6 26 19 54 45.0010000  0  8G 6G10G13G17G30G22G26G23
  -1936238.59546  -1469068.05246  20608440.4664   20608443.8294
      -162.5164       -126.6364
   9289574.64346   7179023.94145  23078031.3104   23078036.2084
     -3680.0944      -2867.6064
   2459809.17442   1934749.95441  25122159.6534   25122167.8604
     -1805.3284      -1406.7494
  -3978696.16146  -3048547.54246  21784156.3254   21784161.0364
       718.3914        559.7854
  10283915.20946   7944510.77545  23022906.9504   23022910.4074
     -3935.4064      -3066.5504
   -939635.85443   -635075.91242  24625784.7634   24625791.3374
      1393.6094       1085.9294
  -5904097.37245  -4455077.87145  23301370.3494   23301375.3294
      1678.1254       1307.6304
  -5374744.93445  -4010422.06144  23610184.7004   23610190.2434
      2472.7504       1926.8184
 98  6 26 19 55  0.0010000  0  8G 6G10G13G17G30G22G26G23
  -1933744.34246  -1467124.47446  20608915.0914   20608918.5364
      -170.0164       -132.4804
   9344813.87645   7222067.49345  23088542.8644   23088547.9384
     -3685.1094      -2871.5144
   2486959.90243   1955906.31041  25127326.6224   25127332.4354
     -1814.6724      -1414.0304
  -3989442.59746  -3056921.38346  21782111.4744   21782116.3964
       714.5004        556.7534
  10342979.60346   7990534.91645  23034146.9814   23034151.2944
     -3939.7504      -3069.9354
   -960485.62743   -651322.48542  24621817.3334   24621825.0834
      1386.4534       1080.3534
  -5929224.21745  -4474657.21144  23296588.6924   23296594.4464
      1672.1884       1303.0034
  -5411800.55245  -4039296.55645  23603133.5284   23603138.9194
      2468.0634       1923.1664
 98  6 26 19 55 15.0010000  0  8G 6G10G13G17G30G22G26G23
  -1931142.42446  -1465097.00846  20609410.0054   20609413.4034
      -176.8914       -137.8374
   9400122.92745   7265165.45745  23099067.9584   23099073.4074
     -3689.3754      -2874.8384
   2514244.07043   1977166.75441  25132518.6224   25132525.6104
     -1823.1414      -1420.6294
  -4000134.93346  -3065253.06546  21780076.8254   21780081.4894
       711.1414        554.1364
  10402102.21045   8036604.46645  23045397.5754   23045402.0174
     -3943.2344      -3072.6504
   -981233.89642   -667489.96842  24617868.7474   24617875.3684
      1379.9384       1075.2764
  -5954267.47545  -4494171.39344  23291822.7554   23291828.5214
      1666.9694       1298.9374
  -5448791.81845  -4068120.83445  23596093.9274   23596100.0214
      2464.1414       1920.1104
 98  6 26 19 55 30.0010000  0  8G 6G10G13G17G30G22G26G23
  -1928435.12946  -1462987.42846  20609925.3334   20609928.6614
      -184.1094       -143.4624
   9455498.00145   7308314.83145  23109605.1064   23109610.4854
     -3693.9534      -2878.4054
   2541657.46443   1998527.76142  25137735.4894   25137741.1614
     -1832.0164      -1427.5454
  -4010773.25646  -3073542.66246  21778052.4504   21778057.0674
       707.2814        551.1284
  10461279.61346   8082716.67845  23056658.5604   23056661.5014
     -3947.1414      -3075.6944
  -1001878.67942   -683576.77442  24613940.6924   24613945.1814
      1372.6414       1069.5904
  -5979232.04645  -4513624.29744  23287072.3414   23287076.7124
      1661.5784       1294.7364
  -5485720.95545  -4096896.76445  23589067.0134   23589070.8684
      2459.7194       1916.6644
 98  6 26 19 55 45.0010000  0  8G 6G10G13G17G30G22G26G23
  -1925621.59446  -1460795.05946  20610460.7864   20610464.3374
      -190.9694       -148.8074
   9510936.72745   7351513.84045  23120154.7784   23120160.8964
     -3697.7814      -2881.3884
   2569201.43543   2019990.56041  25142977.5444   25142981.6224
     -1840.3914      -1434.0714
  -4021357.23946  -3081789.90846  21776038.0754   21776042.7634
       704.0634        548.6204
  10520511.66445   8128871.50245  23067930.1614   23067936.1034
     -3950.3754      -3078.2144
  -1022417.18342   -699580.73241  24610032.4664   24610039.3964
      1365.8914       1064.3304
  -6004118.46945  -4533016.29045  23282336.3884   23282341.4384
      1656.7664       1290.9864
  -5522586.47545  -4125623.10545  23582051.4354   23582057.0954
      2455.7814       1913.5964
 98  6 26 19 56  0.0010000  0  8G 6G10G13G17G30G22G26G23
  -1922696.02046  -1458515.39546  20611017.2314   20611020.6654
      -198.6254       -154.7734
   9566440.67645   7394763.65045  23130716.7394   23130722.6464
     -3702.2664      -2884.8824
   2596877.39843   2041556.33842  25148242.8024   25148248.4744
     -1849.2194      -1440.9504
  -4031886.66646  -3089994.65346  21774034.7244   21774039.2824
       700.2504        545.6494
  10579801.98545   8175071.70445  23079212.4744   23079216.1654
     -3954.5164      -3081.4414
  -1042846.07342   -715499.37642  24606144.3964   24606152.1814
      1358.4064       1058.4984
  -6028926.52645  -4552347.20244  23277615.6464   23277620.9074
      1651.4384       1286.8344
  -5559385.80945  -4154297.83445  23575049.6144   23575054.8414
      2451.3284       1910.1264
 98  6 26 19 56 15.0010000  0  8G 6G10G13G17G30G22G26G23
  -1919663.87846  -1456152.68246  20611594.5284   20611598.2204
      -205.3754       -160.0324
   9622004.26445   7438059.93745  23141290.3644   23141295.8134
     -3705.9694      -2887.7684
   2624677.38443   2063218.62542  25153533.8024   25153538.2674
     -1857.2034      -1447.1714
  -4042362.46346  -3098157.60546  21772041.2944   21772046.0874
       696.7814        542.9464
  10639146.51646   8221314.18945  23090505.3564   23090508.9194
     -3957.8284      -3084.0224
  -1063168.85342   -731335.27742  24602277.6534   24602282.8334
      1351.5634       1053.1664
  -6053660.78345  -4571620.61945  23272908.8564   23272914.3534
      1646.7034       1283.1454
  -5596126.05545  -4182926.58045  23568057.2634   23568063.3104
      2447.6564       1907.2654
 98  6 26 19 56 30.0010000  0  8G 6G10G13G17G30G22G26G23
  -1916523.29046  -1453705.47246  20612191.9584   20612195.4974
      -213.2504       -166.1694
   9677632.19945   7481406.36945  23151875.8174   23151881.1734
     -3710.9694      -2891.6644
   2652604.31043   2084979.83241  25158848.0524   25158852.3294
     -1866.2814      -1454.2454
  -4052778.53146  -3106274.01346  21770058.9894   21770063.8294
       692.1414        539.3304
  10698548.50646   8267601.39445  23101809.5054   23101814.0524
     -3962.3124      -3087.5164
  -1083380.69343   -747084.72642  24598431.6774   24598438.2634
      1343.4694       1046.8594
  -6078314.90445  -4590831.60645  23268217.3804   23268221.9854
      1640.6724       1278.4464
  -5632804.07245  -4211506.77645  23561077.3174   23561082.7904
      2442.9064       1903.5634
 98  6 26 19 56 45.0010000  0  8G 6G10G13G17G30G22G26G23
  -1913275.12746  -1451174.43846  20612810.2084   20612813.6304
      -219.9694       -171.4044
   9733323.03845   7524801.80645  23162473.4744   23162479.3334
     -3714.6564      -2894.5374
   2680656.37743   2106838.61141  25164186.4814   25164192.2824
     -1874.1564      -1460.3814
  -4063134.22346  -3114343.37746  21768088.3964   21768093.1064
       688.4694        536.4694
  10758007.95245   8313933.42545  23113124.0284   23113128.6694
     -3965.7504      -3090.1954
  -1103480.43743   -762746.84942  24594606.7944   24594613.7824
      1336.4064       1041.3564
  -6102891.09845  -4609981.83645  23263540.7394   23263545.1344
      1636.0314       1274.8304
  -5669421.57645  -4240039.87445  23554109.4814   23554115.4114
      2439.2974       1900.7514
 98  6 26 19 57  0.0010000  0  8G 6G10G13G17G30G22G26G23
  -1909920.55346  -1448560.47946  20613448.4974   20613452.0954
      -227.2344       -177.0664
   9789076.19245   7568245.81645  23173083.3174   23173088.3564
     -3718.9534      -2897.8864
   2708832.56043   2128794.07042  25169548.2314   25169553.2824
     -1882.5624      -1466.9324
  -4073429.06446  -3122365.31746  21766129.4664   21766134.0134
       684.3594        533.2674
  10817524.83446   8360310.17445  23124449.6774   23124453.5794
     -3969.6414      -3093.2264
  -1123468.67243   -778322.08842  24590803.1224   24590807.4354
      1328.8284       1035.4504
  -6127393.01345  -4629074.20545  23258877.9664   23258883.9664
      1631.0004       1270.9094
  -5705979.55045  -4268526.53545  23547152.7164   23547158.6924
      2435.2814       1897.6224
 98  6 26 19 57 15.0010000  0  8G 6G10G13G17G30G22G26G23
  -1906458.32046  -1445862.63646  20614107.2004   20614110.6224
      -234.3124       -182.5814
   9844892.11445   7611738.72845  23183704.5214   23183710.2284
     -3723.0624      -2901.0884
   2737131.78043   2150845.38042  25174932.8494   25174936.9034
     -1890.5314      -1473.1414
  -4083667.10246  -3130343.00646  21764181.1614   21764185.7554
       680.7974        530.4914
  10877094.72245   8406728.24145  23135785.5834   23135790.6344
     -3972.8124      -3095.6984
  -1143344.92943   -793810.03042  24587020.7084   24587026.2744
      1321.4384       1029.6924
  -6151821.80245  -4648109.57845  23254229.9114   23254236.2164
      1626.1724       1267.1474
  -5742481.87345  -4296969.88145  23540206.5604   23540212.9114
      2431.7664       1894.8824
 98  6 26 19 57 30.0010000  0  8G 6G10G13G17G30G22G26G23
  -1902888.53546  -1443080.97946  20614786.6854   20614790.3884
      -241.5474       -188.2184
   9900771.79345   7655281.30245  23194337.9114   23194343.4784
     -3727.4374      -2904.4974
   2765552.06243   2172991.00042  25180341.3724   25180344.7004
     -1898.7814      -1479.5704
  -4093849.38946  -3138277.25246  21762243.5214   21762247.8804
       677.0004        527.5324
  10936712.44845   8453183.56245  23147130.7714   23147134.6264
     -3976.1564      -3098.3044
  -1163107.52143   -809209.48542  24583259.8104   24583263.2784
      1313.6724       1023.6404
  -6176175.03645  -4667086.11645  23249595.4274   23249601.6264
      1621.0164       1263.1294
  -5778928.55545  -4325369.83344  23533271.0054   23533276.8064
      2427.8284       1891.8144
 98  6 26 19 57 45.0010000  0  8G 6G10G13G17G30G22G26G23
  -1899213.69646  -1440217.46846  20615485.6534   20615489.2394
      -248.4844       -193.6244
   9956714.03245   7698872.64545  23204983.7004   23204989.4544
     -3731.5784      -2907.7234
   2794093.19543   2195230.88842  25185772.6224   25185775.5874
     -1906.7504      -1485.7794
  -4103980.33746  -3146171.48546  21760315.6694   21760320.1344
       673.7504        525.0004
  10996376.30346   8499674.85645  23158483.9814   23158488.7514
     -3979.0474      -3100.5564
  -1182757.90743   -824521.42443  24579519.9274   24579524.4974
      1306.3914       1017.9674
  -6200454.03245  -4686004.78745  23244975.5134   23244980.8454
      1616.0634       1259.2694
  -5815318.09845  -4353725.27545  23526345.9664   23526351.5794
      2424.0474       1888.8684
 98  6 26 19 58  0.0010000  0  8G 6G10G13G17G30G22G26G23
  -1895430.51846  -1437269.54246  20616206.1464   20616209.8844
      -255.9064       -199.4074
  10012722.65845   7742515.72545  23215641.6694   23215647.4814
     -3736.2814      -2911.3884
   2822757.49843   2217566.64842  25191226.8724   25191229.6144
     -1915.1254      -1492.3054
  -4114058.70946  -3154024.75946  21758397.8174   21758401.9894
       670.0784        522.1394
  11056086.09945   8546201.92945  23169846.7864   23169851.7554
     -3982.2664      -3103.0644
  -1202296.66543   -839746.40842  24575801.8104   24575807.5874
      1298.7194       1011.9894
  -6224652.95245  -4704861.06345  23240369.9354   23240374.3764
      1610.4534       1254.8994
  -5851647.22845  -4382033.63845  23519433.0364   23519438.9784
      2419.8284       1885.5804
 98  6 26 19 58 15.0010000  0  8G 6G10G13G17G30G22G26G23
  -1891538.18946  -1434236.55646  20616946.6924   20616950.2904
      -263.0784       -204.9964
  10068802.18245   7786214.03745  23226312.9974   23226318.3174
     -3740.9694      -2915.0414
   2851545.44643   2239998.86542  25196705.0674   25196711.0914
     -1923.3594      -1498.7224
  -4124082.57946  -3161835.55946  21756490.4114   21756494.6184
       666.3914        519.2654
  11115843.03846   8592765.74345  23181218.2244   23181222.7354
     -3985.2974      -3105.4264
  -1221719.96943   -854881.37142  24572105.7634   24572111.3764
      1291.0474       1006.0114
  -6248767.52145  -4723651.60845  23235781.4504   23235786.1614
      1604.7504       1250.4554
  -5887914.66745  -4410293.94845  23512531.3884   23512537.7044
      2415.8134       1882.4514
 98  6 26 19 58 30.0010000  0  8G 6G10G13G17G30G22G26G23
  -1887538.32346  -1431119.77346  20617707.7084   20617711.3534
      -270.3914       -210.6944
  10124951.82145   7829966.98245  23236998.6064   23237004.5364
     -3745.7814      -2918.7914
   2880458.99943   2262528.87842  25202207.0604   25202213.7284
     -1931.9064      -1505.3814
  -4134051.98246  -3169603.91346  21754593.3724   21754598.0714
       662.8134        516.4774
  11175644.40045   8639364.15145  23192598.3724   23192603.8684
     -3988.3444      -3107.8004
  -1241028.40243   -869926.89342  24568432.0834   24568438.5634
      1283.3444       1000.0084
  -6272796.87945  -4742375.74545  23231209.1384   23231214.8804
      1599.0164       1245.9864
  -5924120.72245  -4438506.39145  23505642.0364   23505648.4354
      2411.5474       1879.1274
 98  6 26 19 58 45.0010000  0  7G 6G10G17G30G22G26G23
  -1883430.24446  -1427918.67146  20618489.7244   20618493.4624
      -277.1564       -215.9664
  10181170.79545   7873773.96445  23247696.4814   23247702.1774
     -3749.8914      -2921.9934
  -4143972.51646  -3177334.19446  21752705.6064   21752710.1774
       660.0944        514.3594
  11235489.20245   8685996.46145  23203985.7004   23203989.4974
     -3990.8124      -3109.7244
  -1260224.56743   -884884.95542  24564779.4354   24564785.9034
      1276.3134        994.5294
  -6296740.96445  -4761033.45945  23226652.4424   23226657.4704
      1593.7034       1241.8474
  -5960265.43045  -4466671.05245  23498763.3334   23498769.0174
      2407.8914       1876.2784
 98  6 26 19 59  0.0010000  0  7G 6G10G17G30G22G26G23
  -1879213.05046  -1424632.54646  20619291.7864   20619295.5364
      -285.2504       -222.2734
  10237457.43445   7917633.66045  23258407.5364   23258413.6064
     -3755.1094      -2926.0594
  -4153845.01846  -3185027.04546  21750826.9034   21750831.5794
       656.1724        511.3034
  11295378.26246   8732663.18445  23215383.0754   23215387.4464
     -3994.4844      -3112.5854
  -1279307.09243   -899754.39642  24561147.2164   24561152.5014
      1267.9384        988.0034
  -6320597.38645  -4779622.85645  23222112.8884   23222117.5994
      1586.9694       1236.5994
  -5996347.10145  -4494786.61145  23491897.3644   23491902.9074
      2402.9224       1872.4074
 98  6 26 19 59 15.0010000  0  7G 6G10G17G30G22G26G23
  -1874884.98246  -1421260.02746  20620115.5364   20620118.7824
      -292.0944       -227.6064
  10293811.45345   7961545.87445  23269131.2554   23269137.2674
     -3758.9694      -2929.0674
  -4163671.59146  -3192684.10946  21748956.7474   21748961.7514
       653.7504        509.4164
  11355312.46645   8779365.15545  23226787.2864   23226791.8924
     -3996.9844      -3114.5334
  -1298274.75043   -914534.35942  24557537.7864   24557546.5674
      1260.8754        982.5004
  -6344362.03745  -4798140.74245  23217589.6064   23217595.5834
      1581.3914       1232.2524
  -6032365.37645  -4522852.75145  23485043.3964   23485048.7394
      2399.2344       1869.5334
 98  6 26 19 59 30.0010000  0  7G 6G10G17G30G22G26G23
  -1870444.21246  -1417799.68346  20620960.8254   20620964.1654
      -300.0164       -233.7784
  10350232.18845   8005510.06845  23279868.0054   23279873.9584
     -3763.7974      -2932.8294
  -4173450.16346  -3200303.77146  21747096.1614   21747100.8494
       649.9694        506.4694
  11415295.13446   8826104.82745  23238202.0524   23238206.0364
     -4000.7504      -3117.4684
  -1317127.89443   -929225.08342  24553950.4744   24553956.1924
      1252.8594        976.2544
  -6368031.58645  -4816584.51445  23213085.7714   23213091.5714
      1574.5004       1226.8834
  -6068315.32545  -4550865.67145  23478201.8804   23478206.3804
      2393.9694       1865.4304
 98  6 26 19 59 45.0010000  0  7G 6G10G17G30G22G26G23
  -1865890.10146  -1414251.02846  20621827.2554   20621830.4784
      -307.1254       -239.3184
  10406718.13245   8049525.07445  23290616.9744   23290622.5754
     -3767.5624      -2935.7634
  -4183176.86546  -3207883.00846  21745245.1694   21745249.7984
       647.0004        504.1564
  11475330.77745   8872885.84345  23249626.3494   23249630.6034
     -4003.9534      -3119.9634
  -1335865.74443   -943826.01642  24550384.4114   24550386.8604
      1245.6094        970.6054
  -6391605.40245  -4834953.71045  23208600.0914   23208604.9314
      1568.7194       1222.3784
  -6104191.24845  -4578820.87145  23471375.6774   23471381.1034
      2389.5944       1862.0214
 98  6 26 20  0  0.0010000  0  7G 6G10G17G30G22G26G23
  -1861222.04346  -1410613.57646  20622715.5134   20622718.7714
      -315.5624       -245.8934
  10463265.99445   8093588.32745  23301377.4274   23301382.9814
     -3772.3914      -2939.5254
  -4192851.61346  -3215421.76446  21743404.0994   21743408.9624
       642.6414        500.7594
  11535420.73745   8919709.12445  23261060.8334   23261066.4584
     -4008.3444      -3123.3854
  -1354488.50343   -958337.21442  24546841.2634   24546847.4384
      1237.1254        963.9944
  -6415085.32245  -4853249.71245  23204131.6774   23204136.5634
      1561.6414       1216.8634
  -6139996.62045  -4606721.14545  23464561.5444   23464566.8534
      2384.1884       1857.8084
 98  6 26 20  0 15.0010000  0  7G 6G10G17G30G22G26G23
  -1856438.59046  -1406886.20946  20623625.6464   20623628.8684
      -322.5784       -251.3604
  10519874.04045   8137698.48445  23312149.7244   23312155.3964
     -3775.7344      -2942.1314
  -4202471.31346  -3222917.62446  21741573.2864   21741577.9154
       639.6094        498.3974
  11595565.80946   8966575.38345  23272506.6464   23272510.4544
     -4011.3754      -3125.7474
  -1372993.54843   -972756.75242  24543319.5054   24543321.6734
      1229.7814        958.2714
  -6438470.65245  -4871472.03245  23199681.8494   23199686.8174
      1556.0314       1212.4924
  -6175732.13545  -4634566.93945  23457761.4664   23457766.5404
      2380.1564       1854.6674
 98  6 26 20  0 30.0010000  0  7G 6G10G17G30G22G26G23
  -1851542.50146  -1403071.06846  20624557.3804   20624560.8964
      -330.2344       -257.3254
  10576539.43545   8181853.31445  23322932.8104   23322938.0834
     -3779.6094      -2945.1504
  -4212036.76146  -3230371.21646  21739753.2554   21739757.8844
       635.7974        495.4264
  11655764.53245   9013483.45745  23283961.7554   23283968.3414
     -4015.0314      -3128.5964
  -1391380.64143   -987084.36042  24539821.0834   24539824.3174
      1221.8754        952.1104
  -6461764.78745  -4889623.26845  23195249.2004   23195253.9934
      1549.9384       1207.7444
  -6211399.33745  -4662359.53945  23450974.5524   23450980.4584
      2375.5004       1851.0394
 98  6 26 20  0 45.0010000  0  7G 6G10G17G30G22G26G23
  -1846533.27346  -1399167.77346  20625510.6614   20625514.2124
      -337.7344       -263.1704
  10633261.75245   8226052.51445  23333726.5364   23333731.8684
     -3783.3754      -2948.0844
  -4221547.00646  -3237781.78946  21737943.4354   21737948.0054
       632.2034        492.6264
  11716016.48345   9060432.95145  23295427.7554   23295430.6734
     -4018.6254      -3131.3964
  -1409652.60843  -1001322.19942  24536343.6534   24536347.3104
      1214.3444        946.2424
  -6484969.84645  -4907705.10645  23190833.7944   23190838.3534
      1543.9844       1203.1054
  -6246997.20545  -4690098.09645  23444199.6694   23444204.3924
      2370.8914       1847.4474
 98  6 26 20  1  0.0010000  0  7G 6G10G17G30G22G26G23
  -1841415.29646  -1395179.73846  20626484.6774   20626488.2634
      -344.7034       -268.6004
  10690036.04745   8270292.20145  23344530.1694   23344534.9504
     -3786.6094      -2950.6054
  -4231005.99046  -3245152.41746  21736143.4114   21736147.9354
       628.8914        490.0454
  11776320.43145   9107423.03645  23306902.9114   23306907.8564
     -4021.8914      -3133.9414
  -1427812.19344  -1015472.57141  24532887.7784   24532890.8494
      1206.9064        940.4464
  -6508089.63545  -4925720.50045  23186434.0284   23186438.8684
      1538.6094       1198.9164
  -6282530.30445  -4717786.15645  23437438.4584   23437444.4584
      2366.7504       1844.2214
 98  6 26 20  1 15.0010000  0  7G 6G10G17G30G22G26G23
  -1836187.92546  -1391106.45746  20627479.2714   20627482.7514
      -352.1874       -274.4324
  10746863.71845   8314573.48645  23355344.4664   23355349.9384
     -3790.3754      -2953.5394
  -4240410.15046  -3252480.32846  21734353.8964   21734358.5014
       625.0474        487.0504
  11836675.92545   9154453.22945  23318388.4424   23318393.0134
     -4025.4224      -3136.6924
  -1445856.33743  -1029532.88242  24529454.3804   24529459.8644
      1199.0784        934.3474
  -6531124.86245  -4943669.99745  23182050.2164   23182054.3414
      1532.7814       1194.3754
  -6317996.06445  -4745421.80445  23430688.7864   23430694.8804
      2362.0164       1840.5324
 98  6 26 20  1 30.0010000  0  7G 6G10G17G30G22G26G23
  -1830847.58046  -1386945.14946  20628495.6614   20628498.9314
      -359.9064       -280.4464
  10803749.69245   8358900.21745  23366169.3104   23366174.9704
     -3794.4694      -2956.7294
  -4249754.09146  -3259761.31046  21732575.9034   21732580.1814
       620.7194        483.6774
  11897085.70545   9201525.75745  23329884.5674   23329888.5404
     -4029.2344      -3139.6634
  -1463782.08244  -1043501.02542  24526042.4274   24526046.7744
      1190.9694        928.0284
  -6554070.08745  -4961549.37545  23177683.8414   23177688.7284
      1526.5314       1189.5054
  -6353386.80845  -4772998.92645  23423954.6464   23423959.6614
      2356.7034       1836.3924
 98  6 26 20  1 45.0010000  0  7G 6G10G17G30G22G26G23
  -1825401.97546  -1382701.81646  20629531.9894   20629535.1654
      -366.3754       -285.4874
  10860688.83445   8403268.34945  23377004.3414   23377009.9194
     -3797.6724      -2959.2254
  -4259041.38046  -3266998.15346  21730808.3494   21730812.9664
       617.3754        481.0714
  11957541.95145   9248634.49545  23341388.1614   23341391.3844
     -4031.7974      -3141.6604
  -1481594.96643  -1057381.20741  24522653.3644   24522656.2944
      1183.8284        922.4634
  -6576931.26145  -4979363.24345  23173333.7944   23173339.1144
      1521.4224       1185.5244
  -6388708.24945  -4800522.10445  23417233.2164   23417239.8134
      2352.6724       1833.2514
 98  6 26 20  2  0.0010000  0  7G 6G10G17G30G22G26G23
  -1819857.67846  -1378381.58246  20630586.9424   20630590.2824
      -372.9694       -290.6254
  10917678.98045   8447676.25845  23387849.4894   23387855.0324
     -3801.1724      -2961.9524
  -4268277.48446  -3274195.11046  21729050.7394   21729055.3454
       614.0004        478.4424
  12018037.87546   9295774.11845  23352900.8334   23352906.1654
     -4034.4064      -3143.6934
  -1499297.94543  -1071175.63642  24519284.1464   24519289.4544
      1176.5004        916.7534
  -6599715.44445  -4997117.13845  23168997.9584   23169002.9854
      1516.2974       1181.5304
  -6423970.85945  -4827999.41245  23410522.8024   23410527.1034
      2348.8754       1830.2924
 98  6 26 20  2 15.0010000  0  7G 6G10G17G30G22G26G23
  -1814210.32746  -1373981.04746  20631661.4274   20631664.6264
      -380.0314       -296.1284
  10974727.03345   8492129.26945  23398705.3254   23398710.9274
     -3805.2974      -2965.1664
  -4277459.98946  -3281350.30146  21727303.4584   21727308.1104
       610.3444        475.5934
  12078575.31845   9342946.11245  23364420.3174   23364424.8994
     -4037.2344      -3145.8974
  -1516887.36443  -1084881.72742  24515937.8964   24515943.6384
      1168.6724        910.6534
  -6622418.58445  -5014807.85445  23164677.8104   23164682.6034
      1510.7034       1177.1714
  -6459171.52545  -4855428.48745  23403824.6854   23403830.3684
      2344.5004       1826.8834
 98  6 26 20  2 30.0010000  0  7G 6G10G17G30G22G26G23
  -1808460.08846  -1369500.34046  20632755.7004   20632759.0634
      -386.9534       -301.5224
  11031835.84445   8536629.62445  23409572.7784   23409578.4274
     -3809.4694      -2968.4174
  -4286590.89846  -3288465.29446  21725565.9664   21725570.6424
       606.9064        472.9144
  12139151.81046   9390148.55045  23375947.8334   23375951.0324
     -4039.8594      -3147.9424
  -1534361.73743  -1098498.11142  24512611.8964   24512614.8024
      1161.0164        904.6884
  -6645039.39145  -5032434.44545  23160373.0604   23160377.9934
      1505.1414       1172.8374
  -6494309.16345  -4882808.41045  23397137.8024   23397143.7314
      2340.3134       1823.6204
 98  6 26 20  2 45.0010000  0  7G 6G10G17G30G22G26G23
  -1802606.56346  -1364939.14746  20633869.8024   20633873.2124
      -393.4224       -306.5624
  11089006.14145   8581177.88545  23420452.2394   23420457.6424
     -3813.0784      -2971.2304
  -4295672.79446  -3295542.09346  21723837.9114   21723842.6104
       604.1724        470.7834
  12199765.97345   9437380.31545  23387482.3644   23387487.8494
     -4041.8754      -3149.5134
  -1551724.15943  -1112027.24442  24509308.3494   24509314.3374
      1154.0944        899.2944
  -6667577.15645  -5049996.31945  23156084.1304   23156088.4544
      1499.9534       1168.7954
  -6529385.76645  -4910140.79245  23390463.0674   23390467.9664
      2336.7034       1820.8084
 98  6 26 20  3  0.0010000  0  7G 6G10G17G30G22G26G23
  -1796652.46646  -1360299.59046  20635002.6464   20635005.9504
      -400.0164       -311.7004
  11146232.79645   8625770.06945  23431341.8964   23431347.5214
     -3816.5944      -2973.9694
  -4304711.85646  -3302585.50346  21722117.5134   21722122.3064
       601.5004        468.7014
  12260414.20946   9484638.63845  23399023.5214   23399025.9934
     -4044.0314      -3151.1934
  -1568978.02543  -1125471.82042  24506025.4034   24506028.8494
      1146.8754        893.6694
  -6690031.69845  -5067493.31745  23151811.4974   23151816.1854
      1494.4224       1164.4854
  -6564405.23545  -4937428.63645  23383798.8564   23383804.2124
      2333.0634       1817.9714
 98  6 26 20  3 15.0010000  0  7G 6G10G17G30G22G26G23
  -1790589.68446  -1355575.33846  20636156.5134   20636159.5604
      -407.5624       -317.5814
  11203520.69845   8670409.98345  23442243.2864   23442248.5244
     -3821.0164      -2977.4154
  -4313701.02446  -3309590.04746  21720407.0134   21720411.9114
       597.7664        465.7914
  12321101.66645   9531927.56545  23410571.3644   23410576.0284
     -4046.7974      -3153.3484
  -1586113.90843  -1138824.42842  24502763.9664   24502767.8924
      1138.7034        887.3014
  -6712394.29345  -5084918.70645  23147555.8254   23147559.8804
      1487.9844       1159.4684
  -6599361.43245  -4964667.20945  23377147.1064   23377152.0754
      2328.5004       1814.4164
 98  6 26 20  3 30.0010000  0  7G 6G10G17G30G22G26G23
  -1784420.57446  -1350768.24046  20637330.3964   20637333.8764
      -414.5164       -322.9994
  11260865.89345   8715094.52445  23453155.8884   23453160.8684
     -3824.5314      -2980.1544
  -4322640.85446  -3316556.13946  21718705.9114   21718710.4234
       594.6564        463.3694
  12381822.11845   9579242.12045  23422126.4034   23422131.9814
     -4048.8124      -3154.9194
  -1603136.01743  -1152088.36742  24499524.6614   24499529.0444
      1131.3444        881.5674
  -6734666.95145  -5102274.01445  23143317.5214   23143322.6064
      1482.1414       1154.9154
  -6634257.09445  -4991858.58245  23370506.5754   23370511.5444
      2324.7504       1811.4944
 98  6 26 20  3 45.0010000  0  7G 6G10G17G30G22G26G23
  -1778140.73446  -1345874.85246  20638525.4114   20638528.8454
      -422.4844       -329.2094
  11318269.57145   8759824.67245  23464079.3104   23464084.8174
     -3829.0004      -2983.6364
  -4331527.17446  -3323480.53246  21717015.0914   21717019.5914
       590.5634        460.1794
  12442579.66746   9626585.66445  23433688.4274   23433692.5404
     -4051.8444      -3157.2814
  -1620040.20543  -1165260.44342  24496307.8254   24496313.2744
      1122.9064        874.9924
  -6756846.20545  -5119556.52445  23139096.8104   23139101.8604
      1475.4534       1149.7044
  -6669092.65645  -5019003.15945  23363877.3334   23363881.7044
      2320.4064       1808.1094
 98  6 26 20  4  0.0010000  0  7G 6G10G17G30G22G26G23
  -1771752.67746  -1340897.14946  20639740.9814   20639744.2864
      -429.2974       -334.5174
  11375729.22245   8804598.41945  23475013.5134   23475019.4894
     -3832.2344      -2986.1574
  -4340366.04046  -3330367.95046  21715332.8564   21715337.4744
       587.9694        458.1574
  12503369.93545   9673954.65345  23445256.3414   23445262.0364
     -4053.5004      -3158.5714
  -1636831.35043  -1178344.43442  24493113.0054   24493117.5994
      1115.9064        869.5374
  -6778937.95645  -5136770.83945  23134893.0994   23134897.4464
      1470.1094       1145.5404
  -6703877.10245  -5046107.86445  23357257.9194   23357263.0404
      2317.5004       1805.8444
 98  6 26 20  4 15.0010000  0  7G 6G10G17G30G22G26G23
  -1765250.62046  -1335830.60946  20640978.2784   20640981.6184
      -437.1254       -340.6174
  11433245.30145   8849416.11845  23485958.6304   23485963.9504
     -3836.0314      -2989.1154
  -4349156.43946  -3337217.60346  21713659.7944   21713664.6104
       584.5944        455.5284
  12564194.59946   9721350.43545  23456831.4974   23456834.8134
     -4055.9374      -3160.4714
  -1653507.95143  -1191339.17243  24489939.3334   24489943.2244
      1108.1724        863.5114
  -6800939.23045  -5153914.67445  23130706.4274   23130710.2474
      1463.8754       1140.6824
  -6738607.01045  -5073170.09845  23350649.7864   23350654.4384
      2313.6564       1802.8494
 98  6 26 20  4 30.0010000  0  7G 6G10G17G30G22G26G23
  -1758631.63246  -1330672.94946  20642238.1144   20642241.4544
      -445.3444       -347.0214
  11490816.67645   8894276.90445  23496913.7634   23496918.9784
     -3840.0624      -2992.2564
  -4357894.91046  -3344026.79446  21711997.1304   21712002.1344
       580.5164        452.3504
  12625056.16345   9768775.00845  23468412.5284   23468418.5634
     -4058.9534      -3162.8214
  -1670068.53944  -1204243.52043  24486788.1924   24486793.1264
      1099.9384        857.0944
  -6822844.63045  -5170983.81145  23126537.5754   23126541.1034
      1456.8754       1135.2274
  -6773278.51545  -5100186.83445  23344051.6694   23344056.8724
      2309.2504       1799.4164
 98  6 26 20  4 45.0010000  0  7G 6G10G17G30G22G26G23
  -1751897.21746  -1325425.35446  20643519.6534   20643522.9464
      -452.7344       -352.7804
  11548440.23645   8939178.37145  23507879.4114   23507884.3804
     -3843.1724      -2994.6794
  -4366577.01446  -3350792.06246  21710345.2004   21710349.9934
       577.0004        449.6104
  12685958.33945   9816231.18845  23480001.8494   23480005.8564
     -4061.4844      -3164.7934
  -1686514.14544  -1217058.24543  24483658.9424   24483661.8724
      1092.7034        851.4574
  -6844651.62345  -5187976.22445  23122388.4424   23122393.3644
      1450.6564       1130.3814
  -6807889.58645  -5127156.44045  23337464.9744   23337469.3804
      2305.4384       1796.4454
 98  6 26 20  5  0.0010000  0  7G 6G10G17G30G22G26G23
  -1745048.49046  -1320088.68546  20644822.7314   20644825.9424
      -460.2034       -358.6004
  11606111.99845   8984117.39045  23518853.6854   23518859.1104
     -3846.1094      -2996.9684
  -4375202.75946  -3357513.41946  21708703.8494   21708708.5954
       573.2974        446.7254
  12746902.38845   9863720.01145  23491599.2634   23491605.2744
     -4064.1724      -3166.8874
  -1702847.69344  -1229785.65742  24480550.9424   24480556.0524
      1085.3284        845.7104
  -6866362.51345  -5204893.77945  23118256.6144   23118260.8924
      1444.4064       1125.5114
  -6842438.32345  -5154077.48545  23330891.2864   23330896.7824
      2301.2664       1793.1944
 98  6 26 20  5 15.0010000  0  7G 6G10G17G30G22G26G23
  -1738089.74946  -1314666.28046  20646146.6064   20646149.6304
      -468.0314       -364.7004
  11663823.85945   9029087.64745  23529836.2164   23529842.2744
     -3849.2034      -2999.3794
  -4383773.14746  -3364191.63246  21707072.7314   21707077.4664
       568.9844        443.3644
  12807884.43845   9911238.46145  23503203.5054   23503207.1384
     -4067.0944      -3169.1644
  -1719072.11043  -1242428.08442  24477463.2714   24477468.3564
      1077.5944        839.6834
  -6887983.87745  -5221741.58545  23114142.3334   23114146.3884
      1438.0634       1120.5684
  -6876926.09545  -5180951.06445  23324327.7084   23324333.3804
      2296.7034       1789.6394
 98  6 26 20  5 30.0010000  0  7G 6G10G17G30G22G26G23
  -1731014.77946  -1309153.31546  20647493.1774   20647496.5634
      -475.2814       -370.3494
  11721581.42845   9074093.53145  23540827.4814   23540832.7674
     -3851.7194      -3001.3394
  -4392279.21646  -3370819.73746  21705453.9814   21705458.5634
       565.2344        440.4424
  12868908.33345   9958789.50845  23514816.4974   23514822.5674
     -4069.3754      -3170.9424
  -1735182.79843  -1254981.83042  24474396.4664   24474403.2164
      1070.5634        834.2054
  -6909511.35945  -5238516.20945  23110045.6144   23110049.6344
      1432.3444       1116.1124
  -6911345.84645  -5207771.59745  23317778.5604   23317784.1264
      2292.6094       1786.4494
 98  6 26 20  5 45.0010000  0  7G 6G10G17G30G22G26G23
  -1723830.06746  -1303554.83546  20648860.3254   20648863.5364
      -482.2814       -375.8044
  11779376.70445   9119128.80945  23551825.1224   23551830.6654
     -3853.9844      -3003.1054
  -4400730.35546  -3377405.03146  21703845.8024   21703850.2784
       561.9534        437.8864
  12929966.67945  10006367.34245  23526434.9664   23526440.3334
     -4071.3914      -3172.5124
  -1751188.26643  -1267453.60342  24471351.0994   24471357.7674
      1063.8594        828.9814
  -6930952.22545  -5255223.33645  23105965.3644   23105970.6614
      1426.8444       1111.8264
  -6945703.57745  -5234543.83145  23311240.3174   23311245.7904
      2288.7664       1783.4544
 98  6 26 20  6  0.0010000  0  7G 6G10G17G30G22G26G23
  -1716536.56846  -1297871.58746  20650248.3964   20650251.6774
      -490.0164       -381.8304
  11837211.36645   9164194.76945  23562830.8964   23562836.2044
     -3857.1254      -3005.5524
  -4409129.67346  -3383949.94546  21702247.4974   21702252.0094
       558.1884        434.9514
  12991060.75545  10053973.10945  23538061.5054   23538066.1104
     -4074.3124      -3174.7894
  -1767089.58643  -1279844.24742  24468325.5444   24468331.7314
      1056.5004        823.2474
  -6952306.98945  -5271863.38645  23101901.5444   23101905.9504
      1420.5944       1106.9564
  -6979998.30045  -5261266.94845  23304713.9424   23304719.3684
      2283.9384       1779.6924
 98  6 26 20  6 15.0010000  0  7G 6G10G17G30G22G26G23
  -1709129.98446  -1292100.22346  20651657.7164   20651660.8334
      -497.4374       -387.6144
  11895089.09845   9209294.25445  23573844.5914   23573850.2164
     -3859.7504      -3007.5974
  -4417476.01346  -3390453.58246  21700659.2864   21700663.6464
       554.6884        432.2244
  13052195.05945  10101610.17845  23549693.9814   23549699.9814
     -4076.8284      -3176.7494
  -1782883.32843  -1292151.00842  24465319.1614   24465325.8294
      1049.3754        817.6954
  -6973570.28345  -5288432.16845  23097855.3254   23097859.7314
      1414.5784       1102.2694
  -7014220.93345  -5287933.89045  23298201.3724   23298206.9154
      2279.1414       1775.9544
 98  6 26 20  6 30.0010000  0  7G 6G10G17G30G22G26G23
  -1701611.88946  -1286241.96746  20653088.6534   20653091.7474
      -504.7504       -393.3124
  11953005.96645   9254424.27945  23584865.8174   23584871.3494
     -3862.3754      -3009.6434
  -4425767.48846  -3396914.46746  21699081.3174   21699085.8064
       551.0164        429.3634
  13113369.25445  10149278.32345  23561336.1924   23561340.0244
     -4079.5944      -3178.9044
  -1798567.37743  -1304372.34042  24462335.5134   24462341.1494
      1042.0004        811.9484
  -6994741.91045  -5304929.50245  23093826.4744   23093831.3494
      1408.4534       1097.4964
  -7048369.53645  -5314543.16145  23291703.3494   23291708.8924
      2274.1564       1772.0704
 98  6 26 20  6 45.0010000  0  7G 6G10G17G30G22G26G23
  -1693989.45446  -1280302.39846  20654538.9814   20654541.9704
      -511.7504       -398.7664
  12010958.59445   9299582.14845  23595893.9664   23595899.4384
     -3864.7504      -3011.4944
  -4434009.94046  -3403337.14746  21697512.9504   21697517.6264
       547.8754        426.9164
  13174580.35345  10196975.27045  23572983.5754   23572988.6384
     -4082.0004      -3180.7794
  -1814144.44543  -1316510.28543  24459371.8564   24459376.8134
      1034.7664        806.3114
  -7015826.42445  -5321358.94145  23089814.2004   23089819.1464
      1402.7034       1093.0154
  -7082445.98545  -5341096.18845  23285218.7244   23285224.6184
      2269.2194       1768.2224
 98  6 26 20  7  0.0010000  0  7G 6G10G17G30G22G26G23
  -1686262.78846  -1274281.62346  20656009.2784   20656012.3724
      -518.9694       -404.3914
  12068945.46645   9344766.71245  23606928.7164   23606934.2824
     -3867.3284      -3013.5024
  -4442208.21546  -3409725.40246  21695952.8494   21695957.6064
       544.8134        424.5294
  13235822.80845  10244696.57845  23584637.9814   23584641.6614
     -4084.0624      -3182.3864
  -1829613.24443  -1328563.88443  24456427.4894   24456433.7474
      1027.2194        800.4304
  -7036827.34345  -5337723.29445  23085817.9274   23085823.0714
      1396.9694       1088.5474
  -7116450.53745  -5367593.21945  23278747.4974   23278753.3104
      2264.2974       1764.3874
 98  6 26 20  7 15.0010000  0  7G 6G10G17G30G22G26G23
  -1678420.73446  -1268170.93146  20657501.7314   20657505.1534
      -526.4224       -410.1994
  12126978.31345   9389987.09845  23617971.8254   23617977.8604
     -3870.2034      -3015.7434
  -4450354.90246  -3416073.46346  21694402.6464   21694407.6614
       541.5784        422.0094
  13297101.04745  10292445.86245  23596298.5604   23596302.8604
     -4086.1564      -3184.0184
  -1844959.67743  -1340522.09742  24453507.4584   24453513.7044
      1019.2034        794.1844
  -7057735.96545  -5354015.68345  23081838.7784   23081843.8174
      1391.0314       1083.9204
  -7150376.68045  -5394029.12345  23272291.9894   23272297.8964
      2259.4694       1760.6254
 98  6 26 20  7 30.0010000  0  7G 6G10G17G30G22G26G23
  -1670471.78546  -1261976.93946  20659014.1534   20659017.3174
      -533.4844       -415.7024
  12185051.61545   9435239.00145  23629022.6464   23629028.5994
     -3873.0474      -3017.9594
  -4458457.20046  -3422386.93346  21692860.7714   21692865.5754
       538.6724        419.7444
  13358405.21145  10340215.26745  23607964.3884   23607970.0484
     -4087.8124      -3185.3084
  -1860189.36143  -1352389.36243  24450608.5834   24450614.3024
      1011.3754        788.0844
  -7078558.64745  -5370241.12545  23077876.9504   23077881.6144
      1385.2504       1079.4164
  -7184236.92545  -5420413.69145  23265848.4894   23265854.2204
      2255.1414       1757.2524
 98  6 26 20  7 45.0010000  0  7G 6G10G17G30G22G26G23
  -1662420.48546  -1255703.20146  20660546.2634   20660549.4744
      -539.8914       -420.6944
  12243168.10745   9480524.55845  23640081.8724   23640087.0054
     -3875.6724      -3020.0044
  -4466520.44746  -3428669.98046  21691326.3414   21691331.1814
       536.5784        418.1134
  13419733.89145  10388003.79445  23619635.2394   23619639.3414
     -4089.2344      -3186.4164
  -1875303.06343  -1364166.24942  24447732.8964   24447739.2944
      1003.9224        782.2774
  -7099295.51945  -5386399.70845  23073930.6144   23073935.0564
      1379.8444       1075.2034
  -7218034.14745  -5446749.15745  23259417.4194   23259422.3764
      2251.2974       1754.2574
 98  6 26 20  8  0.0010000  0  7G 6G10G17G30G22G26G23
  -1654269.00846  -1249351.39946  20662097.5674   20662100.8374
      -547.0004       -426.2344
  12301329.49745   9525845.11445  23651149.6224   23651155.6924
     -3879.2194      -3022.7684
  -4474546.89646  -3434924.34746  21689799.1614   21689803.7554
       533.5944        415.7874
  13481089.03545  10435812.98945  23631310.6064   23631315.4934
     -4091.5004      -3188.1824
  -1890300.09243  -1375852.22742  24444878.2314   24444883.7394
       995.6564        775.8364
  -7119947.04945  -5402491.78945  23070000.7554   23070006.1344
      1373.7034       1070.4184
  -7251769.55345  -5473036.46545  23252997.4354   23253002.6034
      2246.7344       1750.7024
 98  6 26 20  8 15.0010000  0  7G 6G10G17G30G22G26G23
  -1646013.53246  -1242918.56046  20663668.2944   20663671.4114
      -554.0314       -431.7134
  12359540.01745   9571203.93845  23662227.0364   23662232.8254
     -3882.4694      -3025.3004
  -4482531.54446  -3441146.14546  21688279.6224   21688284.4974
       530.7034        413.5354
  13542475.04145  10483646.17645  23642991.4814   23642996.4384
     -4093.5314      -3189.7654
  -1905176.77643  -1387444.43042  24442047.9664   24442053.8024
       987.5944        769.5544
  -7140509.75145  -5418514.63245  23066087.8024   23066093.3334
      1367.6724       1065.7184
  -7285440.45145  -5499273.48245  23246589.9744   23246595.9854
      2242.4384       1747.3544
 98  6 26 20  8 30.0010000  0  7G 6G10G17G30G22G26G23
  -1637655.76346  -1236406.00746  20665258.9034   20665261.7394
      -560.5474       -436.7904
  12417796.05445   9616598.23245  23673312.3804   23673318.4974
     -3885.2504      -3027.4684
  -4490473.74846  -3447334.86646  21686768.3024   21686772.9894
       527.9844        411.4164
  13603886.81145  10531499.43445  23654678.5834   23654684.0794
     -4094.9694      -3190.8854
  -1919933.71243  -1398943.32743  24439240.6464   24439246.3174
       979.7344        763.4294
  -7160985.45845  -5434469.69645  23062191.0054   23062195.8454
      1362.1414       1061.4084
  -7319051.38345  -5525463.77945  23240194.3334   23240199.0674
      2238.8284       1744.5414
 98  6 26 20  8 45.0010000  0  7G 6G10G17G30G22G26G23
  -1629192.53346  -1229811.27646  20666869.4424   20666872.5014
      -567.2974       -442.0504
  12476103.72445   9662032.75845  23684408.3964   23684413.8454
     -3888.4844      -3029.9884
  -4498366.65346  -3453485.17646  21685266.0994   21685271.1264
       525.0634        409.1404
  13665328.91645  10579376.40945  23666370.2474   23666374.8414
     -4096.6094      -3192.1634
  -1934564.15543  -1410343.64642  24436455.8644   24436460.5054
       971.6094        757.0984
  -7181368.32945  -5450352.43445  23058312.1464   23058316.0604
      1356.1564       1056.7454
  -7352599.48145  -5551605.13845  23233810.2554   23233816.0794
      2234.8914       1741.4734
 98  6 26 20  9  0.0010000  0  7G 6G10G17G30G22G26G23
  -1620626.48546  -1223136.42646  20668499.6304   20668502.5484
      -574.8594       -447.9424
  12534459.53745   9707504.79845  23695512.8334   23695518.8564
     -3892.2974      -3032.9594
  -4506217.47646  -3459602.69346  21683772.3494   21683777.1884
       521.6564        406.4854
  13726792.66845  10627270.12045  23678067.1384   23678072.5174
     -4098.5784      -3193.6974
  -1949074.29843  -1421650.23542  24433694.6854   24433701.0134
       963.0944        750.4634
  -7201660.05045  -5466164.13845  23054451.2944   23054456.1694
      1349.4384       1051.5104
  -7386090.12945  -5577701.70445  23227436.9424   23227441.8534
      2230.6254       1738.1494
 98  6 26 20  9 15.0010000  0  7G 6G10G17G30G22G26G23
  -1611950.93646  -1216376.26146  20670150.3254   20670153.2204
      -582.0944       -453.5804
  12592869.97745   9753019.41645  23706628.0134   23706633.9784
     -3895.9844      -3035.8324
  -4514018.96046  -3465681.76146  21682287.5134   21682292.1184
       518.3594        403.9164
  13788283.54545  10675185.13845  23689767.7004   23689770.2434
     -4100.5004      -3195.1954
  -1963462.32044  -1432861.64543  24430956.7394   24430961.3804
       955.1564        744.2784
  -7221854.67445  -5481900.17545  23050608.1384   23050612.9664
      1343.0164       1046.5064
  -7419522.01445  -5603752.48245  23221074.8254   23221079.7244
      2226.7344       1735.1184
 98  6 26 20  9 30.0010000  0  7G 6G10G17G30G22G26G23
  -1603169.09046  -1209533.26146  20671821.2314   20671824.1384
      -588.9374       -458.9124
  12651333.05245   9798575.04245  23717753.4194   23717758.3764
     -3899.2034      -3038.3404
  -4521773.35646  -3471724.14446  21680812.1774   21680816.9114
       515.3914        401.6034
  13849803.47445  10723122.63545  23701475.7244   23701482.1924
     -4102.3284      -3196.6194
  -1977735.35443  -1443983.46143  24428240.6774   24428245.2244
       947.7974        738.5434
  -7241953.22045  -5497561.34645  23046783.4424   23046788.7164
      1336.6564       1041.5504
  -7452896.88745  -5629758.83745  23214724.0134   23214728.7354
      2223.0474       1732.2444
 98  6 26 20  9 45.0010000  0  7G 6G10G17G30G22G26G23
  -1594281.69246  -1202608.01346  20673512.6694   20673515.6924
      -595.8914       -464.3304
  12709846.46745   9844169.88945  23728888.1694   23728892.9034
     -3902.3444      -3040.7874
  -4529481.29146  -3477730.31846  21679345.3804   21679350.4194
       512.5474        399.3874
  13911353.84645  10771083.92245  23713187.8024   23713191.3764
     -4104.2034      -3198.0804
  -1991896.47344  -1455018.13742  24425546.2314   24425550.9894
       940.5944        732.9304
  -7261953.12245  -5513145.65145  23042977.5364   23042982.2714
      1330.2034       1036.5224
  -7486210.95945  -5655717.82945  23208384.8414   23208389.5174
      2218.9534       1729.0544
 98  6 26 20 10  0.0010000  0  7G 6G10G17G30G22G26G23
  -1585286.46146  -1195598.74446  20675224.4664   20675227.3254
      -603.0624       -469.9194
  12768406.52345   9889801.09545  23740031.9034   23740037.2004
     -3905.1254      -3042.9554
  -4537145.73246  -3483702.60746  21677887.0214   21677891.8254
       509.8444        397.2814
  13972934.02645  10819068.45945  23724905.7394   23724910.5674
     -4105.9694      -3199.4564
  -2005949.85344  -1465968.77843  24422871.6614   24422877.8724
       933.6564        727.5244
  -7281854.94545  -5528653.53145  23039190.6854   23039195.8064
      1323.8914       1031.6034
  -7519460.91145  -5681626.84145  23202057.4814   23202062.7674
      2214.8594       1725.8644
 98  6 26 20 10 15.0010000  0  7G 6G10G17G30G22G26G23
  -1576181.47646  -1188503.94446  20676957.1304   20676959.8724
      -610.5164       -475.7264
  12827008.07445   9935464.61445  23751182.8254   23751188.2634
     -3908.0004      -3045.1954
  -4544767.50946  -3489641.64346  21676436.5754   21676441.4974
       506.7974        394.9074
  14034539.55945  10867072.68345  23736629.7474   23736635.7824
     -4107.7344      -3200.8324
  -2019897.27244  -1476836.87943  24420217.3024   24420223.5244
       926.3594        721.8384
  -7301661.04545  -5544086.84245  23035421.5134   23035426.4584
      1317.2344       1026.4164
  -7552648.24245  -5707487.08545  23195741.7944   23195747.8414
      2210.5004       1722.4684
 98  6 26 20 10 30.0010000  0  7G 6G10G17G30G22G26G23
  -1566964.70446  -1181322.03946  20678710.9504   20678713.8924
      -618.0004       -481.5584
  12885652.97345   9981161.91745  23762342.9114   23762348.6064
     -3910.9694      -3047.5084
  -4552342.88846  -3495544.52546  21674994.8174   21674999.3534
       503.6094        392.4234
  14096172.94245  10915098.66945  23748357.4194   23748362.8924
     -4109.6874      -3202.3544
  -2033733.51644  -1487618.33743  24417585.4424   24417590.9034
       918.7664        715.9214
  -7321364.19645  -5559439.89445  23031672.1304   23031677.3924
      1310.2034       1020.9384
  -7585768.48645  -5733295.02245  23189438.8724   23189443.9814
      2205.8754       1718.8644
 98  6 26 20 10 45.0010000  0  7G 6G10G17G30G22G26G23
  -1557639.46346  -1174055.61446  20680485.4744   20680488.2634
      -625.4534       -487.3664
  12944338.37845  10026890.78845  23773510.3024   23773515.3884
     -3913.8444      -3049.7484
  -4559873.91046  -3501412.85146  21673561.9584   21673566.6924
       500.4534        389.9634
  14157832.22745  10963144.81845  23760091.5214   23760096.5364
     -4111.6564      -3203.8884
  -2047457.78644  -1498312.58643  24414972.6384   24414977.2904
       911.0784        709.9314
  -7340963.74445  -5574712.24745  23027942.7714   23027946.8374
      1302.9534       1015.2884
  -7618821.88145  -5759050.87345  23183149.0834   23183154.1574
      2201.1254       1715.1624
 98  6 26 20 11  0.0010000  0  7G 6G10G17G30G22G26G23
  -1548204.02746  -1166703.32546  20682280.8804   20682283.8454
      -632.7664       -493.0644
  13003064.75245  10072651.58145  23784685.5054   23784690.6144
     -3916.4534      -3051.7824
  -4567361.06746  -3507246.99146  21672137.1224   21672141.8454
       497.7034        387.8214
  14219518.72445  11011212.18345  23771829.4974   23771834.0444
     -4113.3444      -3205.2034
  -2061070.99944  -1508920.23143  24412382.1694   24412388.9544
       903.9384        704.3674
  -7360456.35445  -5589901.26845  23024233.4034   23024237.8924
      1295.9224       1009.8094
  -7651805.17845  -5784752.10645  23176873.0054   23176878.3254
      2196.5314       1711.5834
 98  6 26 20 11 15.0010000  0  7G 6G10G17G30G22G26G23
  -1538660.60046  -1159266.88746  20684096.9354   20684100.0634
      -639.9064       -498.6284
  13061827.82645  10118440.97445  23795867.7474   23795873.1144
     -3918.8444      -3053.6444
  -4574807.72646  -3513049.57446  21670720.0994   21670724.7864
       494.8754        385.6174
  14281230.26845  11059299.07045  23783573.1614   23783577.8254
     -4115.1564      -3206.6154
  -2074580.05444  -1519446.73843  24409811.4354   24409816.8374
       896.9694        698.9374
  -7379847.21245  -5605011.00445  23020543.0674   23020547.3564
      1289.2504       1004.6104
  -7684721.80045  -5810401.40645  23170609.1464   23170613.9974
      2192.0634       1708.1014
 98  6 26 20 11 30.0010000  0  7G 6G10G17G30G22G26G23
  -1529010.59046  -1151747.39346  20685933.4114   20685936.5054
      -646.9844       -504.1444
  13120625.83545  10164257.59045  23807057.3494   23807062.8684
     -3921.0474      -3055.3614
  -4582210.75746  -3518818.15946  21669311.3564   21669315.8804
       492.0314        383.4014
  14342968.57245  11107406.79945  23795321.4814   23795327.6814
     -4116.7814      -3207.8814
  -2087981.45844  -1529889.38643  24407261.6694   24407266.4154
       889.6884        693.2634
  -7399136.74545  -5620041.77645  23016872.2944   23016876.5484
      1282.4844        999.3384
  -7717569.29145  -5835996.82445  23164358.6304   23164363.7164
      2187.4064       1704.4724
 98  6 26 20 11 45.0010000  0  7G 6G10G17G30G22G26G23
  -1519254.86346  -1144145.53346  20687789.8804   20687793.2674
      -654.0624       -509.6594
  13179455.31445  10210098.71845  23818251.6694   23818256.8724
     -3923.1874      -3057.0294
  -4589572.33446  -3524554.44046  21667910.3334   21667914.7984
       489.2034        381.1974
  14404729.02745  11155531.74845  23807074.1924   23807079.9584
     -4118.2194      -3209.0024
  -2101272.12944  -1540245.73143  24404731.9584   24404737.4194
       882.0784        687.3344
  -7418325.92145  -5634994.34745  23013220.5834   23013224.7554
      1275.7974        994.1274
  -7750348.24545  -5861538.82245  23158120.8644   23158126.8644
      2182.8594       1700.9294
 98  6 26 20 12  0.0010000  0  7G 6G10G17G30G22G26G23
  -1509391.57746  -1136459.85146  20689666.9354   20689670.0284
      -661.1724       -515.1994
  13238318.45045  10255966.08745  23829453.2244   23829459.0134
     -3925.3594      -3058.7224
  -4596890.43046  -3530256.84346  21666517.7084   21666522.3024
       486.3754        378.9944
  14466509.84545  11203672.63844  23818830.2394   23818833.7784
     -4119.3594      -3209.8904
  -2114447.64745  -1550512.34143  24402225.3254   24402231.1384
       874.5004        681.4294
  -7437415.61545  -5649869.40745  23009588.1694   23009593.0564
      1269.3284        989.0874
  -7783059.19945  -5887027.84845  23151895.7554   23151901.4034
      2178.5004       1697.5324
 98  6 26 20 12 15.0010000  0  7G 6G10G17G30G22G26G23
  -1499416.14046  -1128686.78446  20691564.9744   20691568.1964
      -668.6724       -521.0434
  13297221.40445  10301864.46945  23840661.5444   23840667.1464
     -3928.2344      -3060.9624
  -4604158.21746  -3535920.04746  21665134.8334   21665139.3454
       482.7504        376.1694
  14528313.75745  11251831.51045  23830591.5054   23830597.9154
     -4121.0314      -3211.1934
  -2127501.09145  -1560683.86243  24399741.3884   24399747.4464
       866.0474        674.8424
  -7456402.55045  -5664664.38545  23005975.1304   23005979.7244
      1262.3284        983.6324
  -7815700.72345  -5912462.77145  23145684.3804   23145689.0674
      2173.8754       1693.9294
 98  6 26 20 12 30.0010000  0  7G 6G10G17G30G22G26G23
  -1489333.09146  -1120829.86646  20693483.6384   20693486.9894
      -675.5784       -526.4254
  13356164.89845  10347794.44045  23851878.1924   23851884.2164
     -3930.6874      -3062.8734
  -4611372.38546  -3541541.47046  21663761.9894   21663766.3374
       479.3444        373.5154
  14590140.93145  11300008.42545  23842357.2864   23842364.2394
     -4122.4064      -3212.2654
  -2140429.91345  -1570758.23943  24397281.5914   24397286.7354
       858.0164        668.5844
  -7475285.74345  -5679378.52245  23002381.6384   23002386.6534
      1255.6254        978.4094
  -7848275.68045  -5937845.82345  23139485.5674   23139491.0054
      2169.6564       1690.6414
 98  6 26 20 12 45.0010000  0  7G 6G10G17G30G22G26G23
  -1479144.81246  -1112890.94546  20695422.2244   20695425.3884
      -682.6254       -531.9164
  13415143.69045  10393751.93244  23863101.8254   23863107.5794
     -3932.8594      -3064.5664
  -4618536.82046  -3547124.14046  21662398.5444   21662403.0324
       476.2504        371.1044
  14651987.36045  11348200.41245  23854126.3494   23854129.5834
     -4123.4694      -3213.0934
  -2153239.95345  -1580740.04043  24394842.9354   24394848.7124
       850.2814        662.5574
  -7494070.65845  -5694016.10445  22998807.0994   22998811.3534
      1249.3754        973.5394
  -7880788.06245  -5963180.11445  23133298.3174   23133303.9194
      2165.5944       1687.4764
 98  6 26 20 13  0.0010000  0  7G 6G10G17G30G22G26G23
  -1468850.97146  -1104869.77046  20697381.4504   20697384.4974
      -690.0004       -537.6624
  13474153.58945  10439733.63545  23874330.8804   23874335.9074
     -3935.2504      -3066.4294
  -4625657.90646  -3552673.02946  21661043.5214   21661047.9384
       473.1564        368.6934
  14713846.52645  11396402.34845  23865897.8024   23865902.9234
     -4124.5474      -3213.9334
  -2165937.28944  -1590634.10143  24392426.9974   24392432.3994
       842.6414        656.6034
  -7512766.04145  -5708583.90145  22995249.8644   22995254.6814
      1243.2814        968.7914
  -7913241.47745  -5988468.44545  23127122.9744   23127128.2124
      2161.4384       1684.2374
 98  6 26 20 13 15.0010000  0  7G 6G10G17G30G22G26G23
  -1458443.23746  -1096759.85246  20699361.8804   20699364.9854
      -697.6724       -543.6404
  13533201.20245  10485744.75045  23885567.8804   23885573.6694
     -3937.7194      -3068.3524
  -4632730.67346  -3558184.27046  21659697.5134   21659702.2244
       469.9064        366.1614
  14775724.82245  11444619.11145  23877672.5524   23877677.8134
     -4125.8594      -3214.9554
  -2178517.25145  -1600436.64943  24390033.0754   24390038.7594
       834.6884        650.4064
  -7531369.66045  -5723080.20045  22991709.2864   22991714.5134
      1237.2504        964.0914
  -7945630.62145  -6013706.72345  23120959.6464   23120964.7314
      2157.1094       1680.8644
 98  6 26 20 13 30.0010000  0  7G 6G10G17G30G22G26G23
  -1447921.78546  -1088561.31846  20701364.2164   20701367.2164
      -705.2504       -549.5454
  13592284.59545  10531783.74045  23896810.5834   23896815.7634
     -3940.0784      -3070.1914
  -4639754.91346  -3563657.69846  21658360.9974   21658365.3924
       466.6254        363.6044
  14837622.26045  11492850.86845  23889451.2314   23889455.8494
     -4127.1414      -3215.9544
  -2190976.27844  -1610144.99443  24387662.0994   24387666.6464
       826.4384        643.9774
  -7549883.50045  -5737506.53845  22988186.0914   22988190.4854
      1231.1724        959.3554
  -7977953.63145  -6038893.44645  23114808.8414   23114813.8684
      2152.6254       1677.3704
 98  6 26 20 13 45.0010000  0  7G 6G10G17G30G22G26G23
  -1437285.81046  -1080273.54446  20703387.9034   20703390.9624
      -713.1094       -555.6704
  13651403.31745  10577850.26944  23908060.1854   23908066.0324
     -3942.6724      -3072.2124
  -4646730.14946  -3569092.93846  21657033.8884   21657038.1654
       463.1884        360.9254
  14899538.37845  11541097.13345  23901233.7864   23901238.7314
     -4128.6254      -3217.1104
  -2203311.23045  -1619756.57743  24385314.7314   24385319.8064
       818.0634        637.4514
  -7568306.34345  -5751861.97345  22984680.1774   22984684.2784
      1225.0004        954.5454
  -8010210.48845  -6064028.65445  23108670.2944   23108675.1924
      2148.0474       1673.8034
 98  6 26 20 14  0.0010000  0  7G 6G10G17G30G22G26G23
  -1426538.40346  -1071898.93846  20705433.1304   20705436.2944
      -719.9064       -560.9664
  13710555.03945  10623942.48145  23919316.2164   23919320.3064
     -3944.2504      -3073.4424
  -4653659.91946  -3574492.74846  21655715.1224   21655719.3064
       460.7344        359.0144
  14961472.46045  11589357.39345  23913019.0364   23913024.4504
     -4129.3124      -3217.6464
  -2215528.46644  -1629276.52843  24382989.6924   24382995.5284
       810.9224        631.8874
  -7586641.68845  -5766149.21745  22981191.2314   22981195.7204
      1219.5944        950.3334
  -8042403.35045  -6089113.95545  23102544.1854   23102548.7084
      2144.2504       1670.8444
 98  6 26 20 14 15.0010000  0  7G 6G10G17G30G22G26G23
  -1415684.98746  -1063441.73146  20707498.4894   20707501.5134
      -727.2504       -566.6884
  13769732.79345  10670054.99245  23930577.4504   23930582.7594
     -3946.1414      -3074.9154
  -4660549.01246  -3579860.87046  21654403.9274   21654408.2044
       457.7814        356.7134
  15023421.18345  11637629.07645  23924807.4814   23924812.9894
     -4130.6094      -3218.6574
  -2227636.55844  -1638711.33042  24380686.2634   24380690.9744
       803.4224        626.0434
  -7604891.26945  -5780369.64145  22977718.8174   22977722.3924
      1213.5474        945.6214
  -8074534.05445  -6114150.82545  23096429.8414   23096435.3604
      2139.7814       1667.3624
 98  6 26 20 14 30.0010000  0  7G 6G10G17G30G22G26G23
  -1404719.16646  -1054896.93146  20709585.2394   20709588.2044
      -734.7344       -572.5204
  13828941.40645  10716191.56544  23941844.9744   23941850.7634
     -3948.1414      -3076.4734
  -4667391.68446  -3585192.81546  21653101.9814   21653106.3174
       454.7664        354.3634
  15085393.33545  11685919.03845  23936600.6694   23936605.5914
     -4132.1724      -3219.8744
  -2239629.34844  -1648056.41343  24378404.0524   24378408.7984
       795.8134        620.1144
  -7623045.74745  -5794515.96845  22974263.7784   22974267.6574
      1207.1724        940.6534
  -8106594.69545  -6139133.11145  23090328.8254   23090334.0404
      2135.0634       1663.6854
 98  6 26 20 14 45.0010000  0  7G 6G10G17G30G22G26G23
  -1393640.32246  -1046264.07046  20711693.4814   20711696.4814
      -742.3284       -578.4374
  13888177.72045  10762349.70444  23953117.1614   23953122.7284
     -3949.8594      -3077.8124
  -4674192.67846  -3590492.28446  21651807.8104   21651812.1924
       452.2344        352.3904
  15147386.16445  11734225.06945  23948397.1534   23948402.5094
     -4133.3284      -3220.7754
  -2251511.67644  -1657315.33943  24376142.9504   24376148.2004
       788.6094        614.5014
  -7641106.21345  -5808589.01945  22970826.5284   22970831.0874
      1201.0314        935.8694
  -8138584.08045  -6164059.87345  23084241.8024   23084246.8174
      2130.3284       1659.9964
 98  6 26 20 15  0.0010000  0  7G 6G10G17G30G22G26G23
  -1382446.32346  -1037541.46846  20713823.7714   20713826.9354
      -749.6724       -584.1604
  13947441.70145  10808529.42144  23964394.4274   23964400.6614
     -3951.5474      -3079.1274
  -4680955.15646  -3595761.74446  21650520.6464   21650525.2744
       449.8594        350.5404
  15209396.84045  11782544.99545  23960197.8174   23960203.7714
     -4134.3594      -3221.5794
  -2263283.21444  -1666487.94742  24373902.6304   24373907.3174
       781.3594        608.8514
  -7659071.68445  -5822588.05545  22967407.8414   22967412.9274
      1194.8134        931.0234
  -8170500.03745  -6188929.42245  23078168.0364   23078173.8844
      2125.6094       1656.3194
 98  6 26 20 15 15.0010000  0  7G 6G10G17G30G22G26G23
  -1371144.24346  -1028734.65346  20715974.4744   20715977.3804
      -757.0784       -589.9314
  14006730.99945  10854728.82444  23975677.4664   23975682.9034
     -3953.5624      -3080.6984
  -4687680.08946  -3601001.94346  21649241.1774   21649245.6424
       446.8914        348.2264
  15271425.00345  11830878.58345  23972001.5674   23972006.1384
     -4135.9534      -3222.8214
  -2274944.99144  -1675575.06442  24371682.9504   24371689.1964
       773.6724        602.8614
  -7676940.88545  -5836512.07545  22964007.4974   22964011.2124
      1187.8444        925.5934
  -8202346.09945  -6213744.50645  23072108.0994   23072113.2314
      2120.6254       1652.4354
 98  6 26 20 15 30.0010000  0  7G 6G10G17G30G22G26G23
  -1359737.12946  -1019845.99446  20718144.8104   20718147.8214
      -763.9374       -595.2764
  14066045.80645  10900948.13845  23986964.4354   23986969.4974
     -3955.1874      -3081.9644
  -4694364.28146  -3606210.39846  21647969.2554   21647973.5094
       444.2194        346.1444
  15333471.27945  11879226.33044  23983808.6224   23983813.9194
     -4136.9694      -3223.6124
  -2286496.20644  -1684576.00643  24369485.0834   24369489.6064
       766.3914        597.1884
  -7694708.38645  -5850356.86545  22960626.5214   22960630.4114
      1181.0004        920.2604
  -8234120.41445  -6238503.68845  23066061.6464   23066066.9314
      2115.8594       1648.7224
 98  6 26 20 15 45.0010000  0  7G 6G10G17G30G22G26G23
  -1348227.62946  -1010877.55046  20720334.9274   20720337.9624
      -771.2194       -600.9504
  14125386.38245  10947187.52844  23998256.5444   23998261.7594
     -3957.4374      -3083.7184
  -4701007.93446  -3611387.26646  21646704.9894   21646709.3604
       441.1094        343.7224
  15395532.70345  11927585.79945  23995618.4814   23995623.8494
     -4138.3284      -3224.6714
  -2297939.05644  -1693492.49242  24367307.7634   24367312.8024
       758.8754        591.3314
  -7712371.02845  -5864119.92745  22957265.1614   22957269.7434
      1173.4844        914.4034
  -8265824.12645  -6263207.83745  23060028.6144   23060033.1614
      2110.8754       1644.8384
 98  6 26 20 16  0.0010000  0  7G 6G10G17G30G22G26G23
  -1336612.38946  -1001826.71146  20722545.3334   20722548.4034
      -777.6254       -605.9424
  14184757.14845  10993450.44344  24009554.8174   24009560.1734
     -3958.8444      -3084.8134
  -4707610.29446  -3616531.95746  21645448.3964   21645452.7904
       439.0634        342.1274
  15457607.74945  11975955.89845  24007431.4664   24007435.7314
     -4138.5164      -3224.8174
  -2309275.26544  -1702325.84543  24365150.6924   24365155.1924
       752.4694        586.3394
  -7729925.07045  -5877798.37245  22953924.7634   22953929.4274
      1166.9064        909.2784
  -8297458.39945  -6287857.90445  23054008.3724   23054013.2594
      2106.8284       1641.6844
 98  6 26 20 16 15.0010000  0  7G 6G10G17G30G22G26G23
  -1324895.21546   -992696.44946  20724775.2634   20724778.6144
      -784.4844       -611.2874
  14244154.40745  11039733.99944  24020857.9034   24020862.6614
     -3960.5474      -3086.1404
  -4714176.38746  -3621648.38546  21644199.0914   21644203.5324
       436.5944        340.2034
  15519690.49445  12024332.06944  24019244.6064   24019248.6264
     -4138.9694      -3225.1704
  -2320508.89744  -1711079.31442  24363013.1694   24363019.0994
       745.5314        580.9334
  -7747373.66945  -5891394.64145  22950604.6924   22950609.6034
      1159.8284        903.7624
  -8329026.66745  -6312456.53545  23048001.1924   23048005.7394
      2102.5004       1638.3124
 98  6 26 20 16 30.0010000  0  7G 6G10G17G30G22G26G23
  -1313070.42346   -983482.31846  20727025.3644   20727028.6814
      -792.2974       -617.3744
  14303581.81545  11086041.05745  24032166.1464   24032170.2124
     -3963.2814      -3088.2714
  -4720701.12146  -3626732.58346  21642957.5604   21642961.8134
       433.2194        337.5734
  15581783.18645  12072715.91644  24031061.2004   24031067.1184
     -4140.2344      -3226.1574
  -2331632.30644  -1719746.94042  24360895.6304   24360901.7474
       737.4064        574.6024
  -7764714.52445  -5904906.96345  22947304.8964   22947309.2674
      1152.1414        897.7724
  -8360527.61645  -6337002.68545  23042007.0284   23042012.5364
      2097.4844       1634.4034
 98  6 26 20 16 45.0010000  0  7G 6G10G17G30G22G26G23
  -1301135.82846   -974182.63846  20729296.4894   20729299.6884
      -799.2814       -622.8174
  14363043.88845  11132375.12545  24043481.6854   24043486.4314
     -3965.2664      -3089.8174
  -4727182.27446  -3631782.83046  21641724.0284   21641728.2124
       430.6564        335.5764
  15643887.22245  12121108.63145  24042879.4814   24042883.6654
     -4140.5314      -3226.3884
  -2342640.03143  -1728324.37543  24358800.7244   24358806.3254
       730.0004        568.8314
  -7781947.73145  -5918335.42145  22944025.0674   22944028.6064
      1145.3134        892.4514
  -8391960.89845  -6361496.13145  23036025.0364   23036030.7204
      2093.3284       1631.1654
 98  6 26 20 17  0.0010000  0  7G 6G10G17G30G22G26G23
  -1289096.20446   -964801.11446  20731587.6384   20731590.7784
      -805.9374       -628.0034
  14422536.17245  11178732.70444  24054802.3884   24054807.3454
     -3966.9694      -3091.1444
  -4733624.06746  -3636802.40446  21640498.2784   21640502.3454
       428.2974        333.7384
  15705995.88745  12169504.92444  24054697.2944   24054703.1884
     -4140.6254      -3226.4614
  -2353535.23143  -1736814.11042  24356727.9424   24356732.9584
       722.7344        563.1704
  -7799077.45945  -5931683.22645  22940766.0444   22940770.3804
      1138.7344        887.3254
  -8423332.17646  -6385941.25145  23030055.6144   23030060.7824
      2089.5944       1628.2554
 98  6 26 20 17 15.0010000  0  7G 6G10G17G30G22G26G23
  -1276948.29246   -955335.20746  20733899.2314   20733902.4544
      -813.1724       -633.6404
  14482062.56145  11225116.90244  24066130.1854   24066135.5054
     -3969.2194      -3092.8984
  -4740020.89746  -3641786.94046  21639280.9974   21639285.3564
       425.2664        331.3764
  15768117.92945  12217911.67643  24066519.2944   24066525.1774
     -4141.6724      -3227.2774
  -2364312.39243  -1745211.86442  24354677.7634   24354683.8104
       714.9064        557.0704
  -7816100.98245  -5944948.27245  22937526.2634   22937531.1384
      1131.7344        881.8714
  -8454638.91045  -6410336.07645  23024098.2394   23024103.5014
      2085.3134       1624.9194
 98  6 26 20 17 30.0010000  0  7G 6G10G17G30G22G26G23
  -1264691.24646   -945784.26446  20736231.8104   20736234.8334
      -820.8284       -639.6064
  14541621.73545  11271526.61844  24077464.0834   24077469.0404
     -3971.6564      -3094.7974
  -4746373.67746  -3646737.15346  21638072.2244   21638076.5834
       422.1094        328.9164
  15830252.54945  12266328.22744  24078343.4974   24078348.2204
     -4142.5944      -3227.9954
  -2374975.06743  -1753520.46743  24352648.0674   24352653.3994
       707.1094        550.9944
  -7833021.13245  -5958132.77645  22934306.1144   22934310.9314
      1124.6724        876.3684
  -8485882.98845  -6434682.09045  23018152.4274   23018157.8414
      2080.8444       1621.4374
 98  6 26 20 17 45.0010000  0  7G 6G10G17G30G22G26G23
  -1252320.41946   -936144.65946  20738585.5834   20738588.8294
      -828.7344       -645.7674
  14601214.17045  11317962.27944  24088803.7944   24088809.9354
     -3974.0314      -3096.6484
  -4752682.48546  -3651653.09946  21636871.6774   21636875.9424
       418.9694        326.4694
  15892396.66444  12314752.14844  24090168.0604   24090173.9424
     -4143.4064      -3228.6284
  -2385524.00844  -1761740.37243  24350640.7084   24350645.7714
       699.3134        544.9194
  -7849841.27845  -5971239.36145  22931106.0054   22931109.0404
      1117.9224        871.1084
  -8517063.95445  -6458978.91445  23012218.9034   23012223.6034
      2076.6094       1618.1374
 98  6 26 20 18  0.0010000  0  7G 6G10G17G30G22G26G23
  -1239830.80846   -926412.49746  20740962.2714   20740965.4234
      -836.2974       -651.6604
  14660839.94145  11364423.88444  24100150.4814   24100155.4034
     -3975.7344      -3097.9754
  -4758945.35446  -3656533.25746  21635679.8254   21635684.0914
       416.3444        324.4244
  15954553.40345  12363185.86744  24101996.8414   24102000.7554
     -4143.8754      -3228.9944
  -2395955.67343  -1769868.95442  24348655.4974   24348661.7084
       691.8594        539.1114
  -7866562.01745  -5984268.49545  22927923.3494   22927927.1814
      1111.7664        866.3114
  -8548183.69145  -6483228.03045  23006297.3174   23006302.2394
      2072.9534       1615.2884
 98  6 26 20 18 15.0010000  0  7G 6G10G17G30G22G26G23
  -1227224.26946   -916589.21646  20743361.5284   20743364.6464
      -844.2664       -657.8694
  14720492.64645  11410906.48644  24111501.9584   24111507.3964
     -3977.6564      -3099.4724
  -4765163.82946  -3661378.81446  21634496.5604   21634500.6964
       413.0784        321.8794
  16016721.00245  12411628.17744  24113826.9504   24113830.9584
     -4144.9224      -3229.8094
  -2406270.76243  -1777906.65143  24346692.7164   24346697.5214
       683.7194        532.7684
  -7883187.78045  -5997223.61245  22924759.7164   22924764.0994
      1105.2974        861.2704
  -8579243.73745  -6507430.63145  23000386.7084   23000391.9934
      2068.6254       1611.9164
 98  6 26 20 18 30.0010000  0  7G 6G10G17G30G22G26G23
  -1214502.72746   -906676.32746  20745781.9974   20745785.0674
      -851.6094       -663.5924
  14780169.20745  11457407.68444  24122858.0284   24122863.9234
     -3978.8914      -3100.4344
  -4771337.06746  -3666189.13046  21633321.9424   21633326.2434
       410.3444        319.7484
  16078901.48044  12460080.39344  24125659.3024   24125665.7714
     -4145.4844      -3230.2484
  -2416466.04944  -1785851.02443  24344752.3724   24344755.6654
       675.9844        526.7414
  -7899720.45945  -6010106.17645  22921613.7864   22921618.2634
      1099.3594        856.6444
  -8610242.59045  -6531585.56445  22994487.8104   22994493.2474
      2064.8594       1608.9814
 98  6 26 20 18 45.0010000  0  7G 6G10G17G30G22G26G23
  -1201662.74546   -896671.14846  20748225.5444   20748228.7204
      -859.7504       -669.9354
  14839873.55345  11503930.53844  24134219.3104   24134224.5134
     -3981.0164      -3102.0904
  -4777460.96446  -3670960.98946  21632156.2394   21632160.3884
       406.8444        317.0214
  16141098.30245  12508545.35344  24137495.9274   24137499.2554
     -4146.7974      -3231.2704
  -2426537.34544  -1793698.78542  24342836.7944   24342842.0444
       667.5474        520.1664
  -7916154.44845  -6022911.84645  22918486.3254   22918490.2394
      1092.4694        851.2744
  -8641175.78545  -6555689.32645  22988601.5134   22988606.9384
      2060.1884       1605.3414
 98  6 26 20 19  0.0010000  0  7G 6G10G17G30G22G26G23
  -1188705.94746   -886574.93646  20750691.2944   20750694.5524
      -867.6724       -676.1084
  14899602.48245  11550472.53344  24145585.3804   24145591.7204
     -3982.6564      -3103.3694
  -4783537.74746  -3675696.14046  21631000.0444   21631004.4504
       403.5474        314.4524
  16203307.64445  12557020.21245  24149333.7864   24149337.6654
     -4147.5784      -3231.8794
  -2436489.00843  -1801453.30743  24340941.5524   24340946.8024
       659.5314        513.9204
  -7932489.37845  -6035640.34545  22915378.0444   22915382.4154
      1085.7034        846.0024
  -8672044.15845  -6579742.56345  22982727.0674   22982732.2474
      2055.7504       1601.8834
 98  6 26 20 19 15.0010000  0  7G 6G10G17G30G22G26G23
  -1175636.46846   -876390.92546  20753178.2084   20753181.7004
      -874.6724       -681.5624
  14959349.13145  11597028.34044  24156954.5444   24156958.5754
     -3983.3284      -3103.8924
  -4789570.39546  -3680396.89546  21629851.8964   21629856.2554
       401.0784        312.5284
  16265523.06544  12605499.65944  24161171.9424   24161178.0364
     -4147.5944      -3231.8914
  -2446327.11144  -1809119.35843  24339069.2004   24339074.8724
       652.5004        508.4424
  -7948730.05745  -6048295.37845  22912287.7004   22912292.8684
      1080.0004        841.5584
  -8702850.39445  -6603747.41145  22976864.7944   22976869.6814
      2051.9694       1598.9374
 98  6 26 20 19 30.0010000  0  7G 6G10G17G30G22G26G23
  -1162461.32346   -866124.57446  20755685.4814   20755688.8454
      -882.0004       -687.2734
  15019107.37645  11643593.19444  24168325.8964   24168330.8884
     -3984.4224      -3104.7444
  -4795564.81846  -3685067.87146  21628711.2944   21628715.3494
       398.1884        310.2764
  16327737.97745  12653978.71645  24173012.8724   24173017.6304
     -4147.6724      -3231.9524
  -2456057.63144  -1816701.55142  24337218.8964   24337223.8884
       644.9224        502.5374
  -7964882.52545  -6060881.69145  22909213.9424   22909218.2554
      1073.6724        836.6274
  -8733597.46246  -6627706.12545  22971013.8334   22971018.6494
      2047.6884       1595.6014
 98  6 26 20 19 45.0010000  0  7G 6G10G17G30G22G26G23
  -1149172.53846   -855769.67646  20758214.0134   20758217.3764
      -889.5314       -693.1414
  15078885.70445  11690173.69443  24179701.8334   24179707.0364
     -3985.7664      -3105.7914
  -4801511.38146  -3689701.55346  21627579.8884   21627584.1884
       394.9224        307.7314
  16389957.12245  12702461.17245  24184851.7084   24184856.3604
     -4148.0004      -3232.2084
  -2465669.91744  -1824191.63843  24335389.3564   24335394.3724
       636.9064        496.2914
  -7980935.02145  -6073390.11945  22906159.3804   22906162.9194
      1066.8754        831.3314
  -8764275.74445  -6651611.25445  22965176.1064   22965180.9354
      2042.9694       1591.9244
 98  6 26 20 20  0.0010000  0  7G 6G10G17G30G22G26G23
  -1135776.28246   -845331.03946  20760763.5364   20760766.7004
      -896.8594       -698.8514
  15138680.87145  11736767.30543  24191080.7784   24191085.7124
     -3987.2034      -3106.9124
  -4807412.52046  -3694299.83746  21626456.9424   21626461.1384
       391.6414        305.1754
  16452178.81545  12750945.51643  24196692.1854   24196697.3534
     -4148.5314      -3232.6224
  -2475163.64444  -1831589.31943  24333582.6144   24333589.1304
       628.6094        489.8254
  -7996887.20745  -6085820.36545  22903123.3494   22903126.4194
      1059.7344        825.7674
  -8794885.29646  -6675462.81945  22959351.1534   22959355.7714
      2038.0004       1588.0524
 98  6 26 20 20 15.0010000  0  7G 6G10G17G30G22G26G23
  -1122275.32946   -834810.81746  20763332.5524   20763335.9504
      -903.1564       -703.7584
  15198494.15045  11783375.03744  24202462.7244   24202467.0604
     -3987.8594      -3107.4234
  -4813269.42646  -3698863.65646  21625342.0214   21625346.2634
       389.3594        303.3974
  16514404.66245  12799433.16244  24208533.9974   24208539.0014
     -4148.1724      -3232.3424
  -2484535.73844  -1838892.26343  24331799.2394   24331804.8064
       621.0784        483.9574
  -8012734.14445  -6098168.60145  22900107.7244   22900111.6144
      1053.2194        820.6904
  -8825421.98746  -6699257.61545  22953540.4354   22953545.4034
      2033.5944       1584.6194
 98  6 26 20 20 30.0010000  0  7G 6G10G17G30G22G26G23
  -1108676.86346   -824214.61146  20765920.3494   20765923.7124
      -909.4374       -708.6534
  15258324.18445  11829995.79743  24213848.2554   24213854.0324
     -3988.9694      -3108.2874
  -4819087.35146  -3703397.09646  21624235.0914   21624239.3924
       386.9534        301.5224
  16576629.36545  12847919.89545  24220374.8964   24220380.6964
     -4147.9374      -3232.1594
  -2493789.58243  -1846102.99443  24330038.7164   24330041.7744
       613.3134        477.9064
  -8028477.34645  -6110436.00445  22897112.1224   22897115.6494
      1046.3594        815.3454
  -8855886.02945  -6722995.80745  22947743.2474   22947748.6854
      2028.7974       1580.8814
 98  6 26 20 20 45.0010000  0  7G 6G10G17G30G22G26G23
  -1094980.10346   -813541.81346  20768526.6384   20768529.6144
      -916.4064       -714.0834
  15318175.19045  11876632.95544  24225237.4504   24225243.4624
     -3990.7664      -3109.6874
  -4824867.84646  -3707901.37646  21623135.2784   21623139.6144
       384.2194        299.3914
  16638854.43845  12896406.85445  24232215.3024   24232220.5054
     -4148.3124      -3232.4514
  -2502925.73543  -1853222.09043  24328299.4504   24328304.4664
       605.2814        471.6484
  -8044113.24445  -6122619.79745  22894137.0674   22894140.8414
      1038.8134        809.4644
  -8886274.97045  -6746675.48045  22941960.1224   22941965.1614
      2023.4694       1576.7294
 98  6 26 20 21  0.0010000  0  7G 6G10G17G30G22G26G23
  -1081182.19646   -802790.19346  20771152.4354   20771155.5874
      -922.8914       -719.1364
  15378049.64945  11923288.33143  24236631.3564   24236636.2784
     -3992.0944      -3110.7224
  -4830611.83346  -3712377.20046  21622042.2394   21622046.4464
       382.0784        297.7234
  16701080.90245  12944894.98244  24244056.6924   24244061.1814
     -4148.1414      -3232.3174
  -2511946.63643  -1860251.34442  24326583.1854   24326589.7714
       597.9534        465.9384
  -8059640.35145  -6134718.81845  22891182.2164   22891185.4974
      1031.8594        804.0464
  -8916587.86745  -6770295.87845  22936191.5754   22936196.0284
      2018.6564       1572.9794
 98  6 26 20 21 15.0010000  0  7G 6G10G17G30G22G26G23
  -1067283.88146   -791960.33746  20773797.0754   20773800.2394
      -929.9224       -724.6144
  15437947.40445  11969961.92044  24248029.5284   24248034.7784
     -3993.9844      -3112.1964
  -4836320.30746  -3716825.35546  21620955.7164   21620960.1224
       379.3754        295.6174
  16763308.55645  12993384.05143  24255898.2394   24255904.2864
     -4148.5784      -3232.6584
  -2520853.87744  -1867192.03343  24324888.5994   24324894.8924
       590.0004        459.7404
  -8075059.03745  -6146733.36545  22888248.2004   22888252.3724
      1024.2814        798.1414
  -8946824.16646  -6793856.60145  22930438.1614   22930443.1424
      2013.1094       1568.6574
 98  6 26 20 21 30.0010000  0  7G 6G10G17G30G22G26G23
  -1053279.84846   -781048.10546  20776462.0754   20776465.3924
      -936.8594       -730.0204
  15497874.46745  12016658.28143  24259432.6064   24259438.4424
     -3995.8444      -3113.6444
  -4841990.04646  -3721243.32846  21619876.8414   21619881.2004
       377.0474        293.8034
  16825544.57345  13041879.54045  24267742.0054   24267747.4894
     -4149.1094      -3233.0724
  -2529642.02644  -1874039.93943  24323215.8964   24323221.3104
       582.1724        453.6404
  -8090364.37645  -6158659.56445  22885335.2864   22885339.7284
      1016.8444        792.3464
  -8976976.88846  -6817352.20345  22924700.3104   22924705.1384
      2007.7344       1564.4684
 98  6 26 20 21 45.0010000  0  7G 6G10G17G30G22G26G23
  -1039170.53246   -770053.82946  20779146.7474   20779150.1694
      -944.0314       -735.6094
  15557828.94545  12063376.05144  24270842.0914   24270848.5604
     -3997.6724      -3115.0694
  -4847625.21546  -3725634.36246  21618804.6384   21618808.9974
       374.6884        291.9644
  16887787.38245  13090380.38044  24279585.3724   24279590.6464
     -4149.5624      -3233.4254
  -2538313.10244  -1880796.59643  24321566.0524   24321571.0564
       574.3914        447.5774
  -8105558.23745  -6170498.91145  22882444.2634   22882448.7634
      1009.3594        786.5144
  -9007050.69746  -6840786.32645  22918977.5444   22918982.9354
      2002.5164       1560.4024
 98  6 26 20 22  0.0010000  0  7G 6G10G17G30G22G26G23
  -1024952.47046   -758974.82646  20781852.4664   20781855.8644
      -951.2344       -741.2224
  15617812.29545  12110116.27844  24282256.7314   24282261.9234
     -3999.5944      -3116.5674
  -4853223.68146  -3729996.80246  21617739.2784   21617743.6384
       372.2814        290.0894
  16950039.38545  13138888.41244  24291431.8254   24291437.5214
     -4150.1724      -3233.9004
  -2546867.54344  -1887462.38143  24319938.1774   24319943.9194
       566.6724        441.5634
  -8120638.55145  -6182249.79545  22879574.4354   22879578.3604
      1001.9064        780.7064
  -9037043.97946  -6864157.68145  22913269.7084   22913274.8534
      1997.1414       1556.2134
 98  6 26 20 22 15.0010000  0  7G 6G10G17G30G22G26G23
  -1010628.20246   -747813.06246  20784578.3804   20784581.5094
      -958.7814       -747.1024
  15677820.73945  12156876.10643  24293675.5524   24293680.6264
     -4001.5944      -3118.1254
  -4858789.33846  -3734333.67346  21616680.0914   21616684.6144
       369.7194        288.0934
  17012296.65244  13187400.46843  24303279.2314   24303285.7354
     -4150.8754      -3234.4484
  -2555308.66244  -1894039.87043  24318331.6304   24318336.7394
       558.7814        435.4144
  -8135611.06145  -6193916.65145  22876725.3334   22876729.3534
       994.3754        774.8384
  -9066961.73646  -6887470.20345  22907576.6924   22907581.5444
      1991.8134       1552.0624
 98  6 26 20 22 30.0010000  0  7G 6G10G17G30G22G26G23
   -996193.36146   -736565.13146  20787325.2784   20787328.6304
      -966.0004       -752.7274
  15737855.44345  12203656.35743  24305099.8334   24305105.8454
     -4003.1564      -3119.3434
  -4864319.75246  -3738643.08446  21615627.7244   21615631.9784
       367.5164        286.3764
  17074560.44645  13235917.64944  24315128.3024   24315133.1184
     -4151.0624      -3234.5944
  -2563636.79744  -1900529.30843  24316746.9974   24316751.3214
       551.5784        429.8014
  -8150476.14845  -6205499.80645  22873896.4034   22873900.6224
       987.4694        769.4564
  -9096804.09145  -6910723.96145  22901897.9034   22901902.8604
      1987.1094       1548.3974
 98  6 26 20 22 45.0010000  0  7G 6G10G17G30G22G26G23
   -981645.59446   -725229.21146  20790093.4584   20790096.7394
      -973.6094       -758.6574
  15797915.68845  12250456.53743  24316528.3104   24316534.2394
     -4004.6724      -3120.5244
  -4869812.65646  -3742923.26746  21614582.5214   21614586.8334
       365.0634        284.4644
  17136829.50144  13284439.00144  24326977.0834   24326981.9934
     -4151.3594      -3234.8254
  -2571855.25944  -1906933.30743  24315182.6384   24315186.6464
       544.3594        424.1764
  -8165235.58745  -6217000.65045  22871087.5214   22871091.9274
       980.5634        764.0754
  -9126573.82046  -6933921.11945  22896232.3964   22896236.8844
      1982.3444       1544.6834
 98  6 26 20 23  0.0010000  0  7G 6G10G17G30G22G26G23
   -966985.52046   -713805.77946  20792883.1854   20792886.3844
      -981.1874       -764.5624
  15857994.99645  12297271.54443  24327961.9034   24327967.6464
     -4006.0004      -3121.5584
  -4875271.19646  -3747176.66946  21613543.8334   21613548.1104
       362.5474        282.5044
  17199100.69044  13332961.91143  24338826.9504   24338832.3534
     -4151.5474      -3234.9724
  -2579967.32144  -1913254.35044  24313639.2784   24313645.0564
       537.0944        418.5154
  -8179893.01445  -6228422.00045  22868298.7004   22868302.8844
       973.6564        758.6934
  -9156276.57946  -6957066.10445  22890580.5914   22890585.1964
      1977.8914       1541.2134
 98  6 26 20 23 15.0010000  0  7G 6G10G17G30G22G26G23
   -952211.73046   -702293.73846  20795694.5444   20795697.7084
      -988.6874       -770.4064
  15918094.54845  12344102.34443  24339398.3644   24339404.8804
     -4007.3284      -3122.5934
  -4880688.56946  -3751397.99546  21612512.9814   21612517.0954
       359.7194        280.3004
  17261374.36045  13381486.73444  24350677.0914   24350683.4074
     -4151.6724      -3235.0694
  -2587967.47844  -1919488.25344  24312116.5444   24312121.8764
       529.5314        412.6224
  -8194445.41446  -6239761.52045  22865529.3964   22865533.1344
       966.5784        753.1784
  -9185911.84346  -6980158.47945  22884941.0754   22884945.9974
      1973.4384       1537.7444
 98  6 26 20 23 30.0010000  0  7G 6G10G17G30G22G26G23
   -937327.88146   -690695.93346  20798527.0994   20798530.0524
      -995.8444       -775.9824
  15978211.02045  12390946.34344  24350838.1064   24350844.2124
     -4008.2344      -3123.3004
  -4886066.00946  -3755588.20646  21611489.5994   21611493.8534
       357.2504        278.3774
  17323647.99044  13430011.64743  24362527.6064   24362533.1034
     -4151.4844      -3234.9234
  -2595855.25944  -1925634.54643  24310615.8964   24310621.0754
       522.1724        406.8874
  -8208893.50845  -6251019.75045  22862779.9814   22862784.7984
       959.8284        747.9184
  -9215482.34246  -7003200.40545  22879314.1144   22879318.8724
      1969.2814       1534.5054
 98  6 26 20 23 45.0010000  0  7G 6G10G17G30G22G26G23
   -922337.58546   -679015.17946  20801379.5674   20801382.7434
     -1003.3124       -781.8024
  16038340.89845  12437800.74844  24362280.3724   24362285.6574
     -4009.5474      -3124.3224
  -4891405.50946  -3759748.85046  21610473.4194   21610477.6034
       354.2034        276.0024
  17385918.30145  13478533.89743  24374378.3414   24374385.3994
     -4151.6564      -3235.0574
  -2603632.46544  -1931694.70143  24309135.9114   24309140.4934
       514.3284        400.7754
  -8223241.05745  -6262199.62545  22860050.1224   22860053.9074
       952.6254        742.3054
  -9244992.27246  -7026195.12745  22873698.6854   22873703.7474
      1964.9384       1531.1204
 98  6 26 20 24  0.0010000  0  7G 6G10G17G30G22G26G23
   -907240.63346   -667251.32946  20804252.4974   20804255.4504
     -1010.2344       -787.1964
  16098485.45345  12484666.59744  24373725.2784   24373730.5054
     -4010.3754      -3124.9684
  -4896704.08146  -3763877.60446  21609465.2004   21609469.4784
       351.5944        273.9694
  17448185.39945  13527053.66744  24386226.6924   24386232.4934
     -4151.3284      -3234.8014
  -2611298.21444  -1937667.97843  24307676.5604   24307682.4424
       507.0944        395.1384
  -8237483.87446  -6273297.91145  22857339.4114   22857343.1614
       945.7194        736.9244
  -9274442.60846  -7049143.41145  22868094.2784   22868099.4704
      1961.0634       1528.1014
 98  6 26 20 24 15.0010000  0  7G 6G10G17G30G22G26G23
   -892034.31746   -655402.25546  20807145.8724   20807149.3174
     -1017.1254       -792.5654
  16158650.02045  12531548.08244  24385174.4114   24385180.7164
     -4011.4064      -3125.7714
  -4901955.76746  -3767969.82146  21608465.8644   21608470.4814
       348.7814        271.7784
  17510454.38244  13575574.90343  24398075.6774   24398081.6184
     -4151.0314      -3234.5704
  -2618846.79444  -1943549.98743  24306240.6064   24306246.1854
       499.5474        389.2574
  -8251614.72045  -6284308.95645  22854650.2474   22854654.7474
       938.5944        731.3724
  -9303827.19846  -7072040.46645  22862502.4114   22862506.8174
      1957.0634       1524.9844
 98  6 26 20 24 30.0010000  0  7G 6G10G17G30G22G26G23
   -876721.28446   -643470.02046  20810059.9664   20810063.3064
     -1024.6724       -798.4464
  16218832.01745  12578443.09344  24396626.8724   24396632.3104
     -4012.9374      -3126.9644
  -4907163.65046  -3772027.90646  21607474.7084   21607479.3494
       345.5314        269.2454
  17572721.62645  13624094.78043  24409925.7394   24409931.6224
     -4151.3124      -3234.7894
  -2626279.72244  -1949341.84743  24304826.4424   24304832.1964
       491.4694        382.9634
  -8265635.27546  -6295234.00945  22851982.4974   22851987.4894
       930.6884        725.2114
  -9333149.11946  -7094888.69645  22856922.6304   22856926.8374
      1952.4384       1521.3804
 98  6 26 20 24 45.0010000  0  7G 6G10G17G30G22G26G23
   -861300.79846   -631454.06246  20812994.5914   20812997.8844
     -1031.0624       -803.4254
  16279032.60645  12625352.61843  24408082.3644   24408088.1184
     -4013.4694      -3127.3784
  -4912328.60246  -3776052.54346  21606491.7164   21606496.0994
       343.4844        267.6504
  17634988.49644  13672614.34944  24421774.0834   24421780.8684
     -4150.5624      -3234.2054
  -2633596.39244  -1955043.15543  24303434.0754   24303438.7044
       484.4384        377.4844
  -8279540.78246  -6306069.46345  22849336.0994   22849339.7904
       923.7194        719.7814
  -9362406.59746  -7117686.69545  22851355.4034   22851359.8924
      1948.8914       1518.6164
 98  6 26 20 25  0.0010000  0  7G 6G10G17G30G22G26G23
   -845777.73346   -619358.16646  20815948.2864   20815951.5674
     -1038.5314       -809.2454
  16339245.78545  12672271.97143  24419540.3964   24419546.4664
     -4014.8124      -3128.4254
  -4917456.82646  -3780048.56046  21605515.9274   21605520.3454
       340.4534        265.2884
  17697250.29344  13721129.98942  24433622.6064   24433628.5134
     -4150.9064      -3234.4724
  -2640798.81344  -1960655.41843  24302062.8414   24302068.9704
       476.0314        370.9334
  -8293334.52245  -6316817.82345  22846711.0284   22846715.3534
       915.5944        713.4504
  -9391602.69646  -7140436.88045  22845799.5674   22845804.1614
      1944.0314       1514.8304
 98  6 26 20 25 15.0010000  0  7G 6G10G17G30G22G26G23
   -830142.55246   -607174.91446  20818923.5364   20818926.7354
     -1046.0004       -815.0654
  16399480.55445  12719208.10443  24431003.4424   24431008.9974
     -4016.2974      -3129.5824
  -4922538.67546  -3784008.43946  21604548.8804   21604553.1574
       337.3134        262.8414
  17759518.26845  13769650.45543  24445471.6694   24445476.1924
     -4151.2814      -3234.7654
  -2647874.49244  -1966168.93344  24300717.6384   24300722.8644
       467.5944        364.3594
  -8307006.01146  -6327470.88545  22844109.6224   22844114.0634
       907.4694        707.1194
  -9420725.59846  -7163130.03345  22840257.2714   22840262.1464
      1939.2034       1511.0674
 98  6 26 20 25 30.0010000  0  7G 6G10G17G30G22G26G23
   -814403.75246   -594910.91646  20821918.6694   20821921.9384
     -1052.6414       -820.2394
  16459728.77544  12766154.77043  24442468.4034   24442473.7474
     -4016.8914      -3130.0454
  -4927584.12146  -3787939.95746  21603588.7634   21603593.1924
       335.3134        261.2824
  17821781.67645  13818167.37043  24457320.0524   24457326.2044
     -4150.6564      -3234.2784
  -2654834.14044  -1971592.00844  24299393.2944   24299398.1104
       460.2504        358.6364
  -8320565.87046  -6338037.00345  22841528.9974   22841532.7714
       900.4384        701.6404
  -9449784.45546  -7185773.26845  22834727.4114   22834732.0994
      1935.1884       1507.9384
 98  6 26 20 25 45.0020000  0  7G 6G10G17G30G22G26G23
   -798553.59246   -582560.14446  20824934.7684   20824938.1314
     -1060.7974       -826.5954
  16519999.35444  12813118.82143  24453936.9084   24453942.8034
     -4018.8444      -3131.5674
  -4932590.35746  -3791840.91846  21602635.9474   21602640.3894
       331.9064        258.6284
  17884049.30845  13866687.47344  24469169.4084   24469175.7484
     -4151.2974      -3234.7774
  -2661675.10544  -1976922.64244  24298089.8694   24298094.2524
       451.6254        351.9164
  -8334013.37145  -6348515.56245  22838970.4634   22838974.5764
       892.2344        695.2484
  -9478773.92746  -7208362.42945  22829210.9554   22829216.0534
      1929.6564       1503.6284
 98  6 26 20 26  0.0020000  0  7G 6G10G17G30G22G26G23
   -782592.16546   -570122.66846  20827972.4084   20827975.6784
     -1067.7344       -832.0014
  16580283.51744  12860093.45443  24465408.3224   24465414.3464
     -4019.3754      -3131.9814
  -4937556.18946  -3795710.40046  21601691.1354   21601695.6004
       329.9384        257.0944
  17946310.35745  13915202.54943  24481017.0184   24481021.0144
     -4150.5314      -3234.1804
  -2668397.01544  -1982160.48243  24296811.6044   24296817.6154
       444.3134        346.2184
  -8347347.50446  -6358905.77045  22836432.8694   22836436.7604
       885.3134        689.8544
  -9507690.72546  -7230894.98145  22823708.4164   22823712.9984
      1925.5634       1500.4384
 98  6 26 20 26 15.0020000  0  7G 6G10G17G30G22G26G23
   -766519.75446   -557598.71846  20831030.4794   20831033.6544
     -1075.4374       -838.0034
  16640581.80744  12907079.13243  24476883.3384   24476889.3964
     -4020.6414      -3132.9674
  -4942486.43846  -3799552.14846  21600753.0184   21600757.6114
       327.1884        254.9514
  18008566.41745  13963713.72043  24492863.6974   24492869.1234
     -4150.5004      -3234.1564
  -2675002.39944  -1987307.48943  24295555.3224   24295561.1464
       436.1094        339.8254
  -8360572.18145  -6369210.69545  22833916.1974   22833920.7684
       877.7504        683.9614
  -9536538.33046  -7253373.61045  22818218.8544   22818223.6464
      1920.5164       1496.5064
 98  6 26 20 26 30.0020000  0  7G 6G10G17G30G22G26G23
   -750336.92746   -544988.72146  20834110.1274   20834113.4084
     -1082.2814       -843.3364
  16700895.12844  12954076.46543  24488361.1824   24488367.3114
     -4021.0164      -3133.2594
  -4947380.02446  -3803365.33246  21599821.8224   21599826.3344
       325.4064        253.5634
  18070816.61345  14012220.33843  24504709.9634   24504715.0494
     -4149.4844      -3233.3644
  -2681488.20844  -1992361.34643  24294320.6044   24294326.4634
       428.6884        334.0424
  -8373688.81145  -6379431.41345  22831420.3854   22831424.7444
       871.2194        678.8724
  -9565314.53146  -7275796.59845  22812742.9944   22812748.1274
      1916.3444       1493.2554
 98  6 26 20 26 45.0020000  0  7G 6G10G17G30G22G26G23
   -734036.38946   -532287.00546  20837211.8544   20837215.1114
     -1090.4224       -849.6794
  16761226.36844  13001087.79143  24499841.7364   24499848.1824
     -4022.5004      -3134.4164
  -4952234.33546  -3807147.91246  21598898.0644   21598902.3894
       322.4844        251.2874
  18133065.08945  14060725.59243  24516555.7294   24516560.9904
     -4149.6254      -3233.4744
  -2687847.85945  -1997316.94343  24293110.1354   24293114.8934
       419.9534        327.2364
  -8386695.28446  -6389566.30345  22828945.2054   22828949.3074
       863.7034        673.0154
  -9594013.90546  -7298159.71945  22807281.6504   22807286.3384
      1910.9384       1489.0424
 98  6 26 20 27  0.0020000  0  7G 6G10G17G30G22G26G23
   -717626.19046   -519499.83446  20840334.3614   20840337.4554
     -1097.4224       -855.1344
  16821567.94844  13048107.19043  24511323.8614   24511328.5724
     -4022.8594      -3134.6964
  -4957054.20846  -3810903.65146  21597980.7294   21597985.3224
       320.3284        249.6064
  18195303.69144  14109223.13843  24528398.9944   24528403.9634
     -4148.5944      -3232.6704
  -2694088.71245  -2002179.94444  24291923.0254   24291927.9004
       412.3914        321.3434
  -8399601.94945  -6399623.44045  22826489.0724   22826494.4754
       857.4064        668.1094
  -9622644.08946  -7320468.93945  22801833.7134   22801838.2254
      1906.5634       1485.6334
 98  6 26 20 27 15.0020000  0  7G 6G10G17G30G22G26G23
   -701104.28146   -506625.62746  20843478.6434   20843481.8424
     -1105.5474       -861.4654
  16881921.49844  13095135.90042  24522809.4714   24522813.3264
     -4024.3914      -3135.8894
  -4961835.26946  -3814629.14646  21597071.1434   21597075.8184
       317.0944        247.0864
  18257531.70245  14157712.40044  24540240.9004   24540246.3734
     -4148.4694      -3232.5734
  -2700210.64344  -2006950.26143  24290757.5254   24290762.8814
       403.9694        314.7814
  -8412408.64046  -6409602.62745  22824051.8544   22824056.1434
       850.1094        662.4234
  -9651201.74346  -7342721.62345  22796399.0184   22796403.3074
      1901.1724       1481.4334
 98  6 26 20 27 30.0020000  0  7G 6G10G17G30G22G26G23
   -684460.18746   -493656.20646  20846646.1194   20846649.3074
     -1113.5784       -867.7234
  16942300.13944  13142184.16343  24534297.8614   24534303.4164
     -4025.9844      -3137.1314
  -4966567.32746  -3818316.46246  21596170.4864   21596175.0804
       313.9694        244.6514
  18319756.85744  14206199.49843  24552081.5184   24552086.6974
     -4148.1094      -3232.2934
  -2706209.80744  -2011624.93543  24289615.8614   24289621.8964
       396.0314        308.5964
  -8425106.44846  -6419497.00645  22821635.5804   22821638.1824
       843.0314        656.9074
  -9679680.86746  -7364913.12845  22790979.8774   22790984.8814
      1896.1094       1477.4884
 98  6 26 20 27 45.0020000  0  7G 6G10G17G30G22G26G23
   -667697.81646   -480594.62046  20849835.8694   20849839.1154
     -1121.5164       -873.9084
  17002699.07445  13189248.23643  24545791.8694   24545797.2134
     -4027.3444      -3138.1904
  -4971255.25646  -3821969.39246  21595278.4554   21595283.0254
       310.8914        242.2524
  18381973.54144  14254680.00343  24563921.3224   24563926.9594
     -4147.6564      -3231.9404
  -2712091.94844  -2016208.40443  24288497.2994   24288501.2254
       388.0944        302.4114
  -8437700.35045  -6429310.42445  22819239.0884   22819243.6824
       835.9384        651.3804
  -9708084.89346  -7387046.09845  22785574.6974   22785579.3384
      1890.8754       1473.4094
 98  6 26 20 28  0.0020000  0  7G 6G10G17G30G22G26G23
   -650822.27346   -467444.84946  20853047.0644   20853050.2874
     -1128.7194       -879.5214
  17063113.18045  13236324.16143  24557288.6664   24557293.4594
     -4028.0314      -3138.7264
  -4975901.95046  -3825590.19046  21594394.1824   21594398.6354
       308.4694        240.3654
  18444178.04545  14303150.96144  24575758.4474   24575764.1894
     -4146.4844      -3231.0274
  -2717860.11645  -2020703.05243  24287398.7604   24287403.6824
       380.7814        296.7134
  -8450189.52746  -6439042.21245  22816862.8854   22816868.1114
       829.0474        646.0114
  -9736414.29946  -7409120.93645  22780183.7994   22780188.7684
      1886.2344       1469.7934
 98  6 26 20 28 15.0020000  0  7G 6G10G17G30G22G26G23
   -633836.69946   -454209.34046  20856279.4944   20856282.7174
     -1135.9694       -885.1704
  17123540.41145  13283410.27043  24568787.7364   24568792.9284
     -4028.8754      -3139.3834
  -4980508.95246  -3829180.05946  21593517.4944   21593521.8304
       305.8594        238.3324
  18506370.66444  14351612.72243  24587592.7524   24587598.6354
     -4145.8284      -3230.5154
  -2723514.49144  -2025109.08643  24286323.4634   24286329.2644
       373.2194        290.8204
  -8462569.74746  -6448689.12445  22814506.4714   22814510.6434
       821.7344        640.3134
  -9764671.09346  -7431139.20045  22774806.2054   22774810.8694
      1881.3444       1465.9824
 98  6 26 20 28 30.0020000  0  7G 6G10G17G30G22G26G23
   -616744.29146   -440890.57546  20859531.8464   20859535.3264
     -1142.9844       -890.6374
  17183978.62545  13330504.97443  24580288.7834   24580293.6704
     -4029.5004      -3139.8704
  -4985078.13746  -3832740.45546  21592647.9554   21592652.5494
       303.4224        236.4334
  18568551.82344  14400065.47043  24599425.9084   24599431.4864
     -4144.9064      -3229.7974
  -2729058.42944  -2029429.01543  24285267.9554   24285272.5024
       366.0474        285.2314
  -8474843.40545  -6458252.99545  22812171.1354   22812175.8464
       814.7344        634.8584
  -9792855.31046  -7453100.89845  22769443.1044   22769447.4394
      1876.6094       1462.2934
 98  6 26 20 28 45.0020000  0  7G 6G10G17G30G22G26G23
   -599543.51446   -427487.37646  20862805.2054   20862808.5804
     -1150.2034       -896.2624
  17244427.11345  13377607.68143  24591792.1434   24591797.5684
     -4029.9694      -3140.2354
  -4989610.19746  -3836271.92546  21591785.6584   21591790.2054
       301.1254        234.6434
  18630721.14944  14448509.05443  24611256.7604   24611262.5614
     -4144.0474      -3229.1274
  -2734493.32644  -2033664.02443  24284233.0964   24284237.7364
       358.9064        279.6674
  -8487008.76746  -6467732.46345  22809856.0024   22809860.2794
       807.6254        629.3184
  -9820966.86646  -7475005.97945  22764093.6824   22764097.9364
      1871.8444       1458.5804
 98  6 26 20 29  0.0020000  0  7G 6G10G17G30G22G26G23
   -582232.35546   -413998.16446  20866099.4004   20866102.7874
     -1157.7974       -902.1794
  17304885.78645  13424718.33043  24603296.4714   24603301.9434
     -4031.0474      -3141.0754
  -4994103.61246  -3839773.28146  21590930.4244   21590934.9824
       298.1564        232.3304
  18692881.62643  14496945.75443  24623084.5644   24623090.2134
     -4143.8594      -3228.9814
  -2739819.08444  -2037813.91843  24283219.9944   24283224.7994
       351.4224        273.8354
  -8499062.95445  -6477125.33545  22807561.8074   22807565.6154
       799.6884        623.1334
  -9849003.85546  -7496852.96445  22758758.5884   22758763.2524
      1866.5944       1454.4894
 98  6 26 20 29 15.0020000  0  7G 6G10G17G30G22G26G23
   -564807.70046   -400420.51146  20869415.1824   20869418.3464
     -1164.9844       -907.7804
  17365359.62145  13471840.74143  24614804.9084   24614809.8544
     -4031.5784      -3141.4894
  -4998553.95646  -3843241.07746  21590083.5414   21590087.9824
       295.8134        230.5034
  18755038.93343  14545379.87543  24634913.7054   24634918.9084
     -4143.2344      -3228.4944
  -2745035.11944  -2041878.37343  24282227.3464   24282231.2254
       344.5004        268.4424
  -8510996.74345  -6486424.36745  22805291.3384   22805295.9434
       791.9844        617.1314
  -9876962.75446  -7518639.09045  22753438.0494   22753442.3734
      1861.7814       1450.7394
 98  6 26 20 29 30.0020000  0  7G 6G10G17G30G22G26G23
   -547273.67046   -386757.63346  20872751.7364   20872754.7014
     -1172.6724       -913.7704
  17425842.68345  13518970.40444  24626314.2364   24626319.9904
     -4032.5474      -3142.2444
  -5002969.21646  -3846681.53546  21589243.3614   21589247.7094
       293.0784        228.3734
  18817187.93945  14593807.59743  24646740.7914   24646745.2794
     -4143.1414      -3228.4214
  -2750144.10844  -2045859.36643  24281254.7604   24281260.3384
       336.8594        262.4884
  -8522813.92546  -6495632.53545  22803042.2684   22803046.3344
       783.8444        610.7874
  -9904849.26346  -7540368.81745  22748131.3614   22748136.0024
      1856.6254       1446.7214
 98  6 26 20 29 45.0020000  0  7G 6G10G17G30G22G26G23
   -529628.97346   -373008.52446  20876109.3614   20876112.5024
     -1179.9374       -919.4324
  17486333.02545  13566105.66743  24637824.5184   24637830.0494
     -4032.7814      -3142.4274
  -5007347.60546  -3850093.26146  21588410.0334   21588414.5104
       290.7194        226.5344
  18879333.29644  14642232.59543  24658565.8224   24658570.8384
     -4142.8914      -3228.2264
  -2755138.00944  -2049750.71843  24280304.9864   24280309.5214
       328.9064        256.2914
  -8534512.52246  -6504748.32145  22800816.1974   22800819.2324
       775.9384        604.6274
  -9932660.72046  -7562040.05545  22742838.9864   22742843.4044
      1851.5314       1442.7524
 98  6 26 20 30  0.0020000  0  7G 6G10G17G30G22G26G23
   -511874.63746   -359173.98046  20879487.9244   20879490.9824
     -1187.0624       -924.9844
  17546827.96445  13613244.60843  24649335.9164   24649341.3544
     -4033.0314      -3142.6224
  -5011688.77746  -3853475.98646  21587584.1974   21587588.6744
       288.3134        224.6594
  18941476.92644  14690656.12643  24670391.4794   24670397.4084
     -4142.7194      -3228.0934
  -2760009.03644  -2053546.32143  24279378.0804   24279383.3184
       320.7664        249.9474
  -8546089.28746  -6513769.13645  22798613.3774   22798618.2994
       767.8284        598.3084
  -9960393.81546  -7583650.23145  22737561.3464   22737565.7524
      1846.4384       1438.7824
 98  6 26 20 30 15.0020000  0  7G 6G10G17G30G22G26G23
   -494016.05346   -345258.20546  20882886.4244   20882889.5414
     -1194.0624       -930.4384
  17607324.24244  13660384.51443  24660848.6194   24660854.2214
     -4033.0944      -3142.6704
  -5015996.38146  -3856832.56446  21586764.5184   21586768.9594
       286.0474        222.8944
  19003615.25045  14739075.50943  24682216.6114   24682222.0254
     -4142.3914      -3227.8374
  -2764761.11744  -2057249.22243  24278473.7364   24278479.4204
       312.8444        243.7744
  -8557548.39046  -6522698.29045  22796432.7134   22796436.6394
       760.1094        592.2934
  -9988056.33446  -7605205.42045  22732297.6434   22732301.9554
      1841.9384       1435.2764
 98  6 26 20 30 30.0020000  0  7G 6G10G17G30G22G26G23
   -476043.61346   -331253.70546  20886306.5024   20886309.4434
     -1201.5164       -936.2464
  17667829.77544  13707531.66143  24672361.8694   24672366.7914
     -4033.5314      -3143.0114
  -5020260.37246  -3860155.14746  21585953.0724   21585957.4324
       283.3134        220.7634
  19065756.72145  14787497.42444  24694041.5334   24694046.5494
     -4142.2814      -3227.7524
  -2769383.99244  -2060851.46643  24277594.8144   24277600.0414
       304.3754        237.1754
  -8568885.68345  -6531532.54445  22794275.3464   22794279.8814
       752.3914        586.2784
 -10015642.47646  -7626701.09645  22727047.8224   22727052.1704
      1837.0314       1431.4534
 98  6 26 20 30 45.0020000  0  7G 6G10G17G30G22G26G23
   -457960.54346   -317163.00746  20889747.3854   20889750.5724
     -1209.2974       -942.3094
  17728339.10044  13754681.78143  24683876.9554   24683883.5294
     -4034.1094      -3143.4624
  -5024486.56846  -3863448.27646  21585148.9244   21585153.3894
       280.3914        218.4864
  19127891.53944  14835914.09343  24705864.9714   24705869.9754
     -4142.1094      -3227.6184
  -2773882.91544  -2064357.10343  24276738.1114   24276743.2094
       295.6414        230.3694
  -8580110.47446  -6540279.09945  22792139.1974   22792143.5104
       744.3914        580.0454
 -10043159.13646  -7648142.63245  22721812.1434   22721816.6074
      1832.0784       1427.5934
 98  6 26 20 31  0.0020000  0  7G 6G10G17G30G22G26G23
   -439762.62446   -302982.81146  20893210.5334   20893213.5924
     -1217.0004       -948.3124
  17788855.04544  13801836.98842  24695391.9944   24695398.5804
     -4034.6414      -3143.8764
  -5028669.30446  -3866707.54446  21584353.0334   21584357.3464
       277.3754        216.1364
  19190022.70345  14884327.94343  24717689.1744   24717695.5964
     -4141.9374      -3227.4844
  -2778250.34544  -2067760.25543  24275906.8854   24275912.9904
       286.7974        223.4784
  -8591215.73546  -6548932.54345  22790025.8384   22790030.2094
       736.4064        573.8234
 -10070602.17046  -7669526.79545  22716589.7994   22716594.3114
      1827.0944       1423.7094
 98  6 26 20 31 15.0020000  0  7G 6G10G17G30G22G26G23
   -421453.84946   -288716.23146  20896694.5184   20896697.4474
     -1224.2974       -953.9984
  17849375.55843  13848995.80942  24706909.1044   24706913.6624
     -4034.8594      -3144.0464
  -5032810.00246  -3869934.05446  21583564.8694   21583569.3694
       274.6724        214.0304
  19252145.81645  14932735.51043  24729510.3694   24729516.0764
     -4141.2034      -3226.9124
  -2782491.00744  -2071064.63743  24275099.5334   24275105.1004
       278.5004        217.0134
  -8602205.77546  -6557496.17945  22787934.7054   22787938.9244
       728.8444        567.9304
 -10097976.25946  -7690857.23145  22711380.7214   22711385.4204
      1822.6724       1420.2644
 98  6 26 20 31 30.0020000  0  7G 6G10G17G30G22G26G23
   -403031.57746   -274361.22046  20900200.2294   20900203.4634
     -1231.7034       -959.7694
  17909901.58743  13896158.94042  24718427.6504   24718434.2954
     -4034.9224      -3144.0954
  -5036907.68446  -3873127.04546  21582785.2604   21582789.6784
       271.9844        211.9364
  19314259.05244  14981135.40243  24741329.8464   24741335.6114
     -4140.2664      -3226.1814
  -2786602.60044                  24274317.5884
       270.0004
  -8613081.59146  -6565970.83745  22785865.1194   22785868.4124
       721.6094        562.2934
 -10125279.32846  -7712132.32345  22706185.0254   22706189.6194
      1818.0314       1416.6484
 98  6 26 20 31 45.0020000  0  7G 6G10G17G30G22G26G23
   -384500.69746   -259921.57446  20903726.4324   20903729.5844
     -1239.3754       -965.7474
  17970425.96243  13943320.71643  24729944.0644   24729950.5804
     -4035.2504      -3144.3514
  -5040966.74746  -3876289.94446  21582012.7364   21582017.3424
       268.9534        209.5744
  19376356.58644  15029523.01843  24753147.0884   24753150.9434
     -4139.7034      -3225.7434
  -2790589.47045                  24273559.5334
       261.3134
  -8623851.32846  -6574362.82045  22783815.2914   22783819.8504
       714.0474        556.4004
 -10152514.68146  -7733354.66046  22701001.9474   22701006.2254
      1813.0164       1412.7394
 98  6 26 20 32  0.0020000  0  7G 6G10G17G30G22G26G23
   -365856.15246   -245393.35846  20907274.4634   20907277.4754
     -1246.7194       -971.4694
  18030954.81643  13990486.08342  24741463.2364   24741470.1784
     -4035.4374      -3144.4974
  -5044982.55146  -3879419.13846  21581248.6354   21581253.1824
       266.3444        207.5414
  19438442.86845  15077901.89143  24764961.3224   24764965.5884
     -4138.5624      -3224.8544
  -2794449.60545                  24272824.4474
       253.3594
  -8634507.43246  -6582666.25845  22781787.4394   22781791.8814
       706.6724        550.6534
 -10179674.83346  -7754518.38746  22695833.7444   22695837.9984
      1808.2504       1409.0264
 98  6 26 20 32 15.0020000  0  7G 6G10G17G30G22G26G23
   -347093.48046   -230773.09546  20910844.9634   20910848.2794
     -1254.7664       -977.7394
  18091496.46543  14037661.34842  24752984.2444   24752988.9554
     -4036.5474      -3145.3614
  -5048950.49846  -3882511.03446  21580493.8144   21580498.2214
       262.9534        204.8994
  19500517.91344  15126271.96643  24776773.9004   24776778.5534
     -4137.8594      -3224.3064
  -2798186.32945                  24272113.1894
       245.0314
  -8645045.37746  -6590877.63745  22779782.5024   22779786.1354
       698.6094        544.3714
 -10206756.23846  -7775620.77045  22690680.1664   22690684.3144
      1802.8134       1404.7894
 98  6 26 20 32 30.0020000  0  7G 6G10G17G30G22G26G23
   -328218.47446   -216065.30646  20914436.7684   20914440.1314
     -1261.8594       -983.2674
  18152044.59543  14084841.63742  24764505.5024   24764511.6544
     -4036.5314      -3145.3494
  -5052876.93746  -3885570.59346  21579746.1824   21579750.5764
       260.6414        203.0974
  19562572.03644  15174625.76043  24788582.7994   24788587.5104
     -4136.0474      -3222.8944
  -2801806.12345                  24271424.2604
       237.6724
  -8655471.89046  -6599002.16545  22777798.1584   22777802.4364
       691.5784        538.8924
 -10233764.71446  -7796666.30945  22685540.5104   22685544.7644
      1798.2664       1401.2464
 98  6 26 20 32 45.0020000  0  7G 6G10G17G30G22G26G23
   -309233.07646   -201271.49046  20918049.7994   20918053.0574
     -1269.6724       -989.3554
  18212597.52943  14132025.72742  24776028.0964   24776034.7174
     -4037.2814      -3145.9334
  -5056766.76546  -3888601.62046  21579006.0334   21579010.1704
       257.9384        200.9904
  19624602.10045  15222960.78343  24800386.3934   24800391.4794
     -4134.7814      -3221.9074
  -2805312.82545      -719.83053  24270757.5724   24270762.6114
       229.9064        179.1484
  -8665787.39946  -6607040.20945  22775835.1974   22775839.7324
       683.6564        532.7194
 -10260699.73546  -7817654.61346  22680415.0104   22680419.7564
      1792.9844       1397.1314
 98  6 26 20 33  0.0020000  0  7G 6G10G17G30G22G26G23
   -290130.38546   -186386.27846  20921684.6434   20921687.7014
     -1277.4064       -995.3814
  18273160.28244  14179217.45742  24787553.4244   24787558.1584
     -4037.8594      -3146.3844
  -5060616.63046  -3891601.50946  21578273.5724   21578277.9554
       255.2974        198.9334
  19686614.51944  15271282.18243  24812187.4634   24812191.8934
     -4133.6724      -3221.0434
  -2808705.25345     -3363.29444  24270112.0644   24270116.8224
       222.3284        173.2434
  -8675981.83546  -6614983.91445  22773895.4394   22773899.5294
       675.4694        526.3394
 -10287554.85646  -7838580.66546  22675304.8144   22675309.3384
      1787.5474       1392.8944
 98  6 26 20 33 15.0020000  0  7G 6G10G17G30G22G26G23
   -270911.04546   -171410.16846  20925341.7054   20925344.9864
     -1285.3754      -1001.5914
  18333733.37544  14226417.25343  24799079.9164   24799085.1074
     -4038.7974      -3147.1144
  -5064427.29346  -3894570.84846  21577548.2524   21577552.6934
       252.5944        196.8264
  19748611.98844  15319591.83643  24823984.9084   24823988.4364
     -4132.7974      -3220.3614
  -2811984.93045     -5918.90244  24269487.9164   24269493.0614
       214.7664        167.3504
  -8686053.91846  -6622832.27545  22771978.9324   22771983.3034
       667.2814        519.9594
 -10314327.76246  -7859442.65146  22670209.5804   22670213.8574
      1782.0004       1388.5714
 98  6 26 20 33 30.0020000  0  7G 6G10G17G30G22G26G23
   -251575.49946   -156343.51446  20929021.2604   20929024.5064
     -1293.3444      -1007.8004
  18394317.28844  14273625.47542  24810608.9554   24810615.0024
     -4039.6874      -3147.8084
  -5068200.40046  -3897510.92446  21576830.4084   21576834.6744
       249.9064        194.7324
  19810591.34444  15367887.34843  24835779.5414   24835785.5764
     -4131.7344      -3219.5334
  -2815154.08745     -8388.34844  24268884.5964   24268889.2484
       207.0784        161.3604
  -8696005.75046  -6630586.93245  22770084.8304   22770088.8734
       658.9694        513.4824
 -10341020.31746  -7880242.02446  22665130.3694   22665135.0104
      1776.3594       1384.1764
 98  6 26 20 33 45.0020000  0  7G 6G10G17G30G22G26G23
   -232122.41746   -141185.27046  20932723.1044   20932726.1864
     -1300.3444      -1013.2554
  18454912.76144  14320842.72443  24822139.3774   24822144.6974
     -4039.7504      -3147.8574
  -5071936.60746  -3900422.24746  21576119.2524   21576123.6704
       248.2664        193.4544
  19872552.44245  15416168.69843  24847570.5104   24847577.0964
     -4129.7664      -3217.9994
  -2818209.25545    -10768.99944  24268303.1974   24268308.4824
       200.2974        156.0754
  -8705834.03346  -6638245.33445  22768214.6584   22768218.4434
       651.4694        507.6384
 -10367630.45546  -7900977.16846  22660066.5104   22660071.3504
      1771.7664       1380.5974
 98  6 26 20 34  0.0020000  0  7G 6G10G17G30G22G26G23
   -212552.43246   -125935.93846  20936447.1354   20936450.1824
     -1308.5004      -1019.6104
  18515523.29844  14368071.64443  24833674.0884   24833679.9824
     -4041.2344      -3149.0144
  -5075635.66346  -3903304.62546  21575415.4944   21575419.8544
       245.3914        191.2134
  19934496.35144  15464436.65043  24859357.0884   24859364.0064
     -4128.9534      -3217.3664
  -2821150.02745    -13060.51944  24267743.7364   24267747.9324
       192.2814        149.8304
  -8715535.10246  -6645804.59045  22766368.7684   22766372.7524
       642.4534        500.6134
 -10394161.73046  -7921650.87746  22655018.2054   22655023.2094
      1766.2194       1376.2744
 98  6 26 20 34 15.0020000  0  7G 6G10G17G30G22G26G23
   -192867.49446   -110597.02546  20940193.0184   20940196.0414
     -1316.2664      -1025.6624
  18576150.20644  14415313.39642  24845210.5494   24845216.4204
     -4042.4534      -3149.9634
  -5079297.91246  -3906158.31746  21574718.8384   21574723.1044
       242.7664        189.1684
  19996420.39043  15512689.07443  24871141.3144   24871148.5844
     -4127.7194      -3216.4044
  -2823978.25645    -15264.30244  24267205.5964   24267210.2254
       184.6724        143.9004
  -8725109.09546  -6653264.83545  22764546.5644   22764550.7364
       633.9844        494.0144
 -10420618.75746  -7942266.71145  22649983.4394   22649988.0454
      1761.3594       1372.4884
 98  6 26 20 34 30.0020000  0  7G 6G10G17G30G22G26G23
   -173065.80446    -95167.14246  20943961.4474   20943964.4364
     -1324.4844      -1032.0664
  18636794.58844  14462568.74042  24856750.6584   24856756.1194
     -4043.9064      -3151.0964
  -5082920.20846  -3908980.88146  21574029.2524   21574033.6354
       239.7194        186.7944
  20058327.61444  15560928.37743  24882922.5724   24882928.9364
     -4127.1414      -3215.9544
  -2826689.11345    -17376.65944  24266689.3464   24266695.4394
       176.2664        137.3504
  -8734555.24546  -6660625.46345  22762749.2364   22762753.4554
       625.0004        487.0134
 -10447004.28246  -7962826.84746  22644962.2994   22644967.1624
      1756.2504       1368.5064
 98  6 26 20 34 45.0020000  0  7G 6G10G17G30G22G26G23
   -153141.50746    -79641.71746  20947752.8934   20947755.8464
     -1332.2034      -1038.0804
  18697456.96545  14509838.11142  24868294.9714   24868301.9944
     -4044.5624      -3151.6074
  -5086498.52846  -3911769.17446  21573348.1274   21573352.4164
       237.3444        184.9434
  20120227.11044  15609161.68843  24894701.0104   24894708.2914
     -4126.2664      -3215.2724
  -2829277.67445    -19393.70643  24266197.0254   24266201.3964
       168.7974        131.5304
  -8743869.18046  -6667883.05345  22760976.6664   22760980.4044
       616.7974        480.6214
 -10473316.05846  -7983329.50446  22639955.4244   22639959.9244
      1751.8594       1365.0854
 98  6 26 20 35  0.0020000  0  7G 6G10G17G30G22G26G23
   -133098.25646    -64023.60746  20951566.9474   20951570.0294
     -1339.8444      -1044.0344
  18758133.44444  14557118.46242  24879840.5884   24879847.7524
     -4045.2194      -3152.1194
  -5090037.65446  -3914526.93046  21572674.8464   21572679.3814
       234.7974        182.9594
  20182117.17543  15657387.69342  24906478.2684   24906483.5294
     -4125.3594      -3214.5664
  -2831750.14245    -21320.28744  24265726.4554   24265732.3854
       161.1884        125.6014
  -8753057.51546  -6675042.79645  22759228.2994   22759232.6464
       608.7034        474.3144
 -10499558.35446  -8003778.02846  22634961.3614   22634965.9674
      1747.4694       1361.6644
 98  6 26 20 35 15.0020000  0  7G 6G10G17G30G22G26G23
   -112935.13146    -48312.08146  20955403.9004   20955407.1934
     -1348.1564      -1050.5114
  18818826.18444  14604411.48742  24891390.7604   24891395.1784
     -4046.7664      -3153.3244
  -5093529.05046  -3917247.49346  21572010.6354   21572014.8654
       231.1254        180.0974
  20243999.84943  15705607.88342  24918254.3144   24918259.5184
     -4125.2344      -3214.4684
  -2834098.87745    -23150.45844  24265279.6044   24265284.9124
       152.3754        118.7344
  -8762118.24646  -6682103.08645  22757503.6974   22757508.2684
       599.8134        467.3864
 -10525727.02946  -8024169.17246  22629981.7214   22629986.3504
      1742.1254       1357.5004
 98  6 26 20 35 30.0020000  0  7G 6G10G17G30G22G26G23
    -92658.45646    -32512.07946  20959262.5184   20959265.7174
     -1355.2504      -1056.0394
  18879531.82044  14651714.50643  24902942.7684   24902947.4084
     -4047.2034      -3153.6654
  -5096975.82946  -3919933.29246  21571354.7994   21571358.9824
       228.5004        178.0524
  20305868.48844  15753817.11842  24930027.5184   24930033.6354
     -4123.7194      -3213.2874
  -2836325.70645    -24885.65144  24264856.0104   24264860.5214
       144.6564        112.7194
  -8771057.06046  -6689068.37845  22755803.2214   22755807.2874
       592.1254        461.3964
 -10551828.78646  -8044508.18846  22625014.6664   22625019.2954
      1738.1884       1354.4324
 98  6 26 20 35 45.0020000  0  7G 6G10G17G30G22G26G23
    -72267.84546    -16623.29246  20963142.4634   20963145.5214
     -1363.1724      -1062.2124
  18940251.53144  14699028.59142  24914496.8544   24914502.5374
     -4048.4064      -3154.6024
  -5100374.29046  -3922581.43846  21570707.9324   21570712.0924
       225.0004        175.3254
  20367722.59244  15802015.11343  24941798.1974   24941804.4204
     -4123.2194      -3212.8984
  -2838427.69245    -26523.55744  24264455.5334   24264462.0494
       135.9384        105.9254
  -8779872.08746  -6695937.23445  22754125.6824   22754130.0764
       583.5004        454.6754
 -10577861.64146  -8064793.49246  22620060.8384   22620065.3034
      1733.2034       1350.5484
 98  6 26 20 36  0.0020000  0  7G 6G10G17G30G22G26G23
    -51763.29646      -645.72746  20967044.4794   20967047.5254
     -1371.1874      -1068.4584
  19000984.55744  14746353.00442  24926053.7054   24926058.9204
     -4049.7344      -3155.6374
  -5103724.88746  -3925192.28946  21570070.2834   21570074.4324
       221.2664        172.4154
  20429566.83143  15850205.34243  24953566.4324   24953574.1824
     -4123.1254      -3212.8254
  -2840404.16145    -28063.65044  24264079.6744   24264085.0644
       127.1254         99.0584
  -8788563.08246  -6702709.41645  22752471.9944   22752475.7794
       574.8444        447.9304
 -10603825.13646  -8085024.77446  22615120.1114   22615124.9754
      1728.1254       1346.5914
 98  6 26 20 36 15.0020000  0  7G 6G10G17G30G22G26G23
    -31142.62446     15422.32446  20970968.3934   20970971.7324
     -1378.5164      -1074.1684
  19061731.60444  14793688.33442  24937613.2834   24937618.8264
     -4050.0784      -3155.9054
  -5107022.97546  -3927762.22446  21569442.6114   21569446.8424
       218.2194        170.0414
  20491404.96643  15898390.77342  24965333.8614   24965339.3224
     -4122.2034      -3212.1064
  -2842253.15145    -29504.41544  24263727.7294   24263732.2994
       119.1414         92.8374
  -8797128.72046  -6709383.93645  22750841.5964   22750845.7324
       567.0164        441.8304
 -10629713.63646  -8105197.60646  22610193.7054   22610198.5924
      1723.3594       1342.8774
 98  6 26 20 36 30.0020000  0  7G 6G10G17G30G22G26G23
    -10410.43946     31577.27146  20974913.7134   20974916.8654
     -1385.7344      -1079.7934
  19122482.68944  14841026.83242  24949174.1824   24949181.0024
     -4049.9534      -3155.8084
  -5110274.04546  -3930295.52046  21568823.9634   21568828.2294
       215.3444        167.8004
  20553230.99444  15946566.89742  24977099.2524   24977103.3184
     -4121.1724      -3211.3034
  -2843980.33645    -30850.24944  24263398.9714   24263404.5494
       111.1254         86.5914
  -8805577.80646  -6715967.63645  22749234.1194   22749238.3854
       559.5314        435.9984
 -10655527.56846  -8125312.33346  22605281.5804   22605286.6314
      1718.4844       1339.0794
 98  6 26 20 36 45.0020000  0  7G 6G10G17G30G22G26G23
     10433.63546     47819.40546  20978880.0254   20978883.3544
     -1393.4374      -1085.7954
  19183234.02944  14888365.48042  24960734.5104   24960740.4754
     -4050.2034      -3156.0024
  -5113480.02846  -3932793.68646  21568213.9164   21568218.2874
       212.1724        165.3294
  20615044.45644  15994733.17542  24988862.4324   24988868.0684
     -4120.5784      -3210.8404
  -2845582.30644    -32098.53344  24263093.8774   24263098.8464
       102.5634         79.9194
  -8813910.87246  -6722460.91245  22747648.1664   22747652.5144
       551.5784        429.8014
 -10681260.54546  -8145363.98646  22600384.5494   22600389.4474
      1712.5944       1334.4894
 98  6 26 20 37  0.0020000  0  7G 6G10G17G30G22G26G23
     31391.98246     64150.58446  20982868.6584   20982871.9164
     -1400.8914      -1091.6034
  19243988.21543  14935706.41842  24972295.9164   24972302.8574
     -4050.2974      -3156.0754
  -5116640.57446  -3935256.44746  21567612.5884   21567616.9594
       209.3284        163.1134
  20676845.69943  16042889.95643  25000622.1824   25000628.3574
     -4119.4374      -3209.9514
  -2847058.76344    -33249.00944  24262813.0024   24262818.4514
        94.3284         73.5024
  -8822126.75046  -6728862.90445  22746084.8074   22746089.0144
       543.9384        423.8474
 -10706904.73646  -8165346.45246  22595504.3694   22595509.2094
      1706.6724       1329.8744
 98  6 26 20 37 15.0020000  0  7G 6G10G17G30G22G26G23
     52458.49846     80566.04546  20986877.1274   20986880.2564
     -1407.9064      -1097.0704
  19304741.10443  14983046.29642  24983856.5254   24983861.4004
     -4049.9224      -3155.7834
  -5119759.97146  -3937687.14246  21567019.0644   21567023.3074
       206.7504        161.1044
  20738625.89343  16091030.26242  25012378.6584   25012385.9864
     -4117.7504      -3208.6364
  -2848411.84644    -34303.34944  24262555.6974   24262560.5144
        86.2344         67.1964
  -8830227.24446  -6735174.95845  22744543.8144   22744548.2684
       536.2194        417.8334
 -10732461.44946  -8185260.74546  22590641.4864   22590646.9244
      1701.0944       1325.5284
 98  6 26 20 37 30.0020000  0  7G 6G10G17G30G22G26G23
     73638.28246     97069.77346  20990907.5254   20990910.9244
     -1415.6414      -1103.0974
  19365494.09844  15030386.24842  24995418.3694   24995424.5804
     -4050.0474      -3155.8814
  -5122837.98246  -3940085.58646  21566433.2054   21566437.6234
       204.1094        159.0464
  20800387.55743  16139156.13842  25024131.8384   25024136.4904
     -4116.6874      -3207.8084
  -2849638.18244    -35258.93344  24262322.8694   24262327.3814
        77.7034         60.5484
  -8838205.27046  -6741391.58645  22743025.1894   22743029.3034
       527.9384        411.3804
 -10757929.80346  -8205106.19546  22585795.0334   22585800.3304
      1695.0944       1320.8524
 98  6 26 20 37 45.0020000  0  7G 6G10G17G30G22G26G23
     94931.49446    113661.88146  20994959.4554   20994962.4204
     -1423.2344      -1109.0144
  19426246.02444  15077725.40342  25006979.1044   25006984.2834
     -4049.9694      -3155.8204
  -5125879.25746  -3942455.40746  21565854.4324   21565858.7794
       201.6254        157.1104
  20862130.62544  16187267.58842  25035881.4324   25035886.8114
     -4115.5004      -3206.8834
  -2850738.88445    -36116.58543  24262112.6664   24262117.3544
        69.2814         53.9854
  -8846063.05746  -6747514.52745  22741529.7604   22741534.1434
       519.9694        405.1704
 -10783310.38046  -8224883.24546  22580965.2054   22580970.0454
      1689.1094       1316.1894
 98  6 26 20 38  0.0020000  0  7G 6G10G17G30G22G26G23
    116338.35246    130342.54346  20999033.2684   20999036.1504
     -1431.0314      -1115.0894
  19486993.60143  15125061.14742  25018538.0574   25018543.3304
     -4049.7504      -3155.6494
  -5128886.49946  -3944798.71446  21565282.3384   21565286.6504
       199.3444        155.3334
  20923855.73644  16235365.05742  25047627.4164   25047632.5964
     -4114.5004      -3206.1044
  -2851714.30144    -36876.67244  24261926.7054   24261930.5724
        60.8284         47.3994
  -8853801.96646  -6753544.83245  22740057.2364   22740061.0334
       511.9224        398.9004
 -10808600.90046  -8244590.12746  22576152.3934   22576157.2914
      1682.9844       1311.4164
 98  6 26 20 38 15.0020000  0  7G 6G10G17G30G22G26G23
    137858.41146    147111.42446  21003128.3854   21003131.3854
     -1438.4534      -1120.8734
  19547734.16743  15172391.47342  25030097.0574   25030104.5254
     -4049.1564      -3155.1874
  -5131863.22346  -3947118.22946  21564715.6664   21564720.1894
       197.3914        153.8114
  20985559.75343  16283446.01743  25059369.2604   25059375.2364
     -4112.8444      -3204.8134
  -2852568.65945    -37542.38043  24261764.9324   24261769.7254
        52.9224         41.2384
  -8861424.97346  -6759484.83645  22738606.5414   22738610.4084
       504.2814        392.9464
 -10833803.46646  -8264228.45946  22571356.8464   22571361.0184
      1677.1884       1306.8994
 98  6 26 20 38 30.0020000  0  7G 6G10G17G30G22G26G23
    159495.30646    163971.33046  21007245.7524   21007248.7524
     -1446.3914      -1127.0584
  19608471.02143  15219718.80642  25041655.3614   25041660.6824
     -4049.0624      -3155.1144
  -5134805.54246  -3949410.95146  21564155.9794   21564160.2094
       194.9844        151.9364
  21047244.23543  16331511.71943  25071107.7444   25071111.3774
     -4111.6724      -3203.9004
  -2853298.31145    -38110.92944  24261625.7054   24261631.1664
        44.4064         34.6024
  -8868926.96146  -6765330.52945  22737178.9394   22737183.2404
       495.9844        386.4814
 -10858913.57746  -8283794.76146  22566578.4004   22566582.9364
      1670.9224       1302.0174
 98  6 26 20 38 45.0020000  0  7G 6G10G17G30G22G26G23
    181245.69146    180919.68246  21011384.7604   21011387.8424
     -1454.1414      -1133.0974
  19669201.89143  15267041.53242  25053211.0574   25053216.2714
     -4048.8914      -3154.9804
  -5137717.53646  -3951680.03246  21563601.7604   21563606.1434
       192.7974        150.2314
  21108905.94344  16379559.77743  25082841.5494   25082848.6194
     -4110.3914      -3202.9024
  -2853904.56445    -38583.35544  24261510.2444   24261516.1864
        35.9534         28.0154
  -8876308.55146  -6771082.40745  22735774.1354   22735777.5804
       487.6414        379.9804
 -10883938.10946  -8303294.37746  22561816.2994   22561820.9864
      1665.2194       1297.5734
 98  6 26 20 39  0.0020000  0  8G21G 6G10G17G30G22G26G23
    -12714.48253                  25523344.1114
      2542.7664
    203111.59846    197958.04646  21015545.5644   21015548.7294
     -1461.7344      -1139.0144
  19729930.39243  15314362.43642  25064767.7994   25064772.9434
     -4048.7194      -3154.8464
  -5140597.81246  -3953924.40046  21563053.7364   21563057.9434
       190.7664        148.6494
  21170546.81344  16427591.53043  25094571.3614   25094578.2564
     -4108.8124      -3201.6724
  -2854387.08845    -38959.33643  24261418.7684   24261424.1704
        28.0314         21.8434
  -8883563.58046  -6776735.67245  22734393.6354   22734397.4204
       479.2344        373.4294
 -10908879.71546  -8322729.37646  22557070.0724   22557074.3854
      1659.9534       1293.4704
 98  6 26 20 39 15.0020000  0  8G21G 6G10G17G30G22G26G23
    -50848.28443                  25516088.4244
      2541.7344
    225091.91646    215085.56546  21019728.5184   21019731.4824
     -1468.9534      -1144.6394
  19790658.38643  15361682.91342  25076323.4164   25076329.7214
     -4048.3444      -3154.5544
  -5143445.19746  -3956143.14146  21562511.8464   21562516.2404
       188.8754        147.1754
  21232165.33043  16475605.94742  25106296.9244   25106302.6074
     -4107.0004      -3200.2604
  -2854750.41944    -39242.42143  24261349.3144   24261354.3424
        20.3594         15.8644
  -8890689.62146  -6782288.40645  22733037.9864   22733042.8504
       470.9224        366.9524
 -10933743.65746  -8342103.86046  22552338.9474   22552343.4474
      1655.2814       1289.8304
 98  6 26 20 39 30.0020000  0  8G21G 6G10G17G30G22G26G23
    -88960.53243                  25508836.1894
      2540.4224
    247185.70246    232301.49846  21023932.5184   21023935.4944
     -1476.4694      -1150.4954
  19851386.50343  15409003.51342  25087879.9244   25087886.9714
     -4048.2974      -3154.5174
  -5146257.48446  -3958334.53246  21561976.4794   21561980.6974
       186.5944        145.3984
  21293763.18243  16523604.27342  25118018.1504   25118024.4794
     -4105.5314      -3199.1154
  -2854992.21344    -39430.84444  24261302.9244   24261307.3184
        12.4064          9.6674
  -8897684.90146  -6787739.27445  22731706.1824   22731710.3074
       462.3594        360.2804
 -10958533.24146  -8361420.39746  22547621.3854   22547625.8854
      1650.5164       1286.1164
